<?xml version="1.0" encoding="UTF-8" standalone="no" ?>
<gpx xmlns="http://www.topografix.com/GPX/1/1" xmlns:xsi="http://www.w3.org/2001/XMLSchema-instance" xsi:schemaLocation="http://www.topografix.com/GPX/1/1 http://www.topografix.com/GPX/1/1/gpx.xsd" version="1.1" creator="VisuGPX - https://www.visugpx.com">
  <metadata>
    <name>GR20 étape 10</name>
    <desc><![CDATA[Du col Verde à Usciolu]]></desc>
  </metadata>
  <trk>
    <name><![CDATA[2015-09-13 17:21:51]]></name>
    <trkseg>
      <trkpt lat="42.02748" lon="9.19398">
        <ele>1281.57</ele>
        <time>2015-09-13T05:10:37Z</time>
      </trkpt>
      <trkpt lat="42.02748" lon="9.19398">
        <ele>1281.57</ele>
        <time>2015-09-13T05:10:41Z</time>
      </trkpt>
      <trkpt lat="42.0275" lon="9.19395">
        <ele>1281.57</ele>
        <time>2015-09-13T05:11:18Z</time>
      </trkpt>
      <trkpt lat="42.02745" lon="9.19394">
        <ele>1280.13</ele>
        <time>2015-09-13T05:11:42Z</time>
      </trkpt>
      <trkpt lat="42.0274" lon="9.19405">
        <ele>1280.13</ele>
        <time>2015-09-13T05:12:24Z</time>
      </trkpt>
      <trkpt lat="42.02748" lon="9.19416">
        <ele>1280.13</ele>
        <time>2015-09-13T05:12:55Z</time>
      </trkpt>
      <trkpt lat="42.02752" lon="9.19414">
        <ele>1280.13</ele>
        <time>2015-09-13T05:13:28Z</time>
      </trkpt>
      <trkpt lat="42.02753" lon="9.19407">
        <ele>1281.57</ele>
        <time>2015-09-13T05:13:50Z</time>
      </trkpt>
      <trkpt lat="42.02759" lon="9.19412">
        <ele>1282.06</ele>
        <time>2015-09-13T05:14:17Z</time>
      </trkpt>
      <trkpt lat="42.02751" lon="9.19408">
        <ele>1282.06</ele>
        <time>2015-09-13T05:14:44Z</time>
      </trkpt>
      <trkpt lat="42.02752" lon="9.19402">
        <ele>1281.09</ele>
        <time>2015-09-13T05:15:13Z</time>
      </trkpt>
      <trkpt lat="42.0275" lon="9.19397">
        <ele>1281.09</ele>
        <time>2015-09-13T05:15:35Z</time>
      </trkpt>
      <trkpt lat="42.02751" lon="9.19416">
        <ele>1283.02</ele>
        <time>2015-09-13T05:16:04Z</time>
      </trkpt>
      <trkpt lat="42.02763" lon="9.19427">
        <ele>1285.42</ele>
        <time>2015-09-13T05:16:23Z</time>
      </trkpt>
      <trkpt lat="42.02771" lon="9.19431">
        <ele>1287.34</ele>
        <time>2015-09-13T05:16:42Z</time>
      </trkpt>
      <trkpt lat="42.02778" lon="9.19439">
        <ele>1289.75</ele>
        <time>2015-09-13T05:17:00Z</time>
      </trkpt>
      <trkpt lat="42.02784" lon="9.1943">
        <ele>1293.11</ele>
        <time>2015-09-13T05:17:24Z</time>
      </trkpt>
      <trkpt lat="42.02788" lon="9.19425">
        <ele>1294.55</ele>
        <time>2015-09-13T05:17:47Z</time>
      </trkpt>
      <trkpt lat="42.02792" lon="9.19425">
        <ele>1294.55</ele>
        <time>2015-09-13T05:18:17Z</time>
      </trkpt>
      <trkpt lat="42.02791" lon="9.19423">
        <ele>1294.55</ele>
        <time>2015-09-13T05:18:45Z</time>
      </trkpt>
      <trkpt lat="42.02794" lon="9.19422">
        <ele>1288.3</ele>
        <time>2015-09-13T05:19:04Z</time>
      </trkpt>
      <trkpt lat="42.02793" lon="9.19423">
        <ele>1301.28</ele>
        <time>2015-09-13T05:19:05Z</time>
      </trkpt>
      <trkpt lat="42.02792" lon="9.19423">
        <ele>1294.55</ele>
        <time>2015-09-13T05:19:06Z</time>
      </trkpt>
      <trkpt lat="42.0279" lon="9.19456">
        <ele>1295.51</ele>
        <time>2015-09-13T05:19:28Z</time>
      </trkpt>
      <trkpt lat="42.02805" lon="9.19477">
        <ele>1299.36</ele>
        <time>2015-09-13T05:19:52Z</time>
      </trkpt>
      <trkpt lat="42.02822" lon="9.19492">
        <ele>1301.28</ele>
        <time>2015-09-13T05:20:14Z</time>
      </trkpt>
      <trkpt lat="42.02825" lon="9.19507">
        <ele>1302.24</ele>
        <time>2015-09-13T05:20:38Z</time>
      </trkpt>
      <trkpt lat="42.02806" lon="9.19515">
        <ele>1304.17</ele>
        <time>2015-09-13T05:20:59Z</time>
      </trkpt>
      <trkpt lat="42.0279" lon="9.19527">
        <ele>1306.57</ele>
        <time>2015-09-13T05:21:22Z</time>
      </trkpt>
      <trkpt lat="42.02772" lon="9.19546">
        <ele>1308.49</ele>
        <time>2015-09-13T05:21:47Z</time>
      </trkpt>
      <trkpt lat="42.02758" lon="9.19561">
        <ele>1311.38</ele>
        <time>2015-09-13T05:22:13Z</time>
      </trkpt>
      <trkpt lat="42.02738" lon="9.19575">
        <ele>1314.74</ele>
        <time>2015-09-13T05:22:37Z</time>
      </trkpt>
      <trkpt lat="42.02722" lon="9.19586">
        <ele>1316.66</ele>
        <time>2015-09-13T05:23:00Z</time>
      </trkpt>
      <trkpt lat="42.02705" lon="9.19599">
        <ele>1319.07</ele>
        <time>2015-09-13T05:23:26Z</time>
      </trkpt>
      <trkpt lat="42.02685" lon="9.19614">
        <ele>1321.47</ele>
        <time>2015-09-13T05:23:53Z</time>
      </trkpt>
      <trkpt lat="42.02666" lon="9.19628">
        <ele>1323.39</ele>
        <time>2015-09-13T05:24:21Z</time>
      </trkpt>
      <trkpt lat="42.02652" lon="9.19649">
        <ele>1326.28</ele>
        <time>2015-09-13T05:24:47Z</time>
      </trkpt>
      <trkpt lat="42.02637" lon="9.19672">
        <ele>1328.2</ele>
        <time>2015-09-13T05:25:13Z</time>
      </trkpt>
      <trkpt lat="42.02621" lon="9.19694">
        <ele>1330.6</ele>
        <time>2015-09-13T05:25:44Z</time>
      </trkpt>
      <trkpt lat="42.02598" lon="9.19718">
        <ele>1333.97</ele>
        <time>2015-09-13T05:26:11Z</time>
      </trkpt>
      <trkpt lat="42.0258" lon="9.19732">
        <ele>1333.97</ele>
        <time>2015-09-13T05:26:34Z</time>
      </trkpt>
      <trkpt lat="42.02557" lon="9.19738">
        <ele>1334.93</ele>
        <time>2015-09-13T05:27:03Z</time>
      </trkpt>
      <trkpt lat="42.0254" lon="9.19753">
        <ele>1337.33</ele>
        <time>2015-09-13T05:27:28Z</time>
      </trkpt>
      <trkpt lat="42.02513" lon="9.19771">
        <ele>1338.29</ele>
        <time>2015-09-13T05:27:54Z</time>
      </trkpt>
      <trkpt lat="42.02485" lon="9.19773">
        <ele>1340.22</ele>
        <time>2015-09-13T05:28:25Z</time>
      </trkpt>
      <trkpt lat="42.02457" lon="9.19779">
        <ele>1341.66</ele>
        <time>2015-09-13T05:28:53Z</time>
      </trkpt>
      <trkpt lat="42.02442" lon="9.19792">
        <ele>1344.06</ele>
        <time>2015-09-13T05:29:20Z</time>
      </trkpt>
      <trkpt lat="42.02433" lon="9.1982">
        <ele>1347.43</ele>
        <time>2015-09-13T05:29:41Z</time>
      </trkpt>
      <trkpt lat="42.02427" lon="9.1984">
        <ele>1349.83</ele>
        <time>2015-09-13T05:30:08Z</time>
      </trkpt>
      <trkpt lat="42.02425" lon="9.19858">
        <ele>1353.19</ele>
        <time>2015-09-13T05:30:35Z</time>
      </trkpt>
      <trkpt lat="42.02413" lon="9.19865">
        <ele>1356.08</ele>
        <time>2015-09-13T05:30:57Z</time>
      </trkpt>
      <trkpt lat="42.02408" lon="9.19891">
        <ele>1359.44</ele>
        <time>2015-09-13T05:31:23Z</time>
      </trkpt>
      <trkpt lat="42.02416" lon="9.19906">
        <ele>1362.33</ele>
        <time>2015-09-13T05:31:47Z</time>
      </trkpt>
      <trkpt lat="42.02428" lon="9.19929">
        <ele>1365.69</ele>
        <time>2015-09-13T05:32:12Z</time>
      </trkpt>
      <trkpt lat="42.02441" lon="9.19941">
        <ele>1368.57</ele>
        <time>2015-09-13T05:32:38Z</time>
      </trkpt>
      <trkpt lat="42.02459" lon="9.19942">
        <ele>1371.46</ele>
        <time>2015-09-13T05:33:02Z</time>
      </trkpt>
      <trkpt lat="42.02468" lon="9.19935">
        <ele>1374.82</ele>
        <time>2015-09-13T05:33:26Z</time>
      </trkpt>
      <trkpt lat="42.02479" lon="9.19926">
        <ele>1379.63</ele>
        <time>2015-09-13T05:33:52Z</time>
      </trkpt>
      <trkpt lat="42.02477" lon="9.19939">
        <ele>1376.75</ele>
        <time>2015-09-13T05:34:21Z</time>
      </trkpt>
      <trkpt lat="42.02477" lon="9.19936">
        <ele>1376.75</ele>
        <time>2015-09-13T05:34:52Z</time>
      </trkpt>
      <trkpt lat="42.02479" lon="9.19927">
        <ele>1376.75</ele>
        <time>2015-09-13T05:35:21Z</time>
      </trkpt>
      <trkpt lat="42.02469" lon="9.19916">
        <ele>1376.26</ele>
        <time>2015-09-13T05:35:45Z</time>
      </trkpt>
      <trkpt lat="42.02466" lon="9.19924">
        <ele>1375.3</ele>
        <time>2015-09-13T05:36:24Z</time>
      </trkpt>
      <trkpt lat="42.02464" lon="9.19926">
        <ele>1376.26</ele>
        <time>2015-09-13T05:36:32Z</time>
      </trkpt>
      <trkpt lat="42.02465" lon="9.19938">
        <ele>1374.82</ele>
        <time>2015-09-13T05:37:01Z</time>
      </trkpt>
      <trkpt lat="42.02471" lon="9.19947">
        <ele>1377.71</ele>
        <time>2015-09-13T05:37:14Z</time>
      </trkpt>
      <trkpt lat="42.02503" lon="9.19955">
        <ele>1381.55</ele>
        <time>2015-09-13T05:37:46Z</time>
      </trkpt>
      <trkpt lat="42.02523" lon="9.19952">
        <ele>1384.44</ele>
        <time>2015-09-13T05:38:16Z</time>
      </trkpt>
      <trkpt lat="42.02533" lon="9.19951">
        <ele>1386.84</ele>
        <time>2015-09-13T05:38:45Z</time>
      </trkpt>
      <trkpt lat="42.0254" lon="9.19976">
        <ele>1389.72</ele>
        <time>2015-09-13T05:39:12Z</time>
      </trkpt>
      <trkpt lat="42.02546" lon="9.1997">
        <ele>1392.61</ele>
        <time>2015-09-13T05:39:40Z</time>
      </trkpt>
      <trkpt lat="42.0256" lon="9.19978">
        <ele>1395.97</ele>
        <time>2015-09-13T05:40:03Z</time>
      </trkpt>
      <trkpt lat="42.02559" lon="9.20002">
        <ele>1398.86</ele>
        <time>2015-09-13T05:40:30Z</time>
      </trkpt>
      <trkpt lat="42.0258" lon="9.19995">
        <ele>1402.22</ele>
        <time>2015-09-13T05:40:58Z</time>
      </trkpt>
      <trkpt lat="42.02592" lon="9.20007">
        <ele>1406.07</ele>
        <time>2015-09-13T05:41:21Z</time>
      </trkpt>
      <trkpt lat="42.02595" lon="9.20023">
        <ele>1408.95</ele>
        <time>2015-09-13T05:41:45Z</time>
      </trkpt>
      <trkpt lat="42.02599" lon="9.20033">
        <ele>1411.35</ele>
        <time>2015-09-13T05:42:06Z</time>
      </trkpt>
      <trkpt lat="42.02607" lon="9.20031">
        <ele>1414.24</ele>
        <time>2015-09-13T05:42:29Z</time>
      </trkpt>
      <trkpt lat="42.02606" lon="9.20046">
        <ele>1416.64</ele>
        <time>2015-09-13T05:42:56Z</time>
      </trkpt>
      <trkpt lat="42.02617" lon="9.20061">
        <ele>1420</ele>
        <time>2015-09-13T05:43:17Z</time>
      </trkpt>
      <trkpt lat="42.02626" lon="9.20077">
        <ele>1422.89</ele>
        <time>2015-09-13T05:43:40Z</time>
      </trkpt>
      <trkpt lat="42.02639" lon="9.2009">
        <ele>1425.29</ele>
        <time>2015-09-13T05:44:05Z</time>
      </trkpt>
      <trkpt lat="42.02654" lon="9.20092">
        <ele>1427.7</ele>
        <time>2015-09-13T05:44:32Z</time>
      </trkpt>
      <trkpt lat="42.02673" lon="9.20107">
        <ele>1429.14</ele>
        <time>2015-09-13T05:44:57Z</time>
      </trkpt>
      <trkpt lat="42.0268" lon="9.20121">
        <ele>1432.02</ele>
        <time>2015-09-13T05:45:21Z</time>
      </trkpt>
      <trkpt lat="42.02689" lon="9.20142">
        <ele>1432.5</ele>
        <time>2015-09-13T05:45:45Z</time>
      </trkpt>
      <trkpt lat="42.02697" lon="9.20163">
        <ele>1434.42</ele>
        <time>2015-09-13T05:46:11Z</time>
      </trkpt>
      <trkpt lat="42.02699" lon="9.20191">
        <ele>1436.83</ele>
        <time>2015-09-13T05:46:34Z</time>
      </trkpt>
      <trkpt lat="42.02701" lon="9.2021">
        <ele>1439.23</ele>
        <time>2015-09-13T05:47:01Z</time>
      </trkpt>
      <trkpt lat="42.02689" lon="9.20224">
        <ele>1441.63</ele>
        <time>2015-09-13T05:47:28Z</time>
      </trkpt>
      <trkpt lat="42.02677" lon="9.20243">
        <ele>1444.52</ele>
        <time>2015-09-13T05:47:55Z</time>
      </trkpt>
      <trkpt lat="42.0267" lon="9.20253">
        <ele>1447.4</ele>
        <time>2015-09-13T05:48:15Z</time>
      </trkpt>
      <trkpt lat="42.02665" lon="9.20261">
        <ele>1449.81</ele>
        <time>2015-09-13T05:48:36Z</time>
      </trkpt>
      <trkpt lat="42.02661" lon="9.20269">
        <ele>1453.17</ele>
        <time>2015-09-13T05:48:57Z</time>
      </trkpt>
      <trkpt lat="42.0266" lon="9.20292">
        <ele>1455.09</ele>
        <time>2015-09-13T05:49:21Z</time>
      </trkpt>
      <trkpt lat="42.02656" lon="9.20307">
        <ele>1457.5</ele>
        <time>2015-09-13T05:49:46Z</time>
      </trkpt>
      <trkpt lat="42.02651" lon="9.2032">
        <ele>1460.86</ele>
        <time>2015-09-13T05:50:08Z</time>
      </trkpt>
      <trkpt lat="42.02644" lon="9.20333">
        <ele>1464.23</ele>
        <time>2015-09-13T05:50:33Z</time>
      </trkpt>
      <trkpt lat="42.02643" lon="9.20344">
        <ele>1467.11</ele>
        <time>2015-09-13T05:50:57Z</time>
      </trkpt>
      <trkpt lat="42.02643" lon="9.20361">
        <ele>1470.47</ele>
        <time>2015-09-13T05:51:22Z</time>
      </trkpt>
      <trkpt lat="42.02641" lon="9.2039">
        <ele>1472.88</ele>
        <time>2015-09-13T05:51:47Z</time>
      </trkpt>
      <trkpt lat="42.02634" lon="9.20403">
        <ele>1472.4</ele>
        <time>2015-09-13T05:52:10Z</time>
      </trkpt>
      <trkpt lat="42.0262" lon="9.20425">
        <ele>1473.36</ele>
        <time>2015-09-13T05:52:31Z</time>
      </trkpt>
      <trkpt lat="42.02621" lon="9.20439">
        <ele>1476.24</ele>
        <time>2015-09-13T05:52:53Z</time>
      </trkpt>
      <trkpt lat="42.02622" lon="9.20454">
        <ele>1479.13</ele>
        <time>2015-09-13T05:53:16Z</time>
      </trkpt>
      <trkpt lat="42.02615" lon="9.20468">
        <ele>1480.57</ele>
        <time>2015-09-13T05:53:37Z</time>
      </trkpt>
      <trkpt lat="42.02615" lon="9.20488">
        <ele>1481.05</ele>
        <time>2015-09-13T05:53:56Z</time>
      </trkpt>
      <trkpt lat="42.02619" lon="9.20497">
        <ele>1481.05</ele>
        <time>2015-09-13T05:54:19Z</time>
      </trkpt>
      <trkpt lat="42.02633" lon="9.2051">
        <ele>1482.97</ele>
        <time>2015-09-13T05:54:38Z</time>
      </trkpt>
      <trkpt lat="42.0264" lon="9.20527">
        <ele>1482.97</ele>
        <time>2015-09-13T05:54:57Z</time>
      </trkpt>
      <trkpt lat="42.02641" lon="9.20549">
        <ele>1484.89</ele>
        <time>2015-09-13T05:55:15Z</time>
      </trkpt>
      <trkpt lat="42.02648" lon="9.20567">
        <ele>1482.97</ele>
        <time>2015-09-13T05:55:35Z</time>
      </trkpt>
      <trkpt lat="42.02658" lon="9.2058">
        <ele>1479.61</ele>
        <time>2015-09-13T05:55:53Z</time>
      </trkpt>
      <trkpt lat="42.02671" lon="9.20586">
        <ele>1476.24</ele>
        <time>2015-09-13T05:56:13Z</time>
      </trkpt>
      <trkpt lat="42.02693" lon="9.20588">
        <ele>1473.84</ele>
        <time>2015-09-13T05:56:34Z</time>
      </trkpt>
      <trkpt lat="42.0271" lon="9.20596">
        <ele>1470.95</ele>
        <time>2015-09-13T05:56:52Z</time>
      </trkpt>
      <trkpt lat="42.02722" lon="9.20605">
        <ele>1469.99</ele>
        <time>2015-09-13T05:57:11Z</time>
      </trkpt>
      <trkpt lat="42.02729" lon="9.20622">
        <ele>1469.51</ele>
        <time>2015-09-13T05:57:28Z</time>
      </trkpt>
      <trkpt lat="42.02731" lon="9.20642">
        <ele>1467.59</ele>
        <time>2015-09-13T05:57:47Z</time>
      </trkpt>
      <trkpt lat="42.02718" lon="9.20663">
        <ele>1466.15</ele>
        <time>2015-09-13T05:58:08Z</time>
      </trkpt>
      <trkpt lat="42.027" lon="9.20676">
        <ele>1466.15</ele>
        <time>2015-09-13T05:58:30Z</time>
      </trkpt>
      <trkpt lat="42.02694" lon="9.20692">
        <ele>1466.15</ele>
        <time>2015-09-13T05:58:47Z</time>
      </trkpt>
      <trkpt lat="42.02685" lon="9.207">
        <ele>1466.15</ele>
        <time>2015-09-13T05:58:57Z</time>
      </trkpt>
      <trkpt lat="42.02667" lon="9.20714">
        <ele>1466.15</ele>
        <time>2015-09-13T05:59:18Z</time>
      </trkpt>
      <trkpt lat="42.02656" lon="9.20729">
        <ele>1465.19</ele>
        <time>2015-09-13T05:59:36Z</time>
      </trkpt>
      <trkpt lat="42.02649" lon="9.20752">
        <ele>1463.74</ele>
        <time>2015-09-13T05:59:53Z</time>
      </trkpt>
      <trkpt lat="42.0264" lon="9.20773">
        <ele>1461.82</ele>
        <time>2015-09-13T06:00:13Z</time>
      </trkpt>
      <trkpt lat="42.02633" lon="9.20793">
        <ele>1463.26</ele>
        <time>2015-09-13T06:00:34Z</time>
      </trkpt>
      <trkpt lat="42.02627" lon="9.20811">
        <ele>1463.74</ele>
        <time>2015-09-13T06:00:54Z</time>
      </trkpt>
      <trkpt lat="42.02609" lon="9.20825">
        <ele>1465.19</ele>
        <time>2015-09-13T06:01:15Z</time>
      </trkpt>
      <trkpt lat="42.02591" lon="9.20836">
        <ele>1467.11</ele>
        <time>2015-09-13T06:01:36Z</time>
      </trkpt>
      <trkpt lat="42.02589" lon="9.2086">
        <ele>1467.59</ele>
        <time>2015-09-13T06:01:54Z</time>
      </trkpt>
      <trkpt lat="42.02593" lon="9.20894">
        <ele>1467.59</ele>
        <time>2015-09-13T06:02:22Z</time>
      </trkpt>
      <trkpt lat="42.02587" lon="9.2092">
        <ele>1468.07</ele>
        <time>2015-09-13T06:02:44Z</time>
      </trkpt>
      <trkpt lat="42.02573" lon="9.20917">
        <ele>1468.55</ele>
        <time>2015-09-13T06:03:05Z</time>
      </trkpt>
      <trkpt lat="42.02569" lon="9.20914">
        <ele>1469.99</ele>
        <time>2015-09-13T06:03:31Z</time>
      </trkpt>
      <trkpt lat="42.02568" lon="9.20911">
        <ele>1468.55</ele>
        <time>2015-09-13T06:03:56Z</time>
      </trkpt>
      <trkpt lat="42.02567" lon="9.20911">
        <ele>1468.55</ele>
        <time>2015-09-13T06:04:15Z</time>
      </trkpt>
      <trkpt lat="42.0257" lon="9.20915">
        <ele>1468.55</ele>
        <time>2015-09-13T06:04:39Z</time>
      </trkpt>
      <trkpt lat="42.02568" lon="9.20907">
        <ele>1468.55</ele>
        <time>2015-09-13T06:05:08Z</time>
      </trkpt>
      <trkpt lat="42.0256" lon="9.20897">
        <ele>1468.55</ele>
        <time>2015-09-13T06:05:31Z</time>
      </trkpt>
      <trkpt lat="42.02563" lon="9.20907">
        <ele>1468.07</ele>
        <time>2015-09-13T06:05:57Z</time>
      </trkpt>
      <trkpt lat="42.02561" lon="9.20901">
        <ele>1468.07</ele>
        <time>2015-09-13T06:06:26Z</time>
      </trkpt>
      <trkpt lat="42.02563" lon="9.20903">
        <ele>1469.03</ele>
        <time>2015-09-13T06:06:50Z</time>
      </trkpt>
      <trkpt lat="42.02549" lon="9.20909">
        <ele>1469.99</ele>
        <time>2015-09-13T06:07:20Z</time>
      </trkpt>
      <trkpt lat="42.02526" lon="9.20929">
        <ele>1471.44</ele>
        <time>2015-09-13T06:07:46Z</time>
      </trkpt>
      <trkpt lat="42.02511" lon="9.20947">
        <ele>1473.36</ele>
        <time>2015-09-13T06:08:11Z</time>
      </trkpt>
      <trkpt lat="42.02505" lon="9.2096">
        <ele>1476.72</ele>
        <time>2015-09-13T06:08:35Z</time>
      </trkpt>
      <trkpt lat="42.02487" lon="9.20972">
        <ele>1478.65</ele>
        <time>2015-09-13T06:09:02Z</time>
      </trkpt>
      <trkpt lat="42.02478" lon="9.20996">
        <ele>1480.09</ele>
        <time>2015-09-13T06:09:27Z</time>
      </trkpt>
      <trkpt lat="42.02467" lon="9.21011">
        <ele>1481.53</ele>
        <time>2015-09-13T06:09:53Z</time>
      </trkpt>
      <trkpt lat="42.02456" lon="9.21007">
        <ele>1482.49</ele>
        <time>2015-09-13T06:10:14Z</time>
      </trkpt>
      <trkpt lat="42.0244" lon="9.2101">
        <ele>1481.05</ele>
        <time>2015-09-13T06:10:39Z</time>
      </trkpt>
      <trkpt lat="42.02436" lon="9.21006">
        <ele>1482.49</ele>
        <time>2015-09-13T06:10:48Z</time>
      </trkpt>
      <trkpt lat="42.02436" lon="9.20991">
        <ele>1485.37</ele>
        <time>2015-09-13T06:11:11Z</time>
      </trkpt>
      <trkpt lat="42.02422" lon="9.20982">
        <ele>1487.3</ele>
        <time>2015-09-13T06:11:33Z</time>
      </trkpt>
      <trkpt lat="42.02404" lon="9.20978">
        <ele>1490.18</ele>
        <time>2015-09-13T06:11:59Z</time>
      </trkpt>
      <trkpt lat="42.0238" lon="9.2099">
        <ele>1491.62</ele>
        <time>2015-09-13T06:12:26Z</time>
      </trkpt>
      <trkpt lat="42.02359" lon="9.20992">
        <ele>1492.1</ele>
        <time>2015-09-13T06:12:48Z</time>
      </trkpt>
      <trkpt lat="42.02348" lon="9.21007">
        <ele>1488.74</ele>
        <time>2015-09-13T06:13:10Z</time>
      </trkpt>
      <trkpt lat="42.02335" lon="9.21026">
        <ele>1488.74</ele>
        <time>2015-09-13T06:13:35Z</time>
      </trkpt>
      <trkpt lat="42.02329" lon="9.2103">
        <ele>1487.3</ele>
        <time>2015-09-13T06:13:42Z</time>
      </trkpt>
      <trkpt lat="42.02319" lon="9.21023">
        <ele>1487.3</ele>
        <time>2015-09-13T06:14:06Z</time>
      </trkpt>
      <trkpt lat="42.02312" lon="9.21016">
        <ele>1490.66</ele>
        <time>2015-09-13T06:14:23Z</time>
      </trkpt>
      <trkpt lat="42.02299" lon="9.21006">
        <ele>1493.55</ele>
        <time>2015-09-13T06:14:49Z</time>
      </trkpt>
      <trkpt lat="42.02281" lon="9.21006">
        <ele>1496.91</ele>
        <time>2015-09-13T06:15:14Z</time>
      </trkpt>
      <trkpt lat="42.02269" lon="9.21007">
        <ele>1499.31</ele>
        <time>2015-09-13T06:15:43Z</time>
      </trkpt>
      <trkpt lat="42.02273" lon="9.20985">
        <ele>1502.68</ele>
        <time>2015-09-13T06:16:03Z</time>
      </trkpt>
      <trkpt lat="42.02265" lon="9.20973">
        <ele>1506.04</ele>
        <time>2015-09-13T06:16:28Z</time>
      </trkpt>
      <trkpt lat="42.0226" lon="9.2096">
        <ele>1509.41</ele>
        <time>2015-09-13T06:16:51Z</time>
      </trkpt>
      <trkpt lat="42.02248" lon="9.20962">
        <ele>1512.77</ele>
        <time>2015-09-13T06:17:13Z</time>
      </trkpt>
      <trkpt lat="42.02235" lon="9.20956">
        <ele>1515.66</ele>
        <time>2015-09-13T06:17:38Z</time>
      </trkpt>
      <trkpt lat="42.02233" lon="9.20949">
        <ele>1518.54</ele>
        <time>2015-09-13T06:18:00Z</time>
      </trkpt>
      <trkpt lat="42.02225" lon="9.20936">
        <ele>1522.39</ele>
        <time>2015-09-13T06:18:25Z</time>
      </trkpt>
      <trkpt lat="42.02218" lon="9.20925">
        <ele>1525.27</ele>
        <time>2015-09-13T06:18:51Z</time>
      </trkpt>
      <trkpt lat="42.02213" lon="9.20907">
        <ele>1527.19</ele>
        <time>2015-09-13T06:19:19Z</time>
      </trkpt>
      <trkpt lat="42.02208" lon="9.20903">
        <ele>1530.08</ele>
        <time>2015-09-13T06:19:41Z</time>
      </trkpt>
      <trkpt lat="42.02198" lon="9.20911">
        <ele>1532.48</ele>
        <time>2015-09-13T06:20:11Z</time>
      </trkpt>
      <trkpt lat="42.02192" lon="9.20925">
        <ele>1534.88</ele>
        <time>2015-09-13T06:20:37Z</time>
      </trkpt>
      <trkpt lat="42.02183" lon="9.20931">
        <ele>1538.25</ele>
        <time>2015-09-13T06:20:58Z</time>
      </trkpt>
      <trkpt lat="42.02178" lon="9.20946">
        <ele>1541.13</ele>
        <time>2015-09-13T06:21:24Z</time>
      </trkpt>
      <trkpt lat="42.02164" lon="9.20943">
        <ele>1544.5</ele>
        <time>2015-09-13T06:21:50Z</time>
      </trkpt>
      <trkpt lat="42.02162" lon="9.20959">
        <ele>1547.86</ele>
        <time>2015-09-13T06:22:17Z</time>
      </trkpt>
      <trkpt lat="42.02154" lon="9.20956">
        <ele>1551.22</ele>
        <time>2015-09-13T06:22:44Z</time>
      </trkpt>
      <trkpt lat="42.02146" lon="9.20938">
        <ele>1553.15</ele>
        <time>2015-09-13T06:23:08Z</time>
      </trkpt>
      <trkpt lat="42.02138" lon="9.20949">
        <ele>1556.03</ele>
        <time>2015-09-13T06:23:33Z</time>
      </trkpt>
      <trkpt lat="42.02135" lon="9.20953">
        <ele>1558.92</ele>
        <time>2015-09-13T06:23:58Z</time>
      </trkpt>
      <trkpt lat="42.02134" lon="9.20957">
        <ele>1562.28</ele>
        <time>2015-09-13T06:24:18Z</time>
      </trkpt>
      <trkpt lat="42.02125" lon="9.20959">
        <ele>1565.64</ele>
        <time>2015-09-13T06:24:35Z</time>
      </trkpt>
      <trkpt lat="42.02125" lon="9.2096">
        <ele>1565.64</ele>
        <time>2015-09-13T06:24:36Z</time>
      </trkpt>
      <trkpt lat="42.02124" lon="9.20965">
        <ele>1565.64</ele>
        <time>2015-09-13T06:24:46Z</time>
      </trkpt>
      <trkpt lat="42.02121" lon="9.20972">
        <ele>1568.53</ele>
        <time>2015-09-13T06:25:12Z</time>
      </trkpt>
      <trkpt lat="42.02115" lon="9.20995">
        <ele>1571.41</ele>
        <time>2015-09-13T06:25:42Z</time>
      </trkpt>
      <trkpt lat="42.02108" lon="9.21009">
        <ele>1574.78</ele>
        <time>2015-09-13T06:26:03Z</time>
      </trkpt>
      <trkpt lat="42.02105" lon="9.21019">
        <ele>1578.14</ele>
        <time>2015-09-13T06:26:30Z</time>
      </trkpt>
      <trkpt lat="42.02097" lon="9.21037">
        <ele>1581.03</ele>
        <time>2015-09-13T06:26:57Z</time>
      </trkpt>
      <trkpt lat="42.02092" lon="9.21043">
        <ele>1583.43</ele>
        <time>2015-09-13T06:27:21Z</time>
      </trkpt>
      <trkpt lat="42.02088" lon="9.21043">
        <ele>1586.79</ele>
        <time>2015-09-13T06:27:41Z</time>
      </trkpt>
      <trkpt lat="42.02083" lon="9.21062">
        <ele>1589.2</ele>
        <time>2015-09-13T06:28:08Z</time>
      </trkpt>
      <trkpt lat="42.02075" lon="9.2107">
        <ele>1592.08</ele>
        <time>2015-09-13T06:28:35Z</time>
      </trkpt>
      <trkpt lat="42.0207" lon="9.21072">
        <ele>1595.45</ele>
        <time>2015-09-13T06:28:54Z</time>
      </trkpt>
      <trkpt lat="42.02059" lon="9.21089">
        <ele>1597.85</ele>
        <time>2015-09-13T06:29:23Z</time>
      </trkpt>
      <trkpt lat="42.02049" lon="9.21101">
        <ele>1601.21</ele>
        <time>2015-09-13T06:29:48Z</time>
      </trkpt>
      <trkpt lat="42.02043" lon="9.21119">
        <ele>1604.58</ele>
        <time>2015-09-13T06:30:16Z</time>
      </trkpt>
      <trkpt lat="42.0204" lon="9.21136">
        <ele>1606.02</ele>
        <time>2015-09-13T06:30:43Z</time>
      </trkpt>
      <trkpt lat="42.02028" lon="9.2115">
        <ele>1608.9</ele>
        <time>2015-09-13T06:31:06Z</time>
      </trkpt>
      <trkpt lat="42.02022" lon="9.21165">
        <ele>1609.86</ele>
        <time>2015-09-13T06:31:25Z</time>
      </trkpt>
      <trkpt lat="42.02021" lon="9.21166">
        <ele>1609.86</ele>
        <time>2015-09-13T06:31:50Z</time>
      </trkpt>
      <trkpt lat="42.02021" lon="9.21168">
        <ele>1610.83</ele>
        <time>2015-09-13T06:32:14Z</time>
      </trkpt>
      <trkpt lat="42.02021" lon="9.21168">
        <ele>1614.19</ele>
        <time>2015-09-13T06:32:19Z</time>
      </trkpt>
      <trkpt lat="42.02021" lon="9.21169">
        <ele>1610.35</ele>
        <time>2015-09-13T06:32:20Z</time>
      </trkpt>
      <trkpt lat="42.02022" lon="9.21185">
        <ele>1611.31</ele>
        <time>2015-09-13T06:32:41Z</time>
      </trkpt>
      <trkpt lat="42.0202" lon="9.21192">
        <ele>1614.67</ele>
        <time>2015-09-13T06:33:01Z</time>
      </trkpt>
      <trkpt lat="42.02012" lon="9.21201">
        <ele>1618.04</ele>
        <time>2015-09-13T06:33:26Z</time>
      </trkpt>
      <trkpt lat="42.02008" lon="9.21212">
        <ele>1620.92</ele>
        <time>2015-09-13T06:33:52Z</time>
      </trkpt>
      <trkpt lat="42.02001" lon="9.21218">
        <ele>1623.32</ele>
        <time>2015-09-13T06:34:17Z</time>
      </trkpt>
      <trkpt lat="42.01993" lon="9.21231">
        <ele>1625.73</ele>
        <time>2015-09-13T06:34:39Z</time>
      </trkpt>
      <trkpt lat="42.01986" lon="9.21245">
        <ele>1626.69</ele>
        <time>2015-09-13T06:35:00Z</time>
      </trkpt>
      <trkpt lat="42.01984" lon="9.21266">
        <ele>1627.17</ele>
        <time>2015-09-13T06:35:19Z</time>
      </trkpt>
      <trkpt lat="42.01983" lon="9.21269">
        <ele>1626.21</ele>
        <time>2015-09-13T06:35:22Z</time>
      </trkpt>
      <trkpt lat="42.01982" lon="9.21287">
        <ele>1625.25</ele>
        <time>2015-09-13T06:35:46Z</time>
      </trkpt>
      <trkpt lat="42.01977" lon="9.21312">
        <ele>1625.25</ele>
        <time>2015-09-13T06:36:07Z</time>
      </trkpt>
      <trkpt lat="42.01971" lon="9.21326">
        <ele>1626.21</ele>
        <time>2015-09-13T06:36:30Z</time>
      </trkpt>
      <trkpt lat="42.01969" lon="9.21327">
        <ele>1625.25</ele>
        <time>2015-09-13T06:36:32Z</time>
      </trkpt>
      <trkpt lat="42.01965" lon="9.2134">
        <ele>1626.69</ele>
        <time>2015-09-13T06:36:55Z</time>
      </trkpt>
      <trkpt lat="42.01955" lon="9.21357">
        <ele>1628.13</ele>
        <time>2015-09-13T06:37:17Z</time>
      </trkpt>
      <trkpt lat="42.01954" lon="9.2137">
        <ele>1629.57</ele>
        <time>2015-09-13T06:37:38Z</time>
      </trkpt>
      <trkpt lat="42.01953" lon="9.2138">
        <ele>1632.94</ele>
        <time>2015-09-13T06:37:57Z</time>
      </trkpt>
      <trkpt lat="42.01959" lon="9.21381">
        <ele>1635.34</ele>
        <time>2015-09-13T06:38:17Z</time>
      </trkpt>
      <trkpt lat="42.0196" lon="9.21385">
        <ele>1637.74</ele>
        <time>2015-09-13T06:38:32Z</time>
      </trkpt>
      <trkpt lat="42.0196" lon="9.21386">
        <ele>1636.3</ele>
        <time>2015-09-13T06:38:34Z</time>
      </trkpt>
      <trkpt lat="42.01955" lon="9.21396">
        <ele>1639.19</ele>
        <time>2015-09-13T06:38:53Z</time>
      </trkpt>
      <trkpt lat="42.0195" lon="9.21411">
        <ele>1640.63</ele>
        <time>2015-09-13T06:39:15Z</time>
      </trkpt>
      <trkpt lat="42.01948" lon="9.21423">
        <ele>1643.03</ele>
        <time>2015-09-13T06:39:40Z</time>
      </trkpt>
      <trkpt lat="42.01942" lon="9.21434">
        <ele>1645.91</ele>
        <time>2015-09-13T06:40:04Z</time>
      </trkpt>
      <trkpt lat="42.01934" lon="9.21448">
        <ele>1647.84</ele>
        <time>2015-09-13T06:40:26Z</time>
      </trkpt>
      <trkpt lat="42.01928" lon="9.21458">
        <ele>1649.76</ele>
        <time>2015-09-13T06:40:46Z</time>
      </trkpt>
      <trkpt lat="42.01931" lon="9.21464">
        <ele>1653.12</ele>
        <time>2015-09-13T06:41:05Z</time>
      </trkpt>
      <trkpt lat="42.01931" lon="9.21464">
        <ele>1653.12</ele>
        <time>2015-09-13T06:41:06Z</time>
      </trkpt>
      <trkpt lat="42.01926" lon="9.21473">
        <ele>1655.05</ele>
        <time>2015-09-13T06:41:27Z</time>
      </trkpt>
      <trkpt lat="42.0192" lon="9.21484">
        <ele>1657.93</ele>
        <time>2015-09-13T06:41:51Z</time>
      </trkpt>
      <trkpt lat="42.01919" lon="9.21493">
        <ele>1661.3</ele>
        <time>2015-09-13T06:42:14Z</time>
      </trkpt>
      <trkpt lat="42.01912" lon="9.21508">
        <ele>1662.26</ele>
        <time>2015-09-13T06:42:35Z</time>
      </trkpt>
      <trkpt lat="42.01907" lon="9.21526">
        <ele>1663.7</ele>
        <time>2015-09-13T06:42:58Z</time>
      </trkpt>
      <trkpt lat="42.01901" lon="9.21544">
        <ele>1666.58</ele>
        <time>2015-09-13T06:43:20Z</time>
      </trkpt>
      <trkpt lat="42.01894" lon="9.21558">
        <ele>1668.02</ele>
        <time>2015-09-13T06:43:44Z</time>
      </trkpt>
      <trkpt lat="42.01892" lon="9.2157">
        <ele>1671.39</ele>
        <time>2015-09-13T06:44:05Z</time>
      </trkpt>
      <trkpt lat="42.01885" lon="9.21579">
        <ele>1674.27</ele>
        <time>2015-09-13T06:44:31Z</time>
      </trkpt>
      <trkpt lat="42.01879" lon="9.21588">
        <ele>1677.64</ele>
        <time>2015-09-13T06:44:53Z</time>
      </trkpt>
      <trkpt lat="42.01876" lon="9.21603">
        <ele>1679.56</ele>
        <time>2015-09-13T06:45:19Z</time>
      </trkpt>
      <trkpt lat="42.01873" lon="9.21612">
        <ele>1681.96</ele>
        <time>2015-09-13T06:45:43Z</time>
      </trkpt>
      <trkpt lat="42.01869" lon="9.21621">
        <ele>1685.33</ele>
        <time>2015-09-13T06:46:03Z</time>
      </trkpt>
      <trkpt lat="42.01867" lon="9.21632">
        <ele>1688.69</ele>
        <time>2015-09-13T06:46:28Z</time>
      </trkpt>
      <trkpt lat="42.01866" lon="9.21633">
        <ele>1692.54</ele>
        <time>2015-09-13T06:46:49Z</time>
      </trkpt>
      <trkpt lat="42.01866" lon="9.21633">
        <ele>1692.54</ele>
        <time>2015-09-13T06:46:50Z</time>
      </trkpt>
      <trkpt lat="42.01869" lon="9.21642">
        <ele>1692.54</ele>
        <time>2015-09-13T06:47:09Z</time>
      </trkpt>
      <trkpt lat="42.01862" lon="9.21657">
        <ele>1695.9</ele>
        <time>2015-09-13T06:47:32Z</time>
      </trkpt>
      <trkpt lat="42.0186" lon="9.21671">
        <ele>1697.83</ele>
        <time>2015-09-13T06:47:55Z</time>
      </trkpt>
      <trkpt lat="42.0186" lon="9.21685">
        <ele>1700.71</ele>
        <time>2015-09-13T06:48:20Z</time>
      </trkpt>
      <trkpt lat="42.01856" lon="9.21691">
        <ele>1702.15</ele>
        <time>2015-09-13T06:48:41Z</time>
      </trkpt>
      <trkpt lat="42.01849" lon="9.21699">
        <ele>1703.59</ele>
        <time>2015-09-13T06:49:02Z</time>
      </trkpt>
      <trkpt lat="42.01837" lon="9.21707">
        <ele>1706</ele>
        <time>2015-09-13T06:49:27Z</time>
      </trkpt>
      <trkpt lat="42.01837" lon="9.21715">
        <ele>1708.88</ele>
        <time>2015-09-13T06:49:43Z</time>
      </trkpt>
      <trkpt lat="42.01842" lon="9.21715">
        <ele>1709.84</ele>
        <time>2015-09-13T06:50:08Z</time>
      </trkpt>
      <trkpt lat="42.01849" lon="9.21713">
        <ele>1711.28</ele>
        <time>2015-09-13T06:50:25Z</time>
      </trkpt>
      <trkpt lat="42.01848" lon="9.21719">
        <ele>1714.65</ele>
        <time>2015-09-13T06:50:48Z</time>
      </trkpt>
      <trkpt lat="42.01847" lon="9.21719">
        <ele>1714.65</ele>
        <time>2015-09-13T06:50:49Z</time>
      </trkpt>
      <trkpt lat="42.01839" lon="9.21733">
        <ele>1717.05</ele>
        <time>2015-09-13T06:51:15Z</time>
      </trkpt>
      <trkpt lat="42.01851" lon="9.21733">
        <ele>1719.94</ele>
        <time>2015-09-13T06:51:38Z</time>
      </trkpt>
      <trkpt lat="42.01864" lon="9.21735">
        <ele>1722.34</ele>
        <time>2015-09-13T06:52:02Z</time>
      </trkpt>
      <trkpt lat="42.01859" lon="9.21746">
        <ele>1725.22</ele>
        <time>2015-09-13T06:52:27Z</time>
      </trkpt>
      <trkpt lat="42.01872" lon="9.21747">
        <ele>1728.11</ele>
        <time>2015-09-13T06:52:52Z</time>
      </trkpt>
      <trkpt lat="42.01881" lon="9.2175">
        <ele>1730.99</ele>
        <time>2015-09-13T06:53:16Z</time>
      </trkpt>
      <trkpt lat="42.01882" lon="9.21755">
        <ele>1733.39</ele>
        <time>2015-09-13T06:53:39Z</time>
      </trkpt>
      <trkpt lat="42.01876" lon="9.21766">
        <ele>1735.8</ele>
        <time>2015-09-13T06:54:00Z</time>
      </trkpt>
      <trkpt lat="42.01875" lon="9.21775">
        <ele>1739.16</ele>
        <time>2015-09-13T06:54:28Z</time>
      </trkpt>
      <trkpt lat="42.01871" lon="9.21785">
        <ele>1741.57</ele>
        <time>2015-09-13T06:54:54Z</time>
      </trkpt>
      <trkpt lat="42.01862" lon="9.2179">
        <ele>1743.97</ele>
        <time>2015-09-13T06:55:21Z</time>
      </trkpt>
      <trkpt lat="42.01863" lon="9.21796">
        <ele>1747.33</ele>
        <time>2015-09-13T06:55:39Z</time>
      </trkpt>
      <trkpt lat="42.01849" lon="9.21812">
        <ele>1749.26</ele>
        <time>2015-09-13T06:56:07Z</time>
      </trkpt>
      <trkpt lat="42.01851" lon="9.21824">
        <ele>1752.14</ele>
        <time>2015-09-13T06:56:32Z</time>
      </trkpt>
      <trkpt lat="42.01863" lon="9.2182">
        <ele>1755.5</ele>
        <time>2015-09-13T06:56:54Z</time>
      </trkpt>
      <trkpt lat="42.01859" lon="9.21831">
        <ele>1757.91</ele>
        <time>2015-09-13T06:57:15Z</time>
      </trkpt>
      <trkpt lat="42.01854" lon="9.21841">
        <ele>1761.27</ele>
        <time>2015-09-13T06:57:37Z</time>
      </trkpt>
      <trkpt lat="42.01854" lon="9.21842">
        <ele>1761.27</ele>
        <time>2015-09-13T06:57:38Z</time>
      </trkpt>
      <trkpt lat="42.01861" lon="9.21844">
        <ele>1762.71</ele>
        <time>2015-09-13T06:57:57Z</time>
      </trkpt>
      <trkpt lat="42.01862" lon="9.2185">
        <ele>1765.6</ele>
        <time>2015-09-13T06:58:19Z</time>
      </trkpt>
      <trkpt lat="42.01859" lon="9.21853">
        <ele>1765.6</ele>
        <time>2015-09-13T06:58:24Z</time>
      </trkpt>
      <trkpt lat="42.01855" lon="9.21862">
        <ele>1768.48</ele>
        <time>2015-09-13T06:58:48Z</time>
      </trkpt>
      <trkpt lat="42.01858" lon="9.21867">
        <ele>1770.89</ele>
        <time>2015-09-13T06:59:09Z</time>
      </trkpt>
      <trkpt lat="42.01855" lon="9.21872">
        <ele>1773.77</ele>
        <time>2015-09-13T06:59:33Z</time>
      </trkpt>
      <trkpt lat="42.01856" lon="9.21881">
        <ele>1776.17</ele>
        <time>2015-09-13T06:59:54Z</time>
      </trkpt>
      <trkpt lat="42.0186" lon="9.21883">
        <ele>1778.58</ele>
        <time>2015-09-13T07:00:15Z</time>
      </trkpt>
      <trkpt lat="42.01872" lon="9.21885">
        <ele>1781.46</ele>
        <time>2015-09-13T07:00:39Z</time>
      </trkpt>
      <trkpt lat="42.01869" lon="9.21894">
        <ele>1782.9</ele>
        <time>2015-09-13T07:00:58Z</time>
      </trkpt>
      <trkpt lat="42.01878" lon="9.21896">
        <ele>1786.27</ele>
        <time>2015-09-13T07:01:18Z</time>
      </trkpt>
      <trkpt lat="42.01882" lon="9.219">
        <ele>1788.19</ele>
        <time>2015-09-13T07:01:39Z</time>
      </trkpt>
      <trkpt lat="42.01881" lon="9.21905">
        <ele>1791.07</ele>
        <time>2015-09-13T07:01:58Z</time>
      </trkpt>
      <trkpt lat="42.01876" lon="9.21915">
        <ele>1793.48</ele>
        <time>2015-09-13T07:02:20Z</time>
      </trkpt>
      <trkpt lat="42.01867" lon="9.21926">
        <ele>1795.88</ele>
        <time>2015-09-13T07:02:46Z</time>
      </trkpt>
      <trkpt lat="42.01862" lon="9.21935">
        <ele>1797.8</ele>
        <time>2015-09-13T07:03:07Z</time>
      </trkpt>
      <trkpt lat="42.01852" lon="9.21945">
        <ele>1800.21</ele>
        <time>2015-09-13T07:03:29Z</time>
      </trkpt>
      <trkpt lat="42.01844" lon="9.21952">
        <ele>1804.05</ele>
        <time>2015-09-13T07:03:52Z</time>
      </trkpt>
      <trkpt lat="42.01847" lon="9.21962">
        <ele>1806.45</ele>
        <time>2015-09-13T07:04:14Z</time>
      </trkpt>
      <trkpt lat="42.01845" lon="9.2197">
        <ele>1809.34</ele>
        <time>2015-09-13T07:04:38Z</time>
      </trkpt>
      <trkpt lat="42.0184" lon="9.21981">
        <ele>1812.7</ele>
        <time>2015-09-13T07:05:01Z</time>
      </trkpt>
      <trkpt lat="42.01832" lon="9.2199">
        <ele>1816.07</ele>
        <time>2015-09-13T07:05:24Z</time>
      </trkpt>
      <trkpt lat="42.01822" lon="9.22002">
        <ele>1818.95</ele>
        <time>2015-09-13T07:05:51Z</time>
      </trkpt>
      <trkpt lat="42.01818" lon="9.22015">
        <ele>1821.35</ele>
        <time>2015-09-13T07:06:11Z</time>
      </trkpt>
      <trkpt lat="42.01812" lon="9.22027">
        <ele>1823.76</ele>
        <time>2015-09-13T07:06:33Z</time>
      </trkpt>
      <trkpt lat="42.01806" lon="9.22039">
        <ele>1825.68</ele>
        <time>2015-09-13T07:06:54Z</time>
      </trkpt>
      <trkpt lat="42.01806" lon="9.22039">
        <ele>1831.45</ele>
        <time>2015-09-13T07:06:55Z</time>
      </trkpt>
      <trkpt lat="42.01806" lon="9.22039">
        <ele>1831.45</ele>
        <time>2015-09-13T07:06:56Z</time>
      </trkpt>
      <trkpt lat="42.01806" lon="9.22039">
        <ele>1825.68</ele>
        <time>2015-09-13T07:06:57Z</time>
      </trkpt>
      <trkpt lat="42.01806" lon="9.22041">
        <ele>1825.2</ele>
        <time>2015-09-13T07:06:59Z</time>
      </trkpt>
      <trkpt lat="42.01801" lon="9.22049">
        <ele>1825.2</ele>
        <time>2015-09-13T07:07:19Z</time>
      </trkpt>
      <trkpt lat="42.01801" lon="9.22048">
        <ele>1827.12</ele>
        <time>2015-09-13T07:07:39Z</time>
      </trkpt>
      <trkpt lat="42.01801" lon="9.22047">
        <ele>1825.2</ele>
        <time>2015-09-13T07:07:50Z</time>
      </trkpt>
      <trkpt lat="42.01801" lon="9.22046">
        <ele>1826.64</ele>
        <time>2015-09-13T07:07:53Z</time>
      </trkpt>
      <trkpt lat="42.01799" lon="9.22041">
        <ele>1825.68</ele>
        <time>2015-09-13T07:08:27Z</time>
      </trkpt>
      <trkpt lat="42.01801" lon="9.22046">
        <ele>1826.16</ele>
        <time>2015-09-13T07:09:01Z</time>
      </trkpt>
      <trkpt lat="42.01802" lon="9.22045">
        <ele>1825.68</ele>
        <time>2015-09-13T07:09:29Z</time>
      </trkpt>
      <trkpt lat="42.01801" lon="9.22046">
        <ele>1826.64</ele>
        <time>2015-09-13T07:09:56Z</time>
      </trkpt>
      <trkpt lat="42.01797" lon="9.2205">
        <ele>1826.64</ele>
        <time>2015-09-13T07:10:02Z</time>
      </trkpt>
      <trkpt lat="42.01777" lon="9.22053">
        <ele>1827.6</ele>
        <time>2015-09-13T07:10:24Z</time>
      </trkpt>
      <trkpt lat="42.01764" lon="9.22056">
        <ele>1824.24</ele>
        <time>2015-09-13T07:10:38Z</time>
      </trkpt>
      <trkpt lat="42.01764" lon="9.22057">
        <ele>1826.64</ele>
        <time>2015-09-13T07:10:40Z</time>
      </trkpt>
      <trkpt lat="42.01764" lon="9.22059">
        <ele>1829.53</ele>
        <time>2015-09-13T07:10:47Z</time>
      </trkpt>
      <trkpt lat="42.01764" lon="9.22059">
        <ele>1825.68</ele>
        <time>2015-09-13T07:10:48Z</time>
      </trkpt>
      <trkpt lat="42.01764" lon="9.22059">
        <ele>1828.56</ele>
        <time>2015-09-13T07:10:49Z</time>
      </trkpt>
      <trkpt lat="42.01766" lon="9.22054">
        <ele>1824.24</ele>
        <time>2015-09-13T07:10:55Z</time>
      </trkpt>
      <trkpt lat="42.01766" lon="9.22054">
        <ele>1830.97</ele>
        <time>2015-09-13T07:10:56Z</time>
      </trkpt>
      <trkpt lat="42.01767" lon="9.22053">
        <ele>1825.68</ele>
        <time>2015-09-13T07:10:57Z</time>
      </trkpt>
      <trkpt lat="42.01768" lon="9.22052">
        <ele>1829.53</ele>
        <time>2015-09-13T07:10:58Z</time>
      </trkpt>
      <trkpt lat="42.0177" lon="9.22049">
        <ele>1825.2</ele>
        <time>2015-09-13T07:11:01Z</time>
      </trkpt>
      <trkpt lat="42.0177" lon="9.22048">
        <ele>1825.2</ele>
        <time>2015-09-13T07:11:02Z</time>
      </trkpt>
      <trkpt lat="42.01772" lon="9.22045">
        <ele>1833.85</ele>
        <time>2015-09-13T07:11:04Z</time>
      </trkpt>
      <trkpt lat="42.01773" lon="9.22045">
        <ele>1829.53</ele>
        <time>2015-09-13T07:11:05Z</time>
      </trkpt>
      <trkpt lat="42.01773" lon="9.22043">
        <ele>1826.64</ele>
        <time>2015-09-13T07:11:08Z</time>
      </trkpt>
      <trkpt lat="42.01773" lon="9.22044">
        <ele>1825.68</ele>
        <time>2015-09-13T07:11:09Z</time>
      </trkpt>
      <trkpt lat="42.01773" lon="9.22046">
        <ele>1830.49</ele>
        <time>2015-09-13T07:11:11Z</time>
      </trkpt>
      <trkpt lat="42.01772" lon="9.22047">
        <ele>1825.68</ele>
        <time>2015-09-13T07:11:12Z</time>
      </trkpt>
      <trkpt lat="42.01772" lon="9.22047">
        <ele>1829.05</ele>
        <time>2015-09-13T07:11:13Z</time>
      </trkpt>
      <trkpt lat="42.01768" lon="9.22053">
        <ele>1820.87</ele>
        <time>2015-09-13T07:11:24Z</time>
      </trkpt>
      <trkpt lat="42.01768" lon="9.22053">
        <ele>1835.29</ele>
        <time>2015-09-13T07:11:25Z</time>
      </trkpt>
      <trkpt lat="42.01767" lon="9.22053">
        <ele>1835.29</ele>
        <time>2015-09-13T07:11:26Z</time>
      </trkpt>
      <trkpt lat="42.01766" lon="9.22053">
        <ele>1827.6</ele>
        <time>2015-09-13T07:11:27Z</time>
      </trkpt>
      <trkpt lat="42.01766" lon="9.22053">
        <ele>1827.6</ele>
        <time>2015-09-13T07:11:28Z</time>
      </trkpt>
      <trkpt lat="42.01738" lon="9.22058">
        <ele>1827.6</ele>
        <time>2015-09-13T07:11:53Z</time>
      </trkpt>
      <trkpt lat="42.01725" lon="9.22056">
        <ele>1829.05</ele>
        <time>2015-09-13T07:12:07Z</time>
      </trkpt>
      <trkpt lat="42.01702" lon="9.2206">
        <ele>1827.6</ele>
        <time>2015-09-13T07:12:31Z</time>
      </trkpt>
      <trkpt lat="42.01698" lon="9.22059">
        <ele>1829.05</ele>
        <time>2015-09-13T07:12:36Z</time>
      </trkpt>
      <trkpt lat="42.0168" lon="9.22054">
        <ele>1829.53</ele>
        <time>2015-09-13T07:12:58Z</time>
      </trkpt>
      <trkpt lat="42.01669" lon="9.22049">
        <ele>1828.08</ele>
        <time>2015-09-13T07:13:08Z</time>
      </trkpt>
      <trkpt lat="42.01652" lon="9.22038">
        <ele>1828.08</ele>
        <time>2015-09-13T07:13:29Z</time>
      </trkpt>
      <trkpt lat="42.01646" lon="9.22036">
        <ele>1828.08</ele>
        <time>2015-09-13T07:13:34Z</time>
      </trkpt>
      <trkpt lat="42.01619" lon="9.22023">
        <ele>1828.56</ele>
        <time>2015-09-13T07:14:02Z</time>
      </trkpt>
      <trkpt lat="42.01612" lon="9.22018">
        <ele>1830.01</ele>
        <time>2015-09-13T07:14:12Z</time>
      </trkpt>
      <trkpt lat="42.01597" lon="9.22014">
        <ele>1830.97</ele>
        <time>2015-09-13T07:14:32Z</time>
      </trkpt>
      <trkpt lat="42.01588" lon="9.22012">
        <ele>1830.97</ele>
        <time>2015-09-13T07:14:53Z</time>
      </trkpt>
      <trkpt lat="42.01587" lon="9.22016">
        <ele>1814.63</ele>
        <time>2015-09-13T07:15:07Z</time>
      </trkpt>
      <trkpt lat="42.01587" lon="9.22016">
        <ele>1845.87</ele>
        <time>2015-09-13T07:15:08Z</time>
      </trkpt>
      <trkpt lat="42.01587" lon="9.22016">
        <ele>1831.93</ele>
        <time>2015-09-13T07:15:09Z</time>
      </trkpt>
      <trkpt lat="42.01566" lon="9.22003">
        <ele>1831.93</ele>
        <time>2015-09-13T07:15:32Z</time>
      </trkpt>
      <trkpt lat="42.01546" lon="9.21995">
        <ele>1832.89</ele>
        <time>2015-09-13T07:15:53Z</time>
      </trkpt>
      <trkpt lat="42.01538" lon="9.21993">
        <ele>1831.93</ele>
        <time>2015-09-13T07:16:02Z</time>
      </trkpt>
      <trkpt lat="42.01528" lon="9.21989">
        <ele>1831.45</ele>
        <time>2015-09-13T07:16:13Z</time>
      </trkpt>
      <trkpt lat="42.01504" lon="9.21983">
        <ele>1829.05</ele>
        <time>2015-09-13T07:16:38Z</time>
      </trkpt>
      <trkpt lat="42.01499" lon="9.21982">
        <ele>1829.05</ele>
        <time>2015-09-13T07:16:43Z</time>
      </trkpt>
      <trkpt lat="42.01476" lon="9.21968">
        <ele>1830.49</ele>
        <time>2015-09-13T07:17:06Z</time>
      </trkpt>
      <trkpt lat="42.01455" lon="9.2196">
        <ele>1831.93</ele>
        <time>2015-09-13T07:17:29Z</time>
      </trkpt>
      <trkpt lat="42.0143" lon="9.21955">
        <ele>1832.41</ele>
        <time>2015-09-13T07:17:53Z</time>
      </trkpt>
      <trkpt lat="42.01429" lon="9.21954">
        <ele>1830.97</ele>
        <time>2015-09-13T07:17:55Z</time>
      </trkpt>
      <trkpt lat="42.01409" lon="9.21943">
        <ele>1831.93</ele>
        <time>2015-09-13T07:18:18Z</time>
      </trkpt>
      <trkpt lat="42.01388" lon="9.21927">
        <ele>1832.41</ele>
        <time>2015-09-13T07:18:42Z</time>
      </trkpt>
      <trkpt lat="42.0137" lon="9.21927">
        <ele>1832.89</ele>
        <time>2015-09-13T07:19:04Z</time>
      </trkpt>
      <trkpt lat="42.0135" lon="9.21918">
        <ele>1834.33</ele>
        <time>2015-09-13T07:19:26Z</time>
      </trkpt>
      <trkpt lat="42.01329" lon="9.21911">
        <ele>1836.74</ele>
        <time>2015-09-13T07:19:49Z</time>
      </trkpt>
      <trkpt lat="42.01313" lon="9.21907">
        <ele>1837.7</ele>
        <time>2015-09-13T07:20:10Z</time>
      </trkpt>
      <trkpt lat="42.01291" lon="9.21905">
        <ele>1839.62</ele>
        <time>2015-09-13T07:20:34Z</time>
      </trkpt>
      <trkpt lat="42.01278" lon="9.21903">
        <ele>1842.02</ele>
        <time>2015-09-13T07:20:53Z</time>
      </trkpt>
      <trkpt lat="42.01262" lon="9.21899">
        <ele>1843.47</ele>
        <time>2015-09-13T07:21:15Z</time>
      </trkpt>
      <trkpt lat="42.01245" lon="9.21898">
        <ele>1845.39</ele>
        <time>2015-09-13T07:21:38Z</time>
      </trkpt>
      <trkpt lat="42.01226" lon="9.2189">
        <ele>1846.83</ele>
        <time>2015-09-13T07:22:03Z</time>
      </trkpt>
      <trkpt lat="42.01211" lon="9.21881">
        <ele>1847.31</ele>
        <time>2015-09-13T07:22:21Z</time>
      </trkpt>
      <trkpt lat="42.0119" lon="9.21874">
        <ele>1847.79</ele>
        <time>2015-09-13T07:22:43Z</time>
      </trkpt>
      <trkpt lat="42.01166" lon="9.21862">
        <ele>1848.27</ele>
        <time>2015-09-13T07:23:07Z</time>
      </trkpt>
      <trkpt lat="42.01155" lon="9.2186">
        <ele>1846.83</ele>
        <time>2015-09-13T07:23:18Z</time>
      </trkpt>
      <trkpt lat="42.0115" lon="9.21859">
        <ele>1847.79</ele>
        <time>2015-09-13T07:23:23Z</time>
      </trkpt>
      <trkpt lat="42.01146" lon="9.21859">
        <ele>1846.35</ele>
        <time>2015-09-13T07:23:27Z</time>
      </trkpt>
      <trkpt lat="42.01144" lon="9.21859">
        <ele>1847.79</ele>
        <time>2015-09-13T07:23:29Z</time>
      </trkpt>
      <trkpt lat="42.01126" lon="9.21859">
        <ele>1847.31</ele>
        <time>2015-09-13T07:23:44Z</time>
      </trkpt>
      <trkpt lat="42.01101" lon="9.21868">
        <ele>1844.91</ele>
        <time>2015-09-13T07:24:09Z</time>
      </trkpt>
      <trkpt lat="42.01077" lon="9.21871">
        <ele>1842.98</ele>
        <time>2015-09-13T07:24:35Z</time>
      </trkpt>
      <trkpt lat="42.01063" lon="9.21864">
        <ele>1841.06</ele>
        <time>2015-09-13T07:24:53Z</time>
      </trkpt>
      <trkpt lat="42.01046" lon="9.21853">
        <ele>1839.62</ele>
        <time>2015-09-13T07:25:11Z</time>
      </trkpt>
      <trkpt lat="42.01033" lon="9.21848">
        <ele>1836.26</ele>
        <time>2015-09-13T07:25:31Z</time>
      </trkpt>
      <trkpt lat="42.0102" lon="9.21837">
        <ele>1832.41</ele>
        <time>2015-09-13T07:25:53Z</time>
      </trkpt>
      <trkpt lat="42.01005" lon="9.21833">
        <ele>1829.05</ele>
        <time>2015-09-13T07:26:17Z</time>
      </trkpt>
      <trkpt lat="42.00991" lon="9.21834">
        <ele>1826.64</ele>
        <time>2015-09-13T07:26:43Z</time>
      </trkpt>
      <trkpt lat="42.00971" lon="9.2183">
        <ele>1823.76</ele>
        <time>2015-09-13T07:27:08Z</time>
      </trkpt>
      <trkpt lat="42.00957" lon="9.21829">
        <ele>1823.28</ele>
        <time>2015-09-13T07:27:23Z</time>
      </trkpt>
      <trkpt lat="42.00947" lon="9.21822">
        <ele>1821.35</ele>
        <time>2015-09-13T07:27:39Z</time>
      </trkpt>
      <trkpt lat="42.0093" lon="9.21819">
        <ele>1819.43</ele>
        <time>2015-09-13T07:27:59Z</time>
      </trkpt>
      <trkpt lat="42.00924" lon="9.21824">
        <ele>1816.07</ele>
        <time>2015-09-13T07:28:10Z</time>
      </trkpt>
      <trkpt lat="42.00905" lon="9.21815">
        <ele>1813.66</ele>
        <time>2015-09-13T07:28:33Z</time>
      </trkpt>
      <trkpt lat="42.00887" lon="9.21814">
        <ele>1813.18</ele>
        <time>2015-09-13T07:28:58Z</time>
      </trkpt>
      <trkpt lat="42.00874" lon="9.21811">
        <ele>1809.82</ele>
        <time>2015-09-13T07:29:17Z</time>
      </trkpt>
      <trkpt lat="42.00857" lon="9.21813">
        <ele>1807.42</ele>
        <time>2015-09-13T07:29:40Z</time>
      </trkpt>
      <trkpt lat="42.00855" lon="9.21832">
        <ele>1807.42</ele>
        <time>2015-09-13T07:30:02Z</time>
      </trkpt>
      <trkpt lat="42.00859" lon="9.21844">
        <ele>1806.45</ele>
        <time>2015-09-13T07:30:21Z</time>
      </trkpt>
      <trkpt lat="42.00865" lon="9.21849">
        <ele>1805.97</ele>
        <time>2015-09-13T07:30:41Z</time>
      </trkpt>
      <trkpt lat="42.00867" lon="9.21854">
        <ele>1805.97</ele>
        <time>2015-09-13T07:31:10Z</time>
      </trkpt>
      <trkpt lat="42.00867" lon="9.21852">
        <ele>1805.97</ele>
        <time>2015-09-13T07:31:30Z</time>
      </trkpt>
      <trkpt lat="42.00867" lon="9.21852">
        <ele>1805.97</ele>
        <time>2015-09-13T07:32:06Z</time>
      </trkpt>
      <trkpt lat="42.00868" lon="9.21851">
        <ele>1805.97</ele>
        <time>2015-09-13T07:32:35Z</time>
      </trkpt>
      <trkpt lat="42.00867" lon="9.2185">
        <ele>1806.45</ele>
        <time>2015-09-13T07:33:00Z</time>
      </trkpt>
      <trkpt lat="42.00865" lon="9.21847">
        <ele>1806.45</ele>
        <time>2015-09-13T07:33:35Z</time>
      </trkpt>
      <trkpt lat="42.00864" lon="9.21846">
        <ele>1806.45</ele>
        <time>2015-09-13T07:34:06Z</time>
      </trkpt>
      <trkpt lat="42.0087" lon="9.21852">
        <ele>1805.97</ele>
        <time>2015-09-13T07:34:37Z</time>
      </trkpt>
      <trkpt lat="42.00868" lon="9.21851">
        <ele>1806.45</ele>
        <time>2015-09-13T07:35:09Z</time>
      </trkpt>
      <trkpt lat="42.00866" lon="9.21851">
        <ele>1806.45</ele>
        <time>2015-09-13T07:35:30Z</time>
      </trkpt>
      <trkpt lat="42.00868" lon="9.21856">
        <ele>1805.49</ele>
        <time>2015-09-13T07:35:51Z</time>
      </trkpt>
      <trkpt lat="42.00867" lon="9.21853">
        <ele>1805.97</ele>
        <time>2015-09-13T07:36:15Z</time>
      </trkpt>
      <trkpt lat="42.00866" lon="9.2185">
        <ele>1806.45</ele>
        <time>2015-09-13T07:36:35Z</time>
      </trkpt>
      <trkpt lat="42.00868" lon="9.21855">
        <ele>1805.49</ele>
        <time>2015-09-13T07:36:50Z</time>
      </trkpt>
      <trkpt lat="42.00867" lon="9.2185">
        <ele>1806.45</ele>
        <time>2015-09-13T07:37:09Z</time>
      </trkpt>
      <trkpt lat="42.00866" lon="9.21849">
        <ele>1806.45</ele>
        <time>2015-09-13T07:37:31Z</time>
      </trkpt>
      <trkpt lat="42.00866" lon="9.21847">
        <ele>1806.94</ele>
        <time>2015-09-13T07:37:56Z</time>
      </trkpt>
      <trkpt lat="42.00868" lon="9.21851">
        <ele>1807.42</ele>
        <time>2015-09-13T07:38:24Z</time>
      </trkpt>
      <trkpt lat="42.00868" lon="9.2185">
        <ele>1807.42</ele>
        <time>2015-09-13T07:38:49Z</time>
      </trkpt>
      <trkpt lat="42.00867" lon="9.21852">
        <ele>1807.9</ele>
        <time>2015-09-13T07:39:21Z</time>
      </trkpt>
      <trkpt lat="42.00867" lon="9.2185">
        <ele>1806.45</ele>
        <time>2015-09-13T07:39:43Z</time>
      </trkpt>
      <trkpt lat="42.00865" lon="9.21847">
        <ele>1806.94</ele>
        <time>2015-09-13T07:40:16Z</time>
      </trkpt>
      <trkpt lat="42.00868" lon="9.21849">
        <ele>1806.94</ele>
        <time>2015-09-13T07:40:44Z</time>
      </trkpt>
      <trkpt lat="42.00868" lon="9.21851">
        <ele>1806.94</ele>
        <time>2015-09-13T07:41:10Z</time>
      </trkpt>
      <trkpt lat="42.00868" lon="9.2185">
        <ele>1809.34</ele>
        <time>2015-09-13T07:41:20Z</time>
      </trkpt>
      <trkpt lat="42.00868" lon="9.21851">
        <ele>1807.9</ele>
        <time>2015-09-13T07:41:41Z</time>
      </trkpt>
      <trkpt lat="42.00866" lon="9.21841">
        <ele>1807.9</ele>
        <time>2015-09-13T07:42:11Z</time>
      </trkpt>
      <trkpt lat="42.00866" lon="9.2184">
        <ele>1808.86</ele>
        <time>2015-09-13T07:42:17Z</time>
      </trkpt>
      <trkpt lat="42.00867" lon="9.21843">
        <ele>1803.57</ele>
        <time>2015-09-13T07:42:29Z</time>
      </trkpt>
      <trkpt lat="42.00866" lon="9.21843">
        <ele>1812.22</ele>
        <time>2015-09-13T07:42:30Z</time>
      </trkpt>
      <trkpt lat="42.00866" lon="9.21843">
        <ele>1807.42</ele>
        <time>2015-09-13T07:42:31Z</time>
      </trkpt>
      <trkpt lat="42.00863" lon="9.21843">
        <ele>1807.9</ele>
        <time>2015-09-13T07:42:36Z</time>
      </trkpt>
      <trkpt lat="42.00862" lon="9.21843">
        <ele>1807.9</ele>
        <time>2015-09-13T07:42:45Z</time>
      </trkpt>
      <trkpt lat="42.00862" lon="9.2184">
        <ele>1808.86</ele>
        <time>2015-09-13T07:42:48Z</time>
      </trkpt>
      <trkpt lat="42.00858" lon="9.21827">
        <ele>1809.82</ele>
        <time>2015-09-13T07:43:04Z</time>
      </trkpt>
      <trkpt lat="42.00853" lon="9.21812">
        <ele>1809.82</ele>
        <time>2015-09-13T07:43:18Z</time>
      </trkpt>
      <trkpt lat="42.00852" lon="9.21808">
        <ele>1805.97</ele>
        <time>2015-09-13T07:43:23Z</time>
      </trkpt>
      <trkpt lat="42.00851" lon="9.21807">
        <ele>1805.49</ele>
        <time>2015-09-13T07:43:24Z</time>
      </trkpt>
      <trkpt lat="42.0085" lon="9.21804">
        <ele>1808.38</ele>
        <time>2015-09-13T07:43:27Z</time>
      </trkpt>
      <trkpt lat="42.00849" lon="9.21802">
        <ele>1806.45</ele>
        <time>2015-09-13T07:43:29Z</time>
      </trkpt>
      <trkpt lat="42.00849" lon="9.218">
        <ele>1807.9</ele>
        <time>2015-09-13T07:43:31Z</time>
      </trkpt>
      <trkpt lat="42.00845" lon="9.2179">
        <ele>1808.86</ele>
        <time>2015-09-13T07:43:41Z</time>
      </trkpt>
      <trkpt lat="42.00836" lon="9.21768">
        <ele>1808.86</ele>
        <time>2015-09-13T07:44:02Z</time>
      </trkpt>
      <trkpt lat="42.00835" lon="9.21767">
        <ele>1808.86</ele>
        <time>2015-09-13T07:44:03Z</time>
      </trkpt>
      <trkpt lat="42.0083" lon="9.21764">
        <ele>1807.42</ele>
        <time>2015-09-13T07:44:08Z</time>
      </trkpt>
      <trkpt lat="42.00827" lon="9.21761">
        <ele>1808.38</ele>
        <time>2015-09-13T07:44:13Z</time>
      </trkpt>
      <trkpt lat="42.00822" lon="9.21758">
        <ele>1808.38</ele>
        <time>2015-09-13T07:44:18Z</time>
      </trkpt>
      <trkpt lat="42.00806" lon="9.21739">
        <ele>1806.45</ele>
        <time>2015-09-13T07:44:39Z</time>
      </trkpt>
      <trkpt lat="42.00805" lon="9.21737">
        <ele>1807.9</ele>
        <time>2015-09-13T07:44:41Z</time>
      </trkpt>
      <trkpt lat="42.00793" lon="9.21719">
        <ele>1808.86</ele>
        <time>2015-09-13T07:45:01Z</time>
      </trkpt>
      <trkpt lat="42.00789" lon="9.21711">
        <ele>1807.9</ele>
        <time>2015-09-13T07:45:08Z</time>
      </trkpt>
      <trkpt lat="42.00778" lon="9.2169">
        <ele>1807.9</ele>
        <time>2015-09-13T07:45:28Z</time>
      </trkpt>
      <trkpt lat="42.00778" lon="9.21689">
        <ele>1807.9</ele>
        <time>2015-09-13T07:45:29Z</time>
      </trkpt>
      <trkpt lat="42.00776" lon="9.21685">
        <ele>1809.34</ele>
        <time>2015-09-13T07:45:33Z</time>
      </trkpt>
      <trkpt lat="42.00773" lon="9.21679">
        <ele>1807.42</ele>
        <time>2015-09-13T07:45:39Z</time>
      </trkpt>
      <trkpt lat="42.00771" lon="9.21673">
        <ele>1808.38</ele>
        <time>2015-09-13T07:45:45Z</time>
      </trkpt>
      <trkpt lat="42.00764" lon="9.21651">
        <ele>1810.3</ele>
        <time>2015-09-13T07:46:05Z</time>
      </trkpt>
      <trkpt lat="42.00759" lon="9.21636">
        <ele>1810.78</ele>
        <time>2015-09-13T07:46:22Z</time>
      </trkpt>
      <trkpt lat="42.00754" lon="9.21627">
        <ele>1810.78</ele>
        <time>2015-09-13T07:46:32Z</time>
      </trkpt>
      <trkpt lat="42.00749" lon="9.2162">
        <ele>1810.78</ele>
        <time>2015-09-13T07:46:39Z</time>
      </trkpt>
      <trkpt lat="42.00744" lon="9.2161">
        <ele>1810.78</ele>
        <time>2015-09-13T07:46:52Z</time>
      </trkpt>
      <trkpt lat="42.00741" lon="9.21605">
        <ele>1812.22</ele>
        <time>2015-09-13T07:46:58Z</time>
      </trkpt>
      <trkpt lat="42.00731" lon="9.21591">
        <ele>1813.66</ele>
        <time>2015-09-13T07:47:16Z</time>
      </trkpt>
      <trkpt lat="42.00725" lon="9.2158">
        <ele>1814.63</ele>
        <time>2015-09-13T07:47:28Z</time>
      </trkpt>
      <trkpt lat="42.00718" lon="9.21569">
        <ele>1814.63</ele>
        <time>2015-09-13T07:47:44Z</time>
      </trkpt>
      <trkpt lat="42.00716" lon="9.21564">
        <ele>1816.07</ele>
        <time>2015-09-13T07:47:50Z</time>
      </trkpt>
      <trkpt lat="42.00705" lon="9.21547">
        <ele>1815.59</ele>
        <time>2015-09-13T07:48:09Z</time>
      </trkpt>
      <trkpt lat="42.00701" lon="9.21539">
        <ele>1817.51</ele>
        <time>2015-09-13T07:48:18Z</time>
      </trkpt>
      <trkpt lat="42.00694" lon="9.21527">
        <ele>1818.95</ele>
        <time>2015-09-13T07:48:35Z</time>
      </trkpt>
      <trkpt lat="42.0069" lon="9.2152">
        <ele>1818.95</ele>
        <time>2015-09-13T07:48:43Z</time>
      </trkpt>
      <trkpt lat="42.00686" lon="9.21504">
        <ele>1817.51</ele>
        <time>2015-09-13T07:48:59Z</time>
      </trkpt>
      <trkpt lat="42.00686" lon="9.21503">
        <ele>1817.51</ele>
        <time>2015-09-13T07:49:00Z</time>
      </trkpt>
      <trkpt lat="42.00684" lon="9.21501">
        <ele>1818.95</ele>
        <time>2015-09-13T07:49:03Z</time>
      </trkpt>
      <trkpt lat="42.00678" lon="9.21494">
        <ele>1818.95</ele>
        <time>2015-09-13T07:49:17Z</time>
      </trkpt>
      <trkpt lat="42.00676" lon="9.21491">
        <ele>1820.87</ele>
        <time>2015-09-13T07:49:22Z</time>
      </trkpt>
      <trkpt lat="42.00667" lon="9.2148">
        <ele>1822.8</ele>
        <time>2015-09-13T07:49:39Z</time>
      </trkpt>
      <trkpt lat="42.00658" lon="9.21472">
        <ele>1824.72</ele>
        <time>2015-09-13T07:49:55Z</time>
      </trkpt>
      <trkpt lat="42.00647" lon="9.21465">
        <ele>1825.68</ele>
        <time>2015-09-13T07:50:13Z</time>
      </trkpt>
      <trkpt lat="42.00636" lon="9.21464">
        <ele>1827.6</ele>
        <time>2015-09-13T07:50:34Z</time>
      </trkpt>
      <trkpt lat="42.00626" lon="9.21463">
        <ele>1829.53</ele>
        <time>2015-09-13T07:50:51Z</time>
      </trkpt>
      <trkpt lat="42.00616" lon="9.21459">
        <ele>1830.49</ele>
        <time>2015-09-13T07:51:07Z</time>
      </trkpt>
      <trkpt lat="42.00604" lon="9.21456">
        <ele>1831.93</ele>
        <time>2015-09-13T07:51:23Z</time>
      </trkpt>
      <trkpt lat="42.00592" lon="9.21447">
        <ele>1833.85</ele>
        <time>2015-09-13T07:51:41Z</time>
      </trkpt>
      <trkpt lat="42.00581" lon="9.21439">
        <ele>1834.81</ele>
        <time>2015-09-13T07:51:58Z</time>
      </trkpt>
      <trkpt lat="42.00579" lon="9.21435">
        <ele>1833.37</ele>
        <time>2015-09-13T07:52:03Z</time>
      </trkpt>
      <trkpt lat="42.00573" lon="9.21428">
        <ele>1833.85</ele>
        <time>2015-09-13T07:52:13Z</time>
      </trkpt>
      <trkpt lat="42.00571" lon="9.21424">
        <ele>1835.77</ele>
        <time>2015-09-13T07:52:17Z</time>
      </trkpt>
      <trkpt lat="42.00568" lon="9.21418">
        <ele>1836.26</ele>
        <time>2015-09-13T07:52:25Z</time>
      </trkpt>
      <trkpt lat="42.00556" lon="9.21407">
        <ele>1836.74</ele>
        <time>2015-09-13T07:52:42Z</time>
      </trkpt>
      <trkpt lat="42.00545" lon="9.21399">
        <ele>1838.18</ele>
        <time>2015-09-13T07:52:57Z</time>
      </trkpt>
      <trkpt lat="42.0054" lon="9.21397">
        <ele>1840.1</ele>
        <time>2015-09-13T07:53:04Z</time>
      </trkpt>
      <trkpt lat="42.00527" lon="9.21397">
        <ele>1839.62</ele>
        <time>2015-09-13T07:53:20Z</time>
      </trkpt>
      <trkpt lat="42.00522" lon="9.21397">
        <ele>1839.14</ele>
        <time>2015-09-13T07:53:26Z</time>
      </trkpt>
      <trkpt lat="42.00509" lon="9.21397">
        <ele>1842.02</ele>
        <time>2015-09-13T07:53:42Z</time>
      </trkpt>
      <trkpt lat="42.005" lon="9.214">
        <ele>1842.5</ele>
        <time>2015-09-13T07:53:52Z</time>
      </trkpt>
      <trkpt lat="42.00494" lon="9.21401">
        <ele>1842.5</ele>
        <time>2015-09-13T07:53:59Z</time>
      </trkpt>
      <trkpt lat="42.0048" lon="9.21404">
        <ele>1841.54</ele>
        <time>2015-09-13T07:54:15Z</time>
      </trkpt>
      <trkpt lat="42.00478" lon="9.21404">
        <ele>1842.5</ele>
        <time>2015-09-13T07:54:18Z</time>
      </trkpt>
      <trkpt lat="42.00472" lon="9.21404">
        <ele>1841.54</ele>
        <time>2015-09-13T07:54:25Z</time>
      </trkpt>
      <trkpt lat="42.00471" lon="9.21404">
        <ele>1842.98</ele>
        <time>2015-09-13T07:54:27Z</time>
      </trkpt>
      <trkpt lat="42.00456" lon="9.21404">
        <ele>1844.43</ele>
        <time>2015-09-13T07:54:45Z</time>
      </trkpt>
      <trkpt lat="42.00453" lon="9.21403">
        <ele>1843.47</ele>
        <time>2015-09-13T07:54:50Z</time>
      </trkpt>
      <trkpt lat="42.00447" lon="9.21401">
        <ele>1844.91</ele>
        <time>2015-09-13T07:54:58Z</time>
      </trkpt>
      <trkpt lat="42.00439" lon="9.21402">
        <ele>1845.39</ele>
        <time>2015-09-13T07:55:08Z</time>
      </trkpt>
      <trkpt lat="42.00426" lon="9.21407">
        <ele>1846.35</ele>
        <time>2015-09-13T07:55:24Z</time>
      </trkpt>
      <trkpt lat="42.00426" lon="9.21407">
        <ele>1846.35</ele>
        <time>2015-09-13T07:55:25Z</time>
      </trkpt>
      <trkpt lat="42.00423" lon="9.21407">
        <ele>1849.71</ele>
        <time>2015-09-13T07:55:28Z</time>
      </trkpt>
      <trkpt lat="42.00418" lon="9.21407">
        <ele>1849.71</ele>
        <time>2015-09-13T07:55:36Z</time>
      </trkpt>
      <trkpt lat="42.00414" lon="9.21406">
        <ele>1847.79</ele>
        <time>2015-09-13T07:55:42Z</time>
      </trkpt>
      <trkpt lat="42.00412" lon="9.21406">
        <ele>1851.16</ele>
        <time>2015-09-13T07:55:45Z</time>
      </trkpt>
      <trkpt lat="42.00411" lon="9.21407">
        <ele>1849.71</ele>
        <time>2015-09-13T07:55:46Z</time>
      </trkpt>
      <trkpt lat="42.004" lon="9.2141">
        <ele>1851.16</ele>
        <time>2015-09-13T07:56:06Z</time>
      </trkpt>
      <trkpt lat="42.00397" lon="9.21413">
        <ele>1854.04</ele>
        <time>2015-09-13T07:56:14Z</time>
      </trkpt>
      <trkpt lat="42.00397" lon="9.21414">
        <ele>1854.04</ele>
        <time>2015-09-13T07:56:15Z</time>
      </trkpt>
      <trkpt lat="42.00389" lon="9.21421">
        <ele>1854.52</ele>
        <time>2015-09-13T07:56:34Z</time>
      </trkpt>
      <trkpt lat="42.00382" lon="9.21426">
        <ele>1857.4</ele>
        <time>2015-09-13T07:56:54Z</time>
      </trkpt>
      <trkpt lat="42.00377" lon="9.21431">
        <ele>1859.33</ele>
        <time>2015-09-13T07:57:12Z</time>
      </trkpt>
      <trkpt lat="42.00373" lon="9.21436">
        <ele>1862.69</ele>
        <time>2015-09-13T07:57:26Z</time>
      </trkpt>
      <trkpt lat="42.00372" lon="9.21436">
        <ele>1861.25</ele>
        <time>2015-09-13T07:57:27Z</time>
      </trkpt>
      <trkpt lat="42.00368" lon="9.21432">
        <ele>1864.13</ele>
        <time>2015-09-13T07:57:40Z</time>
      </trkpt>
      <trkpt lat="42.00367" lon="9.21431">
        <ele>1866.54</ele>
        <time>2015-09-13T07:57:42Z</time>
      </trkpt>
      <trkpt lat="42.00366" lon="9.21431">
        <ele>1863.65</ele>
        <time>2015-09-13T07:57:45Z</time>
      </trkpt>
      <trkpt lat="42.00366" lon="9.21431">
        <ele>1863.65</ele>
        <time>2015-09-13T07:57:46Z</time>
      </trkpt>
      <trkpt lat="42.00365" lon="9.21432">
        <ele>1865.58</ele>
        <time>2015-09-13T07:57:49Z</time>
      </trkpt>
      <trkpt lat="42.00364" lon="9.21431">
        <ele>1864.13</ele>
        <time>2015-09-13T07:57:51Z</time>
      </trkpt>
      <trkpt lat="42.0036" lon="9.21426">
        <ele>1867.98</ele>
        <time>2015-09-13T07:58:05Z</time>
      </trkpt>
      <trkpt lat="42.00355" lon="9.21424">
        <ele>1866.54</ele>
        <time>2015-09-13T07:58:18Z</time>
      </trkpt>
      <trkpt lat="42.00354" lon="9.21426">
        <ele>1868.46</ele>
        <time>2015-09-13T07:58:25Z</time>
      </trkpt>
      <trkpt lat="42.00349" lon="9.21431">
        <ele>1870.38</ele>
        <time>2015-09-13T07:58:43Z</time>
      </trkpt>
      <trkpt lat="42.00342" lon="9.21434">
        <ele>1872.3</ele>
        <time>2015-09-13T07:59:01Z</time>
      </trkpt>
      <trkpt lat="42.00338" lon="9.21433">
        <ele>1873.75</ele>
        <time>2015-09-13T07:59:12Z</time>
      </trkpt>
      <trkpt lat="42.00332" lon="9.21431">
        <ele>1874.71</ele>
        <time>2015-09-13T07:59:28Z</time>
      </trkpt>
      <trkpt lat="42.0033" lon="9.21433">
        <ele>1876.15</ele>
        <time>2015-09-13T07:59:35Z</time>
      </trkpt>
      <trkpt lat="42.00327" lon="9.21436">
        <ele>1880.48</ele>
        <time>2015-09-13T07:59:45Z</time>
      </trkpt>
      <trkpt lat="42.00326" lon="9.21437">
        <ele>1880.48</ele>
        <time>2015-09-13T07:59:46Z</time>
      </trkpt>
      <trkpt lat="42.00325" lon="9.21437">
        <ele>1878.07</ele>
        <time>2015-09-13T07:59:48Z</time>
      </trkpt>
      <trkpt lat="42.00321" lon="9.21444">
        <ele>1880.96</ele>
        <time>2015-09-13T08:00:03Z</time>
      </trkpt>
      <trkpt lat="42.0032" lon="9.21445">
        <ele>1879.03</ele>
        <time>2015-09-13T08:00:06Z</time>
      </trkpt>
      <trkpt lat="42.00316" lon="9.21445">
        <ele>1880</ele>
        <time>2015-09-13T08:00:23Z</time>
      </trkpt>
      <trkpt lat="42.00315" lon="9.21441">
        <ele>1880.96</ele>
        <time>2015-09-13T08:00:29Z</time>
      </trkpt>
      <trkpt lat="42.00312" lon="9.2144">
        <ele>1880.48</ele>
        <time>2015-09-13T08:00:35Z</time>
      </trkpt>
      <trkpt lat="42.00305" lon="9.21436">
        <ele>1882.88</ele>
        <time>2015-09-13T08:00:45Z</time>
      </trkpt>
      <trkpt lat="42.00306" lon="9.21441">
        <ele>1884.32</ele>
        <time>2015-09-13T08:00:52Z</time>
      </trkpt>
      <trkpt lat="42.00307" lon="9.21443">
        <ele>1885.76</ele>
        <time>2015-09-13T08:00:55Z</time>
      </trkpt>
      <trkpt lat="42.00306" lon="9.21449">
        <ele>1885.28</ele>
        <time>2015-09-13T08:01:08Z</time>
      </trkpt>
      <trkpt lat="42.00304" lon="9.21453">
        <ele>1884.8</ele>
        <time>2015-09-13T08:01:19Z</time>
      </trkpt>
      <trkpt lat="42.00302" lon="9.21458">
        <ele>1887.69</ele>
        <time>2015-09-13T08:01:33Z</time>
      </trkpt>
      <trkpt lat="42.00298" lon="9.21465">
        <ele>1889.61</ele>
        <time>2015-09-13T08:01:56Z</time>
      </trkpt>
      <trkpt lat="42.00295" lon="9.21473">
        <ele>1891.53</ele>
        <time>2015-09-13T08:02:12Z</time>
      </trkpt>
      <trkpt lat="42.00292" lon="9.21475">
        <ele>1892.49</ele>
        <time>2015-09-13T08:02:19Z</time>
      </trkpt>
      <trkpt lat="42.00285" lon="9.21478">
        <ele>1894.42</ele>
        <time>2015-09-13T08:02:36Z</time>
      </trkpt>
      <trkpt lat="42.00279" lon="9.21488">
        <ele>1894.42</ele>
        <time>2015-09-13T08:02:53Z</time>
      </trkpt>
      <trkpt lat="42.00278" lon="9.21492">
        <ele>1895.86</ele>
        <time>2015-09-13T08:02:57Z</time>
      </trkpt>
      <trkpt lat="42.00276" lon="9.21497">
        <ele>1895.38</ele>
        <time>2015-09-13T08:03:04Z</time>
      </trkpt>
      <trkpt lat="42.00268" lon="9.21503">
        <ele>1897.3</ele>
        <time>2015-09-13T08:03:23Z</time>
      </trkpt>
      <trkpt lat="42.00259" lon="9.21503">
        <ele>1900.18</ele>
        <time>2015-09-13T08:03:45Z</time>
      </trkpt>
      <trkpt lat="42.00252" lon="9.21502">
        <ele>1903.07</ele>
        <time>2015-09-13T08:04:04Z</time>
      </trkpt>
      <trkpt lat="42.00248" lon="9.21493">
        <ele>1904.03</ele>
        <time>2015-09-13T08:04:22Z</time>
      </trkpt>
      <trkpt lat="42.00243" lon="9.21496">
        <ele>1906.91</ele>
        <time>2015-09-13T08:04:36Z</time>
      </trkpt>
      <trkpt lat="42.00241" lon="9.21498">
        <ele>1909.8</ele>
        <time>2015-09-13T08:04:43Z</time>
      </trkpt>
      <trkpt lat="42.0024" lon="9.215">
        <ele>1908.35</ele>
        <time>2015-09-13T08:04:47Z</time>
      </trkpt>
      <trkpt lat="42.00239" lon="9.215">
        <ele>1910.28</ele>
        <time>2015-09-13T08:04:50Z</time>
      </trkpt>
      <trkpt lat="42.00238" lon="9.21501">
        <ele>1908.35</ele>
        <time>2015-09-13T08:04:53Z</time>
      </trkpt>
      <trkpt lat="42.00237" lon="9.21503">
        <ele>1910.28</ele>
        <time>2015-09-13T08:04:56Z</time>
      </trkpt>
      <trkpt lat="42.0023" lon="9.21518">
        <ele>1910.76</ele>
        <time>2015-09-13T08:05:13Z</time>
      </trkpt>
      <trkpt lat="42.00224" lon="9.21528">
        <ele>1910.28</ele>
        <time>2015-09-13T08:05:30Z</time>
      </trkpt>
      <trkpt lat="42.00221" lon="9.2153">
        <ele>1911.72</ele>
        <time>2015-09-13T08:05:37Z</time>
      </trkpt>
      <trkpt lat="42.00216" lon="9.21537">
        <ele>1912.2</ele>
        <time>2015-09-13T08:05:51Z</time>
      </trkpt>
      <trkpt lat="42.0021" lon="9.21545">
        <ele>1913.16</ele>
        <time>2015-09-13T08:06:07Z</time>
      </trkpt>
      <trkpt lat="42.00207" lon="9.21549">
        <ele>1916.04</ele>
        <time>2015-09-13T08:06:16Z</time>
      </trkpt>
      <trkpt lat="42.00201" lon="9.21556">
        <ele>1916.53</ele>
        <time>2015-09-13T08:06:33Z</time>
      </trkpt>
      <trkpt lat="42.002" lon="9.21557">
        <ele>1917.01</ele>
        <time>2015-09-13T08:06:35Z</time>
      </trkpt>
      <trkpt lat="42.00199" lon="9.2156">
        <ele>1916.53</ele>
        <time>2015-09-13T08:06:40Z</time>
      </trkpt>
      <trkpt lat="42.00196" lon="9.21565">
        <ele>1919.41</ele>
        <time>2015-09-13T08:06:49Z</time>
      </trkpt>
      <trkpt lat="42.00194" lon="9.21568">
        <ele>1918.93</ele>
        <time>2015-09-13T08:06:58Z</time>
      </trkpt>
      <trkpt lat="42.00186" lon="9.21573">
        <ele>1919.41</ele>
        <time>2015-09-13T08:07:16Z</time>
      </trkpt>
      <trkpt lat="42.00182" lon="9.21576">
        <ele>1920.85</ele>
        <time>2015-09-13T08:07:24Z</time>
      </trkpt>
      <trkpt lat="42.00177" lon="9.21579">
        <ele>1921.33</ele>
        <time>2015-09-13T08:07:42Z</time>
      </trkpt>
      <trkpt lat="42.00179" lon="9.21582">
        <ele>1922.77</ele>
        <time>2015-09-13T08:07:48Z</time>
      </trkpt>
      <trkpt lat="42.0018" lon="9.21593">
        <ele>1925.18</ele>
        <time>2015-09-13T08:08:07Z</time>
      </trkpt>
      <trkpt lat="42.00181" lon="9.21604">
        <ele>1926.62</ele>
        <time>2015-09-13T08:08:27Z</time>
      </trkpt>
      <trkpt lat="42.00179" lon="9.21606">
        <ele>1928.06</ele>
        <time>2015-09-13T08:08:32Z</time>
      </trkpt>
      <trkpt lat="42.00171" lon="9.21613">
        <ele>1929.5</ele>
        <time>2015-09-13T08:08:51Z</time>
      </trkpt>
      <trkpt lat="42.00165" lon="9.21615">
        <ele>1930.95</ele>
        <time>2015-09-13T08:09:07Z</time>
      </trkpt>
      <trkpt lat="42.00157" lon="9.21613">
        <ele>1931.91</ele>
        <time>2015-09-13T08:09:23Z</time>
      </trkpt>
      <trkpt lat="42.00147" lon="9.21605">
        <ele>1933.35</ele>
        <time>2015-09-13T08:09:41Z</time>
      </trkpt>
      <trkpt lat="42.00137" lon="9.21602">
        <ele>1935.75</ele>
        <time>2015-09-13T08:09:59Z</time>
      </trkpt>
      <trkpt lat="42.00129" lon="9.21598">
        <ele>1938.64</ele>
        <time>2015-09-13T08:10:17Z</time>
      </trkpt>
      <trkpt lat="42.00129" lon="9.21598">
        <ele>1938.64</ele>
        <time>2015-09-13T08:10:18Z</time>
      </trkpt>
      <trkpt lat="42.00129" lon="9.21603">
        <ele>1938.16</ele>
        <time>2015-09-13T08:10:25Z</time>
      </trkpt>
      <trkpt lat="42.00129" lon="9.21604">
        <ele>1939.6</ele>
        <time>2015-09-13T08:10:28Z</time>
      </trkpt>
      <trkpt lat="42.00127" lon="9.21606">
        <ele>1940.56</ele>
        <time>2015-09-13T08:10:38Z</time>
      </trkpt>
      <trkpt lat="42.00122" lon="9.21609">
        <ele>1942</ele>
        <time>2015-09-13T08:10:56Z</time>
      </trkpt>
      <trkpt lat="42.00115" lon="9.21604">
        <ele>1943.92</ele>
        <time>2015-09-13T08:11:15Z</time>
      </trkpt>
      <trkpt lat="42.00111" lon="9.21598">
        <ele>1945.85</ele>
        <time>2015-09-13T08:11:26Z</time>
      </trkpt>
      <trkpt lat="42.00106" lon="9.21598">
        <ele>1946.33</ele>
        <time>2015-09-13T08:11:36Z</time>
      </trkpt>
      <trkpt lat="42.00105" lon="9.21605">
        <ele>1947.29</ele>
        <time>2015-09-13T08:11:56Z</time>
      </trkpt>
      <trkpt lat="42.00101" lon="9.21611">
        <ele>1950.65</ele>
        <time>2015-09-13T08:12:18Z</time>
      </trkpt>
      <trkpt lat="42.00097" lon="9.21613">
        <ele>1952.09</ele>
        <time>2015-09-13T08:12:32Z</time>
      </trkpt>
      <trkpt lat="42.00095" lon="9.21614">
        <ele>1951.61</ele>
        <time>2015-09-13T08:12:39Z</time>
      </trkpt>
      <trkpt lat="42.00094" lon="9.21615">
        <ele>1953.06</ele>
        <time>2015-09-13T08:12:42Z</time>
      </trkpt>
      <trkpt lat="42.00091" lon="9.21614">
        <ele>1956.42</ele>
        <time>2015-09-13T08:12:59Z</time>
      </trkpt>
      <trkpt lat="42.00087" lon="9.21612">
        <ele>1957.86</ele>
        <time>2015-09-13T08:13:17Z</time>
      </trkpt>
      <trkpt lat="42.00087" lon="9.21615">
        <ele>1959.3</ele>
        <time>2015-09-13T08:13:23Z</time>
      </trkpt>
      <trkpt lat="42.00087" lon="9.21616">
        <ele>1957.86</ele>
        <time>2015-09-13T08:13:28Z</time>
      </trkpt>
      <trkpt lat="42.00085" lon="9.21617">
        <ele>1960.27</ele>
        <time>2015-09-13T08:13:46Z</time>
      </trkpt>
      <trkpt lat="42.00082" lon="9.21617">
        <ele>1961.71</ele>
        <time>2015-09-13T08:14:01Z</time>
      </trkpt>
      <trkpt lat="42.00082" lon="9.21616">
        <ele>1964.59</ele>
        <time>2015-09-13T08:14:06Z</time>
      </trkpt>
      <trkpt lat="42.00082" lon="9.21617">
        <ele>1963.15</ele>
        <time>2015-09-13T08:14:07Z</time>
      </trkpt>
      <trkpt lat="42.00079" lon="9.21617">
        <ele>1964.11</ele>
        <time>2015-09-13T08:14:15Z</time>
      </trkpt>
      <trkpt lat="42.00078" lon="9.21618">
        <ele>1964.11</ele>
        <time>2015-09-13T08:14:21Z</time>
      </trkpt>
      <trkpt lat="42.00078" lon="9.21628">
        <ele>1965.55</ele>
        <time>2015-09-13T08:14:40Z</time>
      </trkpt>
      <trkpt lat="42.00076" lon="9.2163">
        <ele>1967.48</ele>
        <time>2015-09-13T08:15:00Z</time>
      </trkpt>
      <trkpt lat="42.00071" lon="9.21629">
        <ele>1969.88</ele>
        <time>2015-09-13T08:15:22Z</time>
      </trkpt>
      <trkpt lat="42.00067" lon="9.21629">
        <ele>1972.76</ele>
        <time>2015-09-13T08:15:41Z</time>
      </trkpt>
      <trkpt lat="42.00062" lon="9.21621">
        <ele>1973.24</ele>
        <time>2015-09-13T08:15:59Z</time>
      </trkpt>
      <trkpt lat="42.00055" lon="9.21617">
        <ele>1975.65</ele>
        <time>2015-09-13T08:16:18Z</time>
      </trkpt>
      <trkpt lat="42.00053" lon="9.21618">
        <ele>1974.2</ele>
        <time>2015-09-13T08:16:30Z</time>
      </trkpt>
      <trkpt lat="42.00053" lon="9.21619">
        <ele>1976.61</ele>
        <time>2015-09-13T08:16:33Z</time>
      </trkpt>
      <trkpt lat="42.00053" lon="9.21617">
        <ele>1975.65</ele>
        <time>2015-09-13T08:16:55Z</time>
      </trkpt>
      <trkpt lat="42.00053" lon="9.21617">
        <ele>1973.72</ele>
        <time>2015-09-13T08:16:58Z</time>
      </trkpt>
      <trkpt lat="42.00053" lon="9.21617">
        <ele>1977.09</ele>
        <time>2015-09-13T08:16:59Z</time>
      </trkpt>
      <trkpt lat="42.00053" lon="9.21618">
        <ele>1976.61</ele>
        <time>2015-09-13T08:17:30Z</time>
      </trkpt>
      <trkpt lat="42.00053" lon="9.21618">
        <ele>1975.65</ele>
        <time>2015-09-13T08:18:06Z</time>
      </trkpt>
      <trkpt lat="42.00051" lon="9.21619">
        <ele>1975.65</ele>
        <time>2015-09-13T08:18:36Z</time>
      </trkpt>
      <trkpt lat="42.00043" lon="9.21616">
        <ele>1976.13</ele>
        <time>2015-09-13T08:18:52Z</time>
      </trkpt>
      <trkpt lat="42.00036" lon="9.2162">
        <ele>1973.72</ele>
        <time>2015-09-13T08:19:07Z</time>
      </trkpt>
      <trkpt lat="42.00029" lon="9.21616">
        <ele>1971.8</ele>
        <time>2015-09-13T08:19:23Z</time>
      </trkpt>
      <trkpt lat="42.00024" lon="9.21615">
        <ele>1969.4</ele>
        <time>2015-09-13T08:19:44Z</time>
      </trkpt>
      <trkpt lat="42.00021" lon="9.21612">
        <ele>1967.96</ele>
        <time>2015-09-13T08:19:57Z</time>
      </trkpt>
      <trkpt lat="42.00016" lon="9.21611">
        <ele>1966.03</ele>
        <time>2015-09-13T08:20:12Z</time>
      </trkpt>
      <trkpt lat="42.00013" lon="9.21605">
        <ele>1966.51</ele>
        <time>2015-09-13T08:20:20Z</time>
      </trkpt>
      <trkpt lat="42.00003" lon="9.21595">
        <ele>1966.51</ele>
        <time>2015-09-13T08:20:37Z</time>
      </trkpt>
      <trkpt lat="41.99993" lon="9.21594">
        <ele>1965.07</ele>
        <time>2015-09-13T08:20:52Z</time>
      </trkpt>
      <trkpt lat="41.99986" lon="9.21588">
        <ele>1966.51</ele>
        <time>2015-09-13T08:21:09Z</time>
      </trkpt>
      <trkpt lat="41.9998" lon="9.2158">
        <ele>1966.99</ele>
        <time>2015-09-13T08:21:24Z</time>
      </trkpt>
      <trkpt lat="41.99972" lon="9.2158">
        <ele>1967.96</ele>
        <time>2015-09-13T08:21:41Z</time>
      </trkpt>
      <trkpt lat="41.99968" lon="9.21575">
        <ele>1966.51</ele>
        <time>2015-09-13T08:21:59Z</time>
      </trkpt>
      <trkpt lat="41.99962" lon="9.21572">
        <ele>1962.67</ele>
        <time>2015-09-13T08:22:17Z</time>
      </trkpt>
      <trkpt lat="41.99961" lon="9.21572">
        <ele>1966.03</ele>
        <time>2015-09-13T08:22:18Z</time>
      </trkpt>
      <trkpt lat="41.99962" lon="9.21575">
        <ele>1962.19</ele>
        <time>2015-09-13T08:22:24Z</time>
      </trkpt>
      <trkpt lat="41.99962" lon="9.21575">
        <ele>1966.51</ele>
        <time>2015-09-13T08:22:25Z</time>
      </trkpt>
      <trkpt lat="41.99961" lon="9.21578">
        <ele>1963.15</ele>
        <time>2015-09-13T08:22:31Z</time>
      </trkpt>
      <trkpt lat="41.99959" lon="9.21581">
        <ele>1961.71</ele>
        <time>2015-09-13T08:22:45Z</time>
      </trkpt>
      <trkpt lat="41.99958" lon="9.21579">
        <ele>1965.07</ele>
        <time>2015-09-13T08:22:53Z</time>
      </trkpt>
      <trkpt lat="41.99958" lon="9.21578">
        <ele>1961.71</ele>
        <time>2015-09-13T08:22:54Z</time>
      </trkpt>
      <trkpt lat="41.99955" lon="9.21578">
        <ele>1960.27</ele>
        <time>2015-09-13T08:23:12Z</time>
      </trkpt>
      <trkpt lat="41.9995" lon="9.21583">
        <ele>1956.9</ele>
        <time>2015-09-13T08:23:28Z</time>
      </trkpt>
      <trkpt lat="41.99946" lon="9.21585">
        <ele>1954.98</ele>
        <time>2015-09-13T08:23:43Z</time>
      </trkpt>
      <trkpt lat="41.99947" lon="9.21587">
        <ele>1953.54</ele>
        <time>2015-09-13T08:24:01Z</time>
      </trkpt>
      <trkpt lat="41.99945" lon="9.21588">
        <ele>1953.06</ele>
        <time>2015-09-13T08:24:18Z</time>
      </trkpt>
      <trkpt lat="41.99943" lon="9.21588">
        <ele>1952.09</ele>
        <time>2015-09-13T08:24:36Z</time>
      </trkpt>
      <trkpt lat="41.9994" lon="9.21586">
        <ele>1951.13</ele>
        <time>2015-09-13T08:24:54Z</time>
      </trkpt>
      <trkpt lat="41.99936" lon="9.21589">
        <ele>1948.73</ele>
        <time>2015-09-13T08:25:13Z</time>
      </trkpt>
      <trkpt lat="41.99929" lon="9.21589">
        <ele>1948.25</ele>
        <time>2015-09-13T08:25:32Z</time>
      </trkpt>
      <trkpt lat="41.99921" lon="9.2159">
        <ele>1946.81</ele>
        <time>2015-09-13T08:25:51Z</time>
      </trkpt>
      <trkpt lat="41.9992" lon="9.2159">
        <ele>1948.25</ele>
        <time>2015-09-13T08:25:59Z</time>
      </trkpt>
      <trkpt lat="41.99917" lon="9.21591">
        <ele>1946.81</ele>
        <time>2015-09-13T08:26:04Z</time>
      </trkpt>
      <trkpt lat="41.99912" lon="9.21593">
        <ele>1946.81</ele>
        <time>2015-09-13T08:26:19Z</time>
      </trkpt>
      <trkpt lat="41.99909" lon="9.21593">
        <ele>1948.25</ele>
        <time>2015-09-13T08:26:27Z</time>
      </trkpt>
      <trkpt lat="41.99901" lon="9.21593">
        <ele>1950.17</ele>
        <time>2015-09-13T08:26:45Z</time>
      </trkpt>
      <trkpt lat="41.99898" lon="9.2159">
        <ele>1950.17</ele>
        <time>2015-09-13T08:27:01Z</time>
      </trkpt>
      <trkpt lat="41.99892" lon="9.2159">
        <ele>1950.65</ele>
        <time>2015-09-13T08:27:16Z</time>
      </trkpt>
      <trkpt lat="41.99887" lon="9.21591">
        <ele>1949.21</ele>
        <time>2015-09-13T08:27:29Z</time>
      </trkpt>
      <trkpt lat="41.99882" lon="9.21593">
        <ele>1948.25</ele>
        <time>2015-09-13T08:27:46Z</time>
      </trkpt>
      <trkpt lat="41.99875" lon="9.21594">
        <ele>1949.21</ele>
        <time>2015-09-13T08:28:00Z</time>
      </trkpt>
      <trkpt lat="41.9987" lon="9.21596">
        <ele>1949.69</ele>
        <time>2015-09-13T08:28:11Z</time>
      </trkpt>
      <trkpt lat="41.99868" lon="9.21598">
        <ele>1948.25</ele>
        <time>2015-09-13T08:28:14Z</time>
      </trkpt>
      <trkpt lat="41.99862" lon="9.21595">
        <ele>1950.17</ele>
        <time>2015-09-13T08:28:31Z</time>
      </trkpt>
      <trkpt lat="41.99859" lon="9.21594">
        <ele>1948.73</ele>
        <time>2015-09-13T08:28:45Z</time>
      </trkpt>
      <trkpt lat="41.99858" lon="9.21597">
        <ele>1947.77</ele>
        <time>2015-09-13T08:29:09Z</time>
      </trkpt>
      <trkpt lat="41.99855" lon="9.21601">
        <ele>1947.29</ele>
        <time>2015-09-13T08:29:27Z</time>
      </trkpt>
      <trkpt lat="41.99851" lon="9.21601">
        <ele>1945.36</ele>
        <time>2015-09-13T08:29:45Z</time>
      </trkpt>
      <trkpt lat="41.99849" lon="9.21598">
        <ele>1948.73</ele>
        <time>2015-09-13T08:29:52Z</time>
      </trkpt>
      <trkpt lat="41.99846" lon="9.21596">
        <ele>1949.69</ele>
        <time>2015-09-13T08:30:14Z</time>
      </trkpt>
      <trkpt lat="41.99837" lon="9.21594">
        <ele>1950.17</ele>
        <time>2015-09-13T08:30:35Z</time>
      </trkpt>
      <trkpt lat="41.99836" lon="9.21595">
        <ele>1948.73</ele>
        <time>2015-09-13T08:30:43Z</time>
      </trkpt>
      <trkpt lat="41.99831" lon="9.21603">
        <ele>1947.29</ele>
        <time>2015-09-13T08:31:06Z</time>
      </trkpt>
      <trkpt lat="41.99824" lon="9.21607">
        <ele>1945.36</ele>
        <time>2015-09-13T08:31:27Z</time>
      </trkpt>
      <trkpt lat="41.99823" lon="9.21608">
        <ele>1944.4</ele>
        <time>2015-09-13T08:31:43Z</time>
      </trkpt>
      <trkpt lat="41.9981" lon="9.21616">
        <ele>1943.44</ele>
        <time>2015-09-13T08:32:04Z</time>
      </trkpt>
      <trkpt lat="41.99809" lon="9.21625">
        <ele>1942</ele>
        <time>2015-09-13T08:32:26Z</time>
      </trkpt>
      <trkpt lat="41.99803" lon="9.21629">
        <ele>1940.56</ele>
        <time>2015-09-13T08:32:48Z</time>
      </trkpt>
      <trkpt lat="41.99802" lon="9.21633">
        <ele>1939.6</ele>
        <time>2015-09-13T08:32:56Z</time>
      </trkpt>
      <trkpt lat="41.99795" lon="9.21637">
        <ele>1938.64</ele>
        <time>2015-09-13T08:33:16Z</time>
      </trkpt>
      <trkpt lat="41.99783" lon="9.21648">
        <ele>1939.6</ele>
        <time>2015-09-13T08:33:39Z</time>
      </trkpt>
      <trkpt lat="41.9978" lon="9.21643">
        <ele>1943.44</ele>
        <time>2015-09-13T08:34:00Z</time>
      </trkpt>
      <trkpt lat="41.9978" lon="9.21643">
        <ele>1943.44</ele>
        <time>2015-09-13T08:34:01Z</time>
      </trkpt>
      <trkpt lat="41.99776" lon="9.21643">
        <ele>1944.4</ele>
        <time>2015-09-13T08:34:21Z</time>
      </trkpt>
      <trkpt lat="41.99774" lon="9.21647">
        <ele>1945.85</ele>
        <time>2015-09-13T08:34:44Z</time>
      </trkpt>
      <trkpt lat="41.99768" lon="9.21644">
        <ele>1948.73</ele>
        <time>2015-09-13T08:35:04Z</time>
      </trkpt>
      <trkpt lat="41.99762" lon="9.21649">
        <ele>1950.17</ele>
        <time>2015-09-13T08:35:27Z</time>
      </trkpt>
      <trkpt lat="41.99762" lon="9.21649">
        <ele>1950.17</ele>
        <time>2015-09-13T08:35:28Z</time>
      </trkpt>
      <trkpt lat="41.99763" lon="9.21655">
        <ele>1952.09</ele>
        <time>2015-09-13T08:35:50Z</time>
      </trkpt>
      <trkpt lat="41.99758" lon="9.21654">
        <ele>1954.02</ele>
        <time>2015-09-13T08:36:11Z</time>
      </trkpt>
      <trkpt lat="41.99756" lon="9.21654">
        <ele>1955.46</ele>
        <time>2015-09-13T08:36:32Z</time>
      </trkpt>
      <trkpt lat="41.99749" lon="9.21654">
        <ele>1957.86</ele>
        <time>2015-09-13T08:37:01Z</time>
      </trkpt>
      <trkpt lat="41.99749" lon="9.21656">
        <ele>1957.86</ele>
        <time>2015-09-13T08:37:31Z</time>
      </trkpt>
      <trkpt lat="41.99748" lon="9.21657">
        <ele>1959.3</ele>
        <time>2015-09-13T08:37:34Z</time>
      </trkpt>
      <trkpt lat="41.99747" lon="9.21659">
        <ele>1963.15</ele>
        <time>2015-09-13T08:37:53Z</time>
      </trkpt>
      <trkpt lat="41.99747" lon="9.21659">
        <ele>1959.3</ele>
        <time>2015-09-13T08:37:54Z</time>
      </trkpt>
      <trkpt lat="41.99746" lon="9.21658">
        <ele>1960.27</ele>
        <time>2015-09-13T08:38:04Z</time>
      </trkpt>
      <trkpt lat="41.99747" lon="9.21658">
        <ele>1960.27</ele>
        <time>2015-09-13T08:38:34Z</time>
      </trkpt>
      <trkpt lat="41.99748" lon="9.21658">
        <ele>1952.57</ele>
        <time>2015-09-13T08:38:43Z</time>
      </trkpt>
      <trkpt lat="41.99747" lon="9.21658">
        <ele>1968.44</ele>
        <time>2015-09-13T08:38:44Z</time>
      </trkpt>
      <trkpt lat="41.99747" lon="9.21658">
        <ele>1961.23</ele>
        <time>2015-09-13T08:38:45Z</time>
      </trkpt>
      <trkpt lat="41.99744" lon="9.2166">
        <ele>1961.71</ele>
        <time>2015-09-13T08:39:09Z</time>
      </trkpt>
      <trkpt lat="41.99736" lon="9.21657">
        <ele>1959.78</ele>
        <time>2015-09-13T08:39:36Z</time>
      </trkpt>
      <trkpt lat="41.99736" lon="9.21657">
        <ele>1964.59</ele>
        <time>2015-09-13T08:39:37Z</time>
      </trkpt>
      <trkpt lat="41.99743" lon="9.21653">
        <ele>1962.19</ele>
        <time>2015-09-13T08:40:06Z</time>
      </trkpt>
      <trkpt lat="41.99743" lon="9.21646">
        <ele>1962.19</ele>
        <time>2015-09-13T08:40:18Z</time>
      </trkpt>
      <trkpt lat="41.99742" lon="9.21655">
        <ele>1965.55</ele>
        <time>2015-09-13T08:40:45Z</time>
      </trkpt>
      <trkpt lat="41.99743" lon="9.2166">
        <ele>1963.63</ele>
        <time>2015-09-13T08:41:10Z</time>
      </trkpt>
      <trkpt lat="41.99741" lon="9.21661">
        <ele>1965.07</ele>
        <time>2015-09-13T08:41:18Z</time>
      </trkpt>
      <trkpt lat="41.99737" lon="9.21665">
        <ele>1966.99</ele>
        <time>2015-09-13T08:41:40Z</time>
      </trkpt>
      <trkpt lat="41.99728" lon="9.21664">
        <ele>1969.88</ele>
        <time>2015-09-13T08:42:02Z</time>
      </trkpt>
      <trkpt lat="41.99721" lon="9.21662">
        <ele>1972.76</ele>
        <time>2015-09-13T08:42:22Z</time>
      </trkpt>
      <trkpt lat="41.99714" lon="9.21664">
        <ele>1974.69</ele>
        <time>2015-09-13T08:42:42Z</time>
      </trkpt>
      <trkpt lat="41.9971" lon="9.21662">
        <ele>1976.61</ele>
        <time>2015-09-13T08:43:04Z</time>
      </trkpt>
      <trkpt lat="41.99706" lon="9.2167">
        <ele>1978.53</ele>
        <time>2015-09-13T08:43:21Z</time>
      </trkpt>
      <trkpt lat="41.99699" lon="9.21673">
        <ele>1980.45</ele>
        <time>2015-09-13T08:43:47Z</time>
      </trkpt>
      <trkpt lat="41.99697" lon="9.21673">
        <ele>1981.41</ele>
        <time>2015-09-13T08:43:54Z</time>
      </trkpt>
      <trkpt lat="41.99694" lon="9.21676">
        <ele>1982.38</ele>
        <time>2015-09-13T08:44:16Z</time>
      </trkpt>
      <trkpt lat="41.99692" lon="9.21683">
        <ele>1983.82</ele>
        <time>2015-09-13T08:44:43Z</time>
      </trkpt>
      <trkpt lat="41.99692" lon="9.21685">
        <ele>1986.7</ele>
        <time>2015-09-13T08:44:59Z</time>
      </trkpt>
      <trkpt lat="41.99685" lon="9.21693">
        <ele>1988.14</ele>
        <time>2015-09-13T08:45:22Z</time>
      </trkpt>
      <trkpt lat="41.99682" lon="9.21699">
        <ele>1987.18</ele>
        <time>2015-09-13T08:45:33Z</time>
      </trkpt>
      <trkpt lat="41.99678" lon="9.21706">
        <ele>1985.74</ele>
        <time>2015-09-13T08:45:50Z</time>
      </trkpt>
      <trkpt lat="41.99677" lon="9.21707">
        <ele>1988.14</ele>
        <time>2015-09-13T08:45:52Z</time>
      </trkpt>
      <trkpt lat="41.99674" lon="9.21718">
        <ele>1988.14</ele>
        <time>2015-09-13T08:46:10Z</time>
      </trkpt>
      <trkpt lat="41.99672" lon="9.21725">
        <ele>1987.18</ele>
        <time>2015-09-13T08:46:21Z</time>
      </trkpt>
      <trkpt lat="41.99668" lon="9.21726">
        <ele>1989.59</ele>
        <time>2015-09-13T08:46:29Z</time>
      </trkpt>
      <trkpt lat="41.99661" lon="9.21731">
        <ele>1990.07</ele>
        <time>2015-09-13T08:46:48Z</time>
      </trkpt>
      <trkpt lat="41.9966" lon="9.21733">
        <ele>1988.14</ele>
        <time>2015-09-13T08:46:53Z</time>
      </trkpt>
      <trkpt lat="41.9966" lon="9.21733">
        <ele>1992.95</ele>
        <time>2015-09-13T08:46:54Z</time>
      </trkpt>
      <trkpt lat="41.9966" lon="9.21733">
        <ele>1990.55</ele>
        <time>2015-09-13T08:46:55Z</time>
      </trkpt>
      <trkpt lat="41.9966" lon="9.21732">
        <ele>1986.22</ele>
        <time>2015-09-13T08:46:57Z</time>
      </trkpt>
      <trkpt lat="41.9966" lon="9.21732">
        <ele>1993.91</ele>
        <time>2015-09-13T08:46:58Z</time>
      </trkpt>
      <trkpt lat="41.9966" lon="9.21732">
        <ele>1990.55</ele>
        <time>2015-09-13T08:46:59Z</time>
      </trkpt>
      <trkpt lat="41.99656" lon="9.21732">
        <ele>1991.99</ele>
        <time>2015-09-13T08:47:16Z</time>
      </trkpt>
      <trkpt lat="41.99654" lon="9.21736">
        <ele>1991.99</ele>
        <time>2015-09-13T08:47:36Z</time>
      </trkpt>
      <trkpt lat="41.99656" lon="9.21737">
        <ele>1990.55</ele>
        <time>2015-09-13T08:47:42Z</time>
      </trkpt>
      <trkpt lat="41.99652" lon="9.21746">
        <ele>1989.1</ele>
        <time>2015-09-13T08:48:05Z</time>
      </trkpt>
      <trkpt lat="41.99652" lon="9.21758">
        <ele>1987.18</ele>
        <time>2015-09-13T08:48:25Z</time>
      </trkpt>
      <trkpt lat="41.99651" lon="9.21767">
        <ele>1986.22</ele>
        <time>2015-09-13T08:48:42Z</time>
      </trkpt>
      <trkpt lat="41.99647" lon="9.21777">
        <ele>1983.34</ele>
        <time>2015-09-13T08:49:03Z</time>
      </trkpt>
      <trkpt lat="41.99648" lon="9.21783">
        <ele>1981.41</ele>
        <time>2015-09-13T08:49:24Z</time>
      </trkpt>
      <trkpt lat="41.99654" lon="9.21796">
        <ele>1978.53</ele>
        <time>2015-09-13T08:49:48Z</time>
      </trkpt>
      <trkpt lat="41.99648" lon="9.21806">
        <ele>1979.49</ele>
        <time>2015-09-13T08:50:05Z</time>
      </trkpt>
      <trkpt lat="41.99637" lon="9.2181">
        <ele>1981.41</ele>
        <time>2015-09-13T08:50:27Z</time>
      </trkpt>
      <trkpt lat="41.99621" lon="9.21815">
        <ele>1979.49</ele>
        <time>2015-09-13T08:50:52Z</time>
      </trkpt>
      <trkpt lat="41.99606" lon="9.21812">
        <ele>1978.53</ele>
        <time>2015-09-13T08:51:14Z</time>
      </trkpt>
      <trkpt lat="41.99594" lon="9.21802">
        <ele>1978.05</ele>
        <time>2015-09-13T08:51:37Z</time>
      </trkpt>
      <trkpt lat="41.99583" lon="9.21797">
        <ele>1976.13</ele>
        <time>2015-09-13T08:52:03Z</time>
      </trkpt>
      <trkpt lat="41.99573" lon="9.21788">
        <ele>1974.2</ele>
        <time>2015-09-13T08:52:27Z</time>
      </trkpt>
      <trkpt lat="41.99563" lon="9.21786">
        <ele>1971.32</ele>
        <time>2015-09-13T08:52:45Z</time>
      </trkpt>
      <trkpt lat="41.99554" lon="9.2178">
        <ele>1968.44</ele>
        <time>2015-09-13T08:53:05Z</time>
      </trkpt>
      <trkpt lat="41.99546" lon="9.21777">
        <ele>1966.99</ele>
        <time>2015-09-13T08:53:15Z</time>
      </trkpt>
      <trkpt lat="41.99545" lon="9.21774">
        <ele>1968.44</ele>
        <time>2015-09-13T08:53:17Z</time>
      </trkpt>
      <trkpt lat="41.99544" lon="9.21773">
        <ele>1966.51</ele>
        <time>2015-09-13T08:53:19Z</time>
      </trkpt>
      <trkpt lat="41.99542" lon="9.21774">
        <ele>1965.55</ele>
        <time>2015-09-13T08:53:29Z</time>
      </trkpt>
      <trkpt lat="41.99539" lon="9.21782">
        <ele>1964.59</ele>
        <time>2015-09-13T08:53:49Z</time>
      </trkpt>
      <trkpt lat="41.99538" lon="9.21783">
        <ele>1961.71</ele>
        <time>2015-09-13T08:53:59Z</time>
      </trkpt>
      <trkpt lat="41.99538" lon="9.21784">
        <ele>1961.71</ele>
        <time>2015-09-13T08:54:00Z</time>
      </trkpt>
      <trkpt lat="41.99534" lon="9.2179">
        <ele>1961.23</ele>
        <time>2015-09-13T08:54:11Z</time>
      </trkpt>
      <trkpt lat="41.99536" lon="9.21796">
        <ele>1959.3</ele>
        <time>2015-09-13T08:54:23Z</time>
      </trkpt>
      <trkpt lat="41.99531" lon="9.21796">
        <ele>1956.9</ele>
        <time>2015-09-13T08:54:45Z</time>
      </trkpt>
      <trkpt lat="41.99528" lon="9.21797">
        <ele>1955.94</ele>
        <time>2015-09-13T08:55:09Z</time>
      </trkpt>
      <trkpt lat="41.99521" lon="9.21791">
        <ele>1952.57</ele>
        <time>2015-09-13T08:55:31Z</time>
      </trkpt>
      <trkpt lat="41.99521" lon="9.21793">
        <ele>1951.61</ele>
        <time>2015-09-13T08:55:50Z</time>
      </trkpt>
      <trkpt lat="41.9952" lon="9.21801">
        <ele>1949.69</ele>
        <time>2015-09-13T08:56:09Z</time>
      </trkpt>
      <trkpt lat="41.99516" lon="9.21808">
        <ele>1946.33</ele>
        <time>2015-09-13T08:56:28Z</time>
      </trkpt>
      <trkpt lat="41.99512" lon="9.21811">
        <ele>1942.96</ele>
        <time>2015-09-13T08:56:40Z</time>
      </trkpt>
      <trkpt lat="41.9951" lon="9.21808">
        <ele>1943.92</ele>
        <time>2015-09-13T08:56:45Z</time>
      </trkpt>
      <trkpt lat="41.99507" lon="9.21805">
        <ele>1942.48</ele>
        <time>2015-09-13T08:56:51Z</time>
      </trkpt>
      <trkpt lat="41.99496" lon="9.21793">
        <ele>1939.6</ele>
        <time>2015-09-13T08:57:13Z</time>
      </trkpt>
      <trkpt lat="41.99486" lon="9.21789">
        <ele>1936.23</ele>
        <time>2015-09-13T08:57:35Z</time>
      </trkpt>
      <trkpt lat="41.99482" lon="9.21787">
        <ele>1933.83</ele>
        <time>2015-09-13T08:57:55Z</time>
      </trkpt>
      <trkpt lat="41.99478" lon="9.21782">
        <ele>1932.87</ele>
        <time>2015-09-13T08:58:19Z</time>
      </trkpt>
      <trkpt lat="41.99477" lon="9.21781">
        <ele>1931.43</ele>
        <time>2015-09-13T08:58:24Z</time>
      </trkpt>
      <trkpt lat="41.99473" lon="9.21777">
        <ele>1932.87</ele>
        <time>2015-09-13T08:58:30Z</time>
      </trkpt>
      <trkpt lat="41.99464" lon="9.21772">
        <ele>1931.91</ele>
        <time>2015-09-13T08:58:51Z</time>
      </trkpt>
      <trkpt lat="41.99461" lon="9.2177">
        <ele>1928.06</ele>
        <time>2015-09-13T08:58:56Z</time>
      </trkpt>
      <trkpt lat="41.9946" lon="9.2177">
        <ele>1928.06</ele>
        <time>2015-09-13T08:58:57Z</time>
      </trkpt>
      <trkpt lat="41.99458" lon="9.21769">
        <ele>1929.98</ele>
        <time>2015-09-13T08:59:01Z</time>
      </trkpt>
      <trkpt lat="41.99456" lon="9.21764">
        <ele>1929.98</ele>
        <time>2015-09-13T08:59:12Z</time>
      </trkpt>
      <trkpt lat="41.99455" lon="9.21766">
        <ele>1928.54</ele>
        <time>2015-09-13T08:59:18Z</time>
      </trkpt>
      <trkpt lat="41.9945" lon="9.21774">
        <ele>1925.66</ele>
        <time>2015-09-13T08:59:37Z</time>
      </trkpt>
      <trkpt lat="41.99443" lon="9.21769">
        <ele>1923.74</ele>
        <time>2015-09-13T09:00:00Z</time>
      </trkpt>
      <trkpt lat="41.99441" lon="9.21771">
        <ele>1922.77</ele>
        <time>2015-09-13T09:00:04Z</time>
      </trkpt>
      <trkpt lat="41.99437" lon="9.21762">
        <ele>1921.81</ele>
        <time>2015-09-13T09:00:16Z</time>
      </trkpt>
      <trkpt lat="41.99429" lon="9.21758">
        <ele>1919.41</ele>
        <time>2015-09-13T09:00:40Z</time>
      </trkpt>
      <trkpt lat="41.99419" lon="9.21755">
        <ele>1916.53</ele>
        <time>2015-09-13T09:01:00Z</time>
      </trkpt>
      <trkpt lat="41.99404" lon="9.21753">
        <ele>1913.16</ele>
        <time>2015-09-13T09:01:18Z</time>
      </trkpt>
      <trkpt lat="41.99399" lon="9.21747">
        <ele>1911.24</ele>
        <time>2015-09-13T09:01:31Z</time>
      </trkpt>
      <trkpt lat="41.99397" lon="9.21746">
        <ele>1913.64</ele>
        <time>2015-09-13T09:01:33Z</time>
      </trkpt>
      <trkpt lat="41.99391" lon="9.21744">
        <ele>1911.72</ele>
        <time>2015-09-13T09:01:44Z</time>
      </trkpt>
      <trkpt lat="41.99383" lon="9.21742">
        <ele>1909.8</ele>
        <time>2015-09-13T09:02:03Z</time>
      </trkpt>
      <trkpt lat="41.99374" lon="9.21742">
        <ele>1907.87</ele>
        <time>2015-09-13T09:02:13Z</time>
      </trkpt>
      <trkpt lat="41.9937" lon="9.2174">
        <ele>1909.8</ele>
        <time>2015-09-13T09:02:18Z</time>
      </trkpt>
      <trkpt lat="41.99365" lon="9.21737">
        <ele>1909.8</ele>
        <time>2015-09-13T09:02:27Z</time>
      </trkpt>
      <trkpt lat="41.99356" lon="9.21732">
        <ele>1908.35</ele>
        <time>2015-09-13T09:02:37Z</time>
      </trkpt>
      <trkpt lat="41.99348" lon="9.21731">
        <ele>1907.39</ele>
        <time>2015-09-13T09:02:47Z</time>
      </trkpt>
      <trkpt lat="41.99331" lon="9.2173">
        <ele>1907.39</ele>
        <time>2015-09-13T09:03:04Z</time>
      </trkpt>
      <trkpt lat="41.99324" lon="9.2173">
        <ele>1906.43</ele>
        <time>2015-09-13T09:03:12Z</time>
      </trkpt>
      <trkpt lat="41.99322" lon="9.2173">
        <ele>1906.43</ele>
        <time>2015-09-13T09:03:14Z</time>
      </trkpt>
      <trkpt lat="41.99304" lon="9.21729">
        <ele>1908.35</ele>
        <time>2015-09-13T09:03:32Z</time>
      </trkpt>
      <trkpt lat="41.99302" lon="9.21731">
        <ele>1906.91</ele>
        <time>2015-09-13T09:03:39Z</time>
      </trkpt>
      <trkpt lat="41.99296" lon="9.2174">
        <ele>1904.51</ele>
        <time>2015-09-13T09:03:54Z</time>
      </trkpt>
      <trkpt lat="41.99293" lon="9.21742">
        <ele>1905.47</ele>
        <time>2015-09-13T09:03:58Z</time>
      </trkpt>
      <trkpt lat="41.99289" lon="9.21745">
        <ele>1904.99</ele>
        <time>2015-09-13T09:04:04Z</time>
      </trkpt>
      <trkpt lat="41.9928" lon="9.21752">
        <ele>1904.03</ele>
        <time>2015-09-13T09:04:21Z</time>
      </trkpt>
      <trkpt lat="41.99268" lon="9.21763">
        <ele>1903.07</ele>
        <time>2015-09-13T09:04:38Z</time>
      </trkpt>
      <trkpt lat="41.99255" lon="9.21769">
        <ele>1903.07</ele>
        <time>2015-09-13T09:04:54Z</time>
      </trkpt>
      <trkpt lat="41.99239" lon="9.21772">
        <ele>1903.07</ele>
        <time>2015-09-13T09:05:12Z</time>
      </trkpt>
      <trkpt lat="41.99237" lon="9.21772">
        <ele>1904.03</ele>
        <time>2015-09-13T09:05:14Z</time>
      </trkpt>
      <trkpt lat="41.9923" lon="9.21776">
        <ele>1904.51</ele>
        <time>2015-09-13T09:05:31Z</time>
      </trkpt>
      <trkpt lat="41.99224" lon="9.21777">
        <ele>1904.51</ele>
        <time>2015-09-13T09:05:49Z</time>
      </trkpt>
      <trkpt lat="41.9922" lon="9.21778">
        <ele>1905.47</ele>
        <time>2015-09-13T09:05:57Z</time>
      </trkpt>
      <trkpt lat="41.99215" lon="9.21786">
        <ele>1904.03</ele>
        <time>2015-09-13T09:06:08Z</time>
      </trkpt>
      <trkpt lat="41.99207" lon="9.21798">
        <ele>1902.11</ele>
        <time>2015-09-13T09:06:25Z</time>
      </trkpt>
      <trkpt lat="41.99204" lon="9.21803">
        <ele>1903.55</ele>
        <time>2015-09-13T09:06:31Z</time>
      </trkpt>
      <trkpt lat="41.99198" lon="9.21822">
        <ele>1900.18</ele>
        <time>2015-09-13T09:06:48Z</time>
      </trkpt>
      <trkpt lat="41.99194" lon="9.21825">
        <ele>1901.63</ele>
        <time>2015-09-13T09:06:53Z</time>
      </trkpt>
      <trkpt lat="41.99177" lon="9.21832">
        <ele>1903.55</ele>
        <time>2015-09-13T09:07:14Z</time>
      </trkpt>
      <trkpt lat="41.99175" lon="9.21831">
        <ele>1902.59</ele>
        <time>2015-09-13T09:07:16Z</time>
      </trkpt>
      <trkpt lat="41.99165" lon="9.21834">
        <ele>1899.7</ele>
        <time>2015-09-13T09:07:29Z</time>
      </trkpt>
      <trkpt lat="41.99163" lon="9.21836">
        <ele>1900.66</ele>
        <time>2015-09-13T09:07:31Z</time>
      </trkpt>
      <trkpt lat="41.99162" lon="9.21837">
        <ele>1899.22</ele>
        <time>2015-09-13T09:07:33Z</time>
      </trkpt>
      <trkpt lat="41.99156" lon="9.21843">
        <ele>1898.74</ele>
        <time>2015-09-13T09:07:41Z</time>
      </trkpt>
      <trkpt lat="41.99153" lon="9.21842">
        <ele>1899.7</ele>
        <time>2015-09-13T09:07:46Z</time>
      </trkpt>
      <trkpt lat="41.99152" lon="9.21842">
        <ele>1899.7</ele>
        <time>2015-09-13T09:07:48Z</time>
      </trkpt>
      <trkpt lat="41.9915" lon="9.21843">
        <ele>1898.26</ele>
        <time>2015-09-13T09:07:50Z</time>
      </trkpt>
      <trkpt lat="41.99148" lon="9.21844">
        <ele>1897.78</ele>
        <time>2015-09-13T09:07:53Z</time>
      </trkpt>
      <trkpt lat="41.9914" lon="9.2185">
        <ele>1897.3</ele>
        <time>2015-09-13T09:08:05Z</time>
      </trkpt>
      <trkpt lat="41.99131" lon="9.21861">
        <ele>1894.9</ele>
        <time>2015-09-13T09:08:26Z</time>
      </trkpt>
      <trkpt lat="41.99128" lon="9.21863">
        <ele>1893.45</ele>
        <time>2015-09-13T09:08:29Z</time>
      </trkpt>
      <trkpt lat="41.99117" lon="9.21866">
        <ele>1892.01</ele>
        <time>2015-09-13T09:08:41Z</time>
      </trkpt>
      <trkpt lat="41.99102" lon="9.21858">
        <ele>1891.53</ele>
        <time>2015-09-13T09:09:00Z</time>
      </trkpt>
      <trkpt lat="41.99088" lon="9.21853">
        <ele>1890.09</ele>
        <time>2015-09-13T09:09:17Z</time>
      </trkpt>
      <trkpt lat="41.9908" lon="9.21851">
        <ele>1890.57</ele>
        <time>2015-09-13T09:09:27Z</time>
      </trkpt>
      <trkpt lat="41.99077" lon="9.21849">
        <ele>1889.61</ele>
        <time>2015-09-13T09:09:31Z</time>
      </trkpt>
      <trkpt lat="41.99073" lon="9.21846">
        <ele>1892.49</ele>
        <time>2015-09-13T09:09:36Z</time>
      </trkpt>
      <trkpt lat="41.99067" lon="9.21843">
        <ele>1892.97</ele>
        <time>2015-09-13T09:09:45Z</time>
      </trkpt>
      <trkpt lat="41.99067" lon="9.21842">
        <ele>1891.53</ele>
        <time>2015-09-13T09:09:47Z</time>
      </trkpt>
      <trkpt lat="41.9906" lon="9.21839">
        <ele>1894.9</ele>
        <time>2015-09-13T09:09:59Z</time>
      </trkpt>
      <trkpt lat="41.9905" lon="9.21836">
        <ele>1895.86</ele>
        <time>2015-09-13T09:10:19Z</time>
      </trkpt>
      <trkpt lat="41.99044" lon="9.21836">
        <ele>1895.38</ele>
        <time>2015-09-13T09:10:32Z</time>
      </trkpt>
      <trkpt lat="41.99039" lon="9.21838">
        <ele>1896.34</ele>
        <time>2015-09-13T09:10:51Z</time>
      </trkpt>
      <trkpt lat="41.99038" lon="9.21837">
        <ele>1896.34</ele>
        <time>2015-09-13T09:11:12Z</time>
      </trkpt>
      <trkpt lat="41.99038" lon="9.21838">
        <ele>1895.86</ele>
        <time>2015-09-13T09:11:25Z</time>
      </trkpt>
      <trkpt lat="41.99038" lon="9.21838">
        <ele>1896.82</ele>
        <time>2015-09-13T09:11:27Z</time>
      </trkpt>
      <trkpt lat="41.99035" lon="9.21845">
        <ele>1895.86</ele>
        <time>2015-09-13T09:11:48Z</time>
      </trkpt>
      <trkpt lat="41.9903" lon="9.21846">
        <ele>1894.9</ele>
        <time>2015-09-13T09:12:05Z</time>
      </trkpt>
      <trkpt lat="41.99024" lon="9.21853">
        <ele>1891.53</ele>
        <time>2015-09-13T09:12:22Z</time>
      </trkpt>
      <trkpt lat="41.9902" lon="9.21854">
        <ele>1888.65</ele>
        <time>2015-09-13T09:12:28Z</time>
      </trkpt>
      <trkpt lat="41.99019" lon="9.21854">
        <ele>1888.65</ele>
        <time>2015-09-13T09:12:29Z</time>
      </trkpt>
      <trkpt lat="41.99014" lon="9.21854">
        <ele>1887.21</ele>
        <time>2015-09-13T09:12:39Z</time>
      </trkpt>
      <trkpt lat="41.99012" lon="9.21858">
        <ele>1888.65</ele>
        <time>2015-09-13T09:12:44Z</time>
      </trkpt>
      <trkpt lat="41.99008" lon="9.21864">
        <ele>1885.28</ele>
        <time>2015-09-13T09:12:55Z</time>
      </trkpt>
      <trkpt lat="41.99002" lon="9.21867">
        <ele>1884.32</ele>
        <time>2015-09-13T09:13:14Z</time>
      </trkpt>
      <trkpt lat="41.98994" lon="9.21872">
        <ele>1880.48</ele>
        <time>2015-09-13T09:13:36Z</time>
      </trkpt>
      <trkpt lat="41.98991" lon="9.21873">
        <ele>1878.55</ele>
        <time>2015-09-13T09:13:45Z</time>
      </trkpt>
      <trkpt lat="41.9899" lon="9.21873">
        <ele>1880</ele>
        <time>2015-09-13T09:13:47Z</time>
      </trkpt>
      <trkpt lat="41.98989" lon="9.21874">
        <ele>1881.44</ele>
        <time>2015-09-13T09:13:49Z</time>
      </trkpt>
      <trkpt lat="41.98987" lon="9.21874">
        <ele>1880</ele>
        <time>2015-09-13T09:13:52Z</time>
      </trkpt>
      <trkpt lat="41.98982" lon="9.21876">
        <ele>1881.44</ele>
        <time>2015-09-13T09:14:01Z</time>
      </trkpt>
      <trkpt lat="41.98982" lon="9.21879">
        <ele>1879.51</ele>
        <time>2015-09-13T09:14:10Z</time>
      </trkpt>
      <trkpt lat="41.98978" lon="9.2188">
        <ele>1877.11</ele>
        <time>2015-09-13T09:14:29Z</time>
      </trkpt>
      <trkpt lat="41.98978" lon="9.21889">
        <ele>1874.71</ele>
        <time>2015-09-13T09:14:46Z</time>
      </trkpt>
      <trkpt lat="41.98978" lon="9.21899">
        <ele>1872.79</ele>
        <time>2015-09-13T09:15:05Z</time>
      </trkpt>
      <trkpt lat="41.98973" lon="9.21901">
        <ele>1869.42</ele>
        <time>2015-09-13T09:15:22Z</time>
      </trkpt>
      <trkpt lat="41.98968" lon="9.21902">
        <ele>1867.02</ele>
        <time>2015-09-13T09:15:40Z</time>
      </trkpt>
      <trkpt lat="41.98968" lon="9.21902">
        <ele>1867.02</ele>
        <time>2015-09-13T09:15:51Z</time>
      </trkpt>
      <trkpt lat="41.98965" lon="9.21905">
        <ele>1864.13</ele>
        <time>2015-09-13T09:16:06Z</time>
      </trkpt>
      <trkpt lat="41.98964" lon="9.21908">
        <ele>1866.06</ele>
        <time>2015-09-13T09:16:14Z</time>
      </trkpt>
      <trkpt lat="41.98965" lon="9.21908">
        <ele>1863.17</ele>
        <time>2015-09-13T09:16:17Z</time>
      </trkpt>
      <trkpt lat="41.9896" lon="9.2191">
        <ele>1860.77</ele>
        <time>2015-09-13T09:16:32Z</time>
      </trkpt>
      <trkpt lat="41.98955" lon="9.21917">
        <ele>1858.85</ele>
        <time>2015-09-13T09:16:52Z</time>
      </trkpt>
      <trkpt lat="41.98952" lon="9.21925">
        <ele>1857.89</ele>
        <time>2015-09-13T09:17:10Z</time>
      </trkpt>
      <trkpt lat="41.98947" lon="9.21932">
        <ele>1855</ele>
        <time>2015-09-13T09:17:32Z</time>
      </trkpt>
      <trkpt lat="41.9894" lon="9.21935">
        <ele>1852.6</ele>
        <time>2015-09-13T09:17:51Z</time>
      </trkpt>
      <trkpt lat="41.98933" lon="9.21941">
        <ele>1849.71</ele>
        <time>2015-09-13T09:18:09Z</time>
      </trkpt>
      <trkpt lat="41.98925" lon="9.21941">
        <ele>1847.79</ele>
        <time>2015-09-13T09:18:25Z</time>
      </trkpt>
      <trkpt lat="41.98914" lon="9.21943">
        <ele>1846.35</ele>
        <time>2015-09-13T09:18:45Z</time>
      </trkpt>
      <trkpt lat="41.98903" lon="9.21942">
        <ele>1843.95</ele>
        <time>2015-09-13T09:19:05Z</time>
      </trkpt>
      <trkpt lat="41.989" lon="9.21944">
        <ele>1843.47</ele>
        <time>2015-09-13T09:19:27Z</time>
      </trkpt>
      <trkpt lat="41.989" lon="9.21945">
        <ele>1843.47</ele>
        <time>2015-09-13T09:19:28Z</time>
      </trkpt>
      <trkpt lat="41.9891" lon="9.2195">
        <ele>1845.39</ele>
        <time>2015-09-13T09:19:46Z</time>
      </trkpt>
      <trkpt lat="41.98908" lon="9.21948">
        <ele>1845.39</ele>
        <time>2015-09-13T09:20:11Z</time>
      </trkpt>
      <trkpt lat="41.98899" lon="9.21947">
        <ele>1846.35</ele>
        <time>2015-09-13T09:20:33Z</time>
      </trkpt>
      <trkpt lat="41.98898" lon="9.21946">
        <ele>1845.39</ele>
        <time>2015-09-13T09:20:37Z</time>
      </trkpt>
      <trkpt lat="41.98896" lon="9.21946">
        <ele>1842.98</ele>
        <time>2015-09-13T09:20:46Z</time>
      </trkpt>
      <trkpt lat="41.98895" lon="9.21947">
        <ele>1844.43</ele>
        <time>2015-09-13T09:20:51Z</time>
      </trkpt>
      <trkpt lat="41.98895" lon="9.21948">
        <ele>1842.98</ele>
        <time>2015-09-13T09:20:56Z</time>
      </trkpt>
      <trkpt lat="41.98891" lon="9.2195">
        <ele>1840.58</ele>
        <time>2015-09-13T09:21:15Z</time>
      </trkpt>
      <trkpt lat="41.98888" lon="9.21949">
        <ele>1838.66</ele>
        <time>2015-09-13T09:21:25Z</time>
      </trkpt>
      <trkpt lat="41.98887" lon="9.21949">
        <ele>1836.74</ele>
        <time>2015-09-13T09:21:44Z</time>
      </trkpt>
      <trkpt lat="41.98879" lon="9.21955">
        <ele>1835.77</ele>
        <time>2015-09-13T09:22:02Z</time>
      </trkpt>
      <trkpt lat="41.98872" lon="9.21959">
        <ele>1833.37</ele>
        <time>2015-09-13T09:22:18Z</time>
      </trkpt>
      <trkpt lat="41.9886" lon="9.21967">
        <ele>1832.41</ele>
        <time>2015-09-13T09:22:38Z</time>
      </trkpt>
      <trkpt lat="41.98852" lon="9.21973">
        <ele>1829.05</ele>
        <time>2015-09-13T09:22:55Z</time>
      </trkpt>
      <trkpt lat="41.98841" lon="9.21981">
        <ele>1827.6</ele>
        <time>2015-09-13T09:23:13Z</time>
      </trkpt>
      <trkpt lat="41.98829" lon="9.21986">
        <ele>1825.2</ele>
        <time>2015-09-13T09:23:31Z</time>
      </trkpt>
      <trkpt lat="41.98817" lon="9.21986">
        <ele>1822.32</ele>
        <time>2015-09-13T09:23:50Z</time>
      </trkpt>
      <trkpt lat="41.98808" lon="9.21993">
        <ele>1821.35</ele>
        <time>2015-09-13T09:24:08Z</time>
      </trkpt>
      <trkpt lat="41.98807" lon="9.21991">
        <ele>1819.43</ele>
        <time>2015-09-13T09:24:35Z</time>
      </trkpt>
      <trkpt lat="41.98806" lon="9.2199">
        <ele>1820.39</ele>
        <time>2015-09-13T09:24:41Z</time>
      </trkpt>
      <trkpt lat="41.98801" lon="9.2199">
        <ele>1818.95</ele>
        <time>2015-09-13T09:24:50Z</time>
      </trkpt>
      <trkpt lat="41.98797" lon="9.21993">
        <ele>1817.03</ele>
        <time>2015-09-13T09:25:09Z</time>
      </trkpt>
      <trkpt lat="41.98796" lon="9.21996">
        <ele>1816.07</ele>
        <time>2015-09-13T09:25:29Z</time>
      </trkpt>
      <trkpt lat="41.98796" lon="9.21995">
        <ele>1817.03</ele>
        <time>2015-09-13T09:25:47Z</time>
      </trkpt>
      <trkpt lat="41.98796" lon="9.21995">
        <ele>1808.38</ele>
        <time>2015-09-13T09:25:49Z</time>
      </trkpt>
      <trkpt lat="41.98795" lon="9.21995">
        <ele>1811.74</ele>
        <time>2015-09-13T09:25:50Z</time>
      </trkpt>
      <trkpt lat="41.98795" lon="9.21996">
        <ele>1818.95</ele>
        <time>2015-09-13T09:25:51Z</time>
      </trkpt>
      <trkpt lat="41.98795" lon="9.21996">
        <ele>1818.95</ele>
        <time>2015-09-13T09:25:52Z</time>
      </trkpt>
      <trkpt lat="41.98794" lon="9.21996">
        <ele>1815.59</ele>
        <time>2015-09-13T09:25:53Z</time>
      </trkpt>
      <trkpt lat="41.98795" lon="9.21995">
        <ele>1815.59</ele>
        <time>2015-09-13T09:25:54Z</time>
      </trkpt>
      <trkpt lat="41.98796" lon="9.21995">
        <ele>1813.66</ele>
        <time>2015-09-13T09:25:56Z</time>
      </trkpt>
      <trkpt lat="41.98796" lon="9.21996">
        <ele>1813.66</ele>
        <time>2015-09-13T09:25:59Z</time>
      </trkpt>
      <trkpt lat="41.98796" lon="9.21999">
        <ele>1811.26</ele>
        <time>2015-09-13T09:26:03Z</time>
      </trkpt>
      <trkpt lat="41.98794" lon="9.22004">
        <ele>1808.86</ele>
        <time>2015-09-13T09:26:11Z</time>
      </trkpt>
      <trkpt lat="41.98793" lon="9.22012">
        <ele>1804.53</ele>
        <time>2015-09-13T09:26:24Z</time>
      </trkpt>
      <trkpt lat="41.98793" lon="9.22017">
        <ele>1802.13</ele>
        <time>2015-09-13T09:26:32Z</time>
      </trkpt>
      <trkpt lat="41.98791" lon="9.22021">
        <ele>1798.76</ele>
        <time>2015-09-13T09:26:43Z</time>
      </trkpt>
      <trkpt lat="41.98791" lon="9.22024">
        <ele>1796.36</ele>
        <time>2015-09-13T09:27:04Z</time>
      </trkpt>
      <trkpt lat="41.98791" lon="9.22023">
        <ele>1796.36</ele>
        <time>2015-09-13T09:27:09Z</time>
      </trkpt>
      <trkpt lat="41.98791" lon="9.22024">
        <ele>1796.36</ele>
        <time>2015-09-13T09:27:35Z</time>
      </trkpt>
      <trkpt lat="41.98793" lon="9.22024">
        <ele>1798.28</ele>
        <time>2015-09-13T09:27:41Z</time>
      </trkpt>
      <trkpt lat="41.98793" lon="9.22025">
        <ele>1798.28</ele>
        <time>2015-09-13T09:27:50Z</time>
      </trkpt>
      <trkpt lat="41.98796" lon="9.22024">
        <ele>1799.24</ele>
        <time>2015-09-13T09:28:06Z</time>
      </trkpt>
      <trkpt lat="41.98799" lon="9.2202">
        <ele>1800.21</ele>
        <time>2015-09-13T09:28:25Z</time>
      </trkpt>
      <trkpt lat="41.98801" lon="9.22024">
        <ele>1798.28</ele>
        <time>2015-09-13T09:28:45Z</time>
      </trkpt>
      <trkpt lat="41.988" lon="9.2203">
        <ele>1795.88</ele>
        <time>2015-09-13T09:29:00Z</time>
      </trkpt>
      <trkpt lat="41.98799" lon="9.22028">
        <ele>1795.88</ele>
        <time>2015-09-13T09:29:18Z</time>
      </trkpt>
      <trkpt lat="41.98799" lon="9.22028">
        <ele>1791.55</ele>
        <time>2015-09-13T09:29:33Z</time>
      </trkpt>
      <trkpt lat="41.98799" lon="9.22028">
        <ele>1797.8</ele>
        <time>2015-09-13T09:29:34Z</time>
      </trkpt>
      <trkpt lat="41.98798" lon="9.22029">
        <ele>1794.44</ele>
        <time>2015-09-13T09:29:48Z</time>
      </trkpt>
      <trkpt lat="41.98797" lon="9.22031">
        <ele>1792.52</ele>
        <time>2015-09-13T09:30:04Z</time>
      </trkpt>
      <trkpt lat="41.98796" lon="9.22034">
        <ele>1789.63</ele>
        <time>2015-09-13T09:30:31Z</time>
      </trkpt>
      <trkpt lat="41.98796" lon="9.22034">
        <ele>1789.15</ele>
        <time>2015-09-13T09:30:55Z</time>
      </trkpt>
      <trkpt lat="41.98796" lon="9.22038">
        <ele>1787.71</ele>
        <time>2015-09-13T09:31:22Z</time>
      </trkpt>
      <trkpt lat="41.98796" lon="9.22035">
        <ele>1786.27</ele>
        <time>2015-09-13T09:31:40Z</time>
      </trkpt>
      <trkpt lat="41.98797" lon="9.22037">
        <ele>1783.86</ele>
        <time>2015-09-13T09:31:53Z</time>
      </trkpt>
      <trkpt lat="41.98793" lon="9.22039">
        <ele>1780.98</ele>
        <time>2015-09-13T09:32:05Z</time>
      </trkpt>
      <trkpt lat="41.98793" lon="9.2204">
        <ele>1784.34</ele>
        <time>2015-09-13T09:32:06Z</time>
      </trkpt>
      <trkpt lat="41.98793" lon="9.22041">
        <ele>1782.9</ele>
        <time>2015-09-13T09:32:07Z</time>
      </trkpt>
      <trkpt lat="41.98796" lon="9.22043">
        <ele>1776.65</ele>
        <time>2015-09-13T09:32:13Z</time>
      </trkpt>
      <trkpt lat="41.98795" lon="9.22043">
        <ele>1776.65</ele>
        <time>2015-09-13T09:32:14Z</time>
      </trkpt>
      <trkpt lat="41.98796" lon="9.22042">
        <ele>1784.34</ele>
        <time>2015-09-13T09:32:15Z</time>
      </trkpt>
      <trkpt lat="41.98795" lon="9.22042">
        <ele>1780.98</ele>
        <time>2015-09-13T09:32:16Z</time>
      </trkpt>
      <trkpt lat="41.98798" lon="9.22047">
        <ele>1778.58</ele>
        <time>2015-09-13T09:32:31Z</time>
      </trkpt>
      <trkpt lat="41.98791" lon="9.22044">
        <ele>1773.77</ele>
        <time>2015-09-13T09:32:48Z</time>
      </trkpt>
      <trkpt lat="41.9879" lon="9.22045">
        <ele>1781.94</ele>
        <time>2015-09-13T09:32:49Z</time>
      </trkpt>
      <trkpt lat="41.9879" lon="9.22045">
        <ele>1777.13</ele>
        <time>2015-09-13T09:32:50Z</time>
      </trkpt>
      <trkpt lat="41.98788" lon="9.22052">
        <ele>1774.73</ele>
        <time>2015-09-13T09:33:10Z</time>
      </trkpt>
      <trkpt lat="41.98784" lon="9.22052">
        <ele>1773.77</ele>
        <time>2015-09-13T09:33:30Z</time>
      </trkpt>
      <trkpt lat="41.98792" lon="9.22048">
        <ele>1774.73</ele>
        <time>2015-09-13T09:33:43Z</time>
      </trkpt>
      <trkpt lat="41.98796" lon="9.22049">
        <ele>1775.21</ele>
        <time>2015-09-13T09:34:00Z</time>
      </trkpt>
      <trkpt lat="41.98797" lon="9.22049">
        <ele>1775.21</ele>
        <time>2015-09-13T09:34:20Z</time>
      </trkpt>
      <trkpt lat="41.98795" lon="9.22052">
        <ele>1774.25</ele>
        <time>2015-09-13T09:34:27Z</time>
      </trkpt>
      <trkpt lat="41.9879" lon="9.22055">
        <ele>1771.85</ele>
        <time>2015-09-13T09:34:45Z</time>
      </trkpt>
      <trkpt lat="41.98787" lon="9.22056">
        <ele>1769.92</ele>
        <time>2015-09-13T09:35:01Z</time>
      </trkpt>
      <trkpt lat="41.98787" lon="9.22056">
        <ele>1768</ele>
        <time>2015-09-13T09:35:10Z</time>
      </trkpt>
      <trkpt lat="41.98784" lon="9.22055">
        <ele>1766.56</ele>
        <time>2015-09-13T09:35:31Z</time>
      </trkpt>
      <trkpt lat="41.98781" lon="9.22058">
        <ele>1763.68</ele>
        <time>2015-09-13T09:35:49Z</time>
      </trkpt>
      <trkpt lat="41.98781" lon="9.2206">
        <ele>1762.23</ele>
        <time>2015-09-13T09:36:07Z</time>
      </trkpt>
      <trkpt lat="41.98783" lon="9.22058">
        <ele>1761.75</ele>
        <time>2015-09-13T09:36:23Z</time>
      </trkpt>
      <trkpt lat="41.98784" lon="9.22059">
        <ele>1762.71</ele>
        <time>2015-09-13T09:36:28Z</time>
      </trkpt>
      <trkpt lat="41.98785" lon="9.22057">
        <ele>1765.12</ele>
        <time>2015-09-13T09:36:43Z</time>
      </trkpt>
      <trkpt lat="41.98786" lon="9.22056">
        <ele>1766.08</ele>
        <time>2015-09-13T09:36:59Z</time>
      </trkpt>
      <trkpt lat="41.98785" lon="9.22055">
        <ele>1767.04</ele>
        <time>2015-09-13T09:37:15Z</time>
      </trkpt>
      <trkpt lat="41.98787" lon="9.22054">
        <ele>1767.04</ele>
        <time>2015-09-13T09:37:35Z</time>
      </trkpt>
      <trkpt lat="41.98788" lon="9.22052">
        <ele>1767.04</ele>
        <time>2015-09-13T09:37:56Z</time>
      </trkpt>
      <trkpt lat="41.98787" lon="9.22055">
        <ele>1767.52</ele>
        <time>2015-09-13T09:38:25Z</time>
      </trkpt>
      <trkpt lat="41.98786" lon="9.22057">
        <ele>1767.52</ele>
        <time>2015-09-13T09:38:40Z</time>
      </trkpt>
      <trkpt lat="41.98786" lon="9.22057">
        <ele>1767.52</ele>
        <time>2015-09-13T09:39:10Z</time>
      </trkpt>
      <trkpt lat="41.98785" lon="9.22055">
        <ele>1768</ele>
        <time>2015-09-13T09:39:27Z</time>
      </trkpt>
      <trkpt lat="41.98786" lon="9.22056">
        <ele>1768</ele>
        <time>2015-09-13T09:39:49Z</time>
      </trkpt>
      <trkpt lat="41.98785" lon="9.22055">
        <ele>1768</ele>
        <time>2015-09-13T09:40:08Z</time>
      </trkpt>
      <trkpt lat="41.98786" lon="9.22055">
        <ele>1768</ele>
        <time>2015-09-13T09:40:28Z</time>
      </trkpt>
      <trkpt lat="41.98786" lon="9.22053">
        <ele>1768</ele>
        <time>2015-09-13T09:40:51Z</time>
      </trkpt>
      <trkpt lat="41.98785" lon="9.22052">
        <ele>1768</ele>
        <time>2015-09-13T09:41:12Z</time>
      </trkpt>
      <trkpt lat="41.98784" lon="9.22052">
        <ele>1768</ele>
        <time>2015-09-13T09:41:30Z</time>
      </trkpt>
      <trkpt lat="41.98786" lon="9.22053">
        <ele>1768</ele>
        <time>2015-09-13T09:41:51Z</time>
      </trkpt>
      <trkpt lat="41.98785" lon="9.22056">
        <ele>1768</ele>
        <time>2015-09-13T09:42:12Z</time>
      </trkpt>
      <trkpt lat="41.98787" lon="9.22054">
        <ele>1768</ele>
        <time>2015-09-13T09:42:29Z</time>
      </trkpt>
      <trkpt lat="41.98787" lon="9.22052">
        <ele>1768.96</ele>
        <time>2015-09-13T09:42:47Z</time>
      </trkpt>
      <trkpt lat="41.9879" lon="9.22053">
        <ele>1769.44</ele>
        <time>2015-09-13T09:43:02Z</time>
      </trkpt>
      <trkpt lat="41.98794" lon="9.22052">
        <ele>1770.89</ele>
        <time>2015-09-13T09:43:18Z</time>
      </trkpt>
      <trkpt lat="41.98796" lon="9.22054">
        <ele>1771.85</ele>
        <time>2015-09-13T09:43:30Z</time>
      </trkpt>
      <trkpt lat="41.98798" lon="9.22051">
        <ele>1772.81</ele>
        <time>2015-09-13T09:43:45Z</time>
      </trkpt>
      <trkpt lat="41.988" lon="9.22051">
        <ele>1774.25</ele>
        <time>2015-09-13T09:44:02Z</time>
      </trkpt>
      <trkpt lat="41.98801" lon="9.22052">
        <ele>1775.69</ele>
        <time>2015-09-13T09:44:16Z</time>
      </trkpt>
      <trkpt lat="41.98801" lon="9.22053">
        <ele>1776.65</ele>
        <time>2015-09-13T09:44:34Z</time>
      </trkpt>
      <trkpt lat="41.98801" lon="9.22052">
        <ele>1777.61</ele>
        <time>2015-09-13T09:44:50Z</time>
      </trkpt>
      <trkpt lat="41.98803" lon="9.22049">
        <ele>1779.06</ele>
        <time>2015-09-13T09:45:04Z</time>
      </trkpt>
      <trkpt lat="41.98806" lon="9.2205">
        <ele>1780.5</ele>
        <time>2015-09-13T09:45:21Z</time>
      </trkpt>
      <trkpt lat="41.98806" lon="9.22052">
        <ele>1781.94</ele>
        <time>2015-09-13T09:45:38Z</time>
      </trkpt>
      <trkpt lat="41.98806" lon="9.2205">
        <ele>1781.94</ele>
        <time>2015-09-13T09:46:01Z</time>
      </trkpt>
      <trkpt lat="41.98807" lon="9.22047">
        <ele>1782.42</ele>
        <time>2015-09-13T09:46:30Z</time>
      </trkpt>
      <trkpt lat="41.98806" lon="9.22046">
        <ele>1783.38</ele>
        <time>2015-09-13T09:46:46Z</time>
      </trkpt>
      <trkpt lat="41.98805" lon="9.22047">
        <ele>1784.82</ele>
        <time>2015-09-13T09:47:12Z</time>
      </trkpt>
      <trkpt lat="41.98807" lon="9.22041">
        <ele>1786.27</ele>
        <time>2015-09-13T09:47:35Z</time>
      </trkpt>
      <trkpt lat="41.98805" lon="9.22038">
        <ele>1786.75</ele>
        <time>2015-09-13T09:47:59Z</time>
      </trkpt>
      <trkpt lat="41.98804" lon="9.22037">
        <ele>1787.23</ele>
        <time>2015-09-13T09:48:20Z</time>
      </trkpt>
      <trkpt lat="41.98801" lon="9.22042">
        <ele>1785.79</ele>
        <time>2015-09-13T09:48:36Z</time>
      </trkpt>
      <trkpt lat="41.98798" lon="9.22038">
        <ele>1785.79</ele>
        <time>2015-09-13T09:48:58Z</time>
      </trkpt>
      <trkpt lat="41.98797" lon="9.22038">
        <ele>1786.27</ele>
        <time>2015-09-13T09:49:23Z</time>
      </trkpt>
      <trkpt lat="41.98796" lon="9.22038">
        <ele>1787.23</ele>
        <time>2015-09-13T09:49:25Z</time>
      </trkpt>
      <trkpt lat="41.98797" lon="9.22035">
        <ele>1788.67</ele>
        <time>2015-09-13T09:49:47Z</time>
      </trkpt>
      <trkpt lat="41.98795" lon="9.22036">
        <ele>1789.15</ele>
        <time>2015-09-13T09:50:10Z</time>
      </trkpt>
      <trkpt lat="41.98796" lon="9.22036">
        <ele>1789.15</ele>
        <time>2015-09-13T09:50:27Z</time>
      </trkpt>
      <trkpt lat="41.98799" lon="9.22036">
        <ele>1789.15</ele>
        <time>2015-09-13T09:50:52Z</time>
      </trkpt>
      <trkpt lat="41.98801" lon="9.2204">
        <ele>1789.15</ele>
        <time>2015-09-13T09:51:12Z</time>
      </trkpt>
      <trkpt lat="41.98799" lon="9.22042">
        <ele>1789.15</ele>
        <time>2015-09-13T09:51:33Z</time>
      </trkpt>
      <trkpt lat="41.98799" lon="9.22049">
        <ele>1789.63</ele>
        <time>2015-09-13T09:51:58Z</time>
      </trkpt>
      <trkpt lat="41.98799" lon="9.2205">
        <ele>1790.11</ele>
        <time>2015-09-13T09:52:24Z</time>
      </trkpt>
      <trkpt lat="41.98798" lon="9.2205">
        <ele>1788.67</ele>
        <time>2015-09-13T09:52:34Z</time>
      </trkpt>
      <trkpt lat="41.98794" lon="9.22043">
        <ele>1789.15</ele>
        <time>2015-09-13T09:53:01Z</time>
      </trkpt>
      <trkpt lat="41.98798" lon="9.22042">
        <ele>1790.11</ele>
        <time>2015-09-13T09:53:23Z</time>
      </trkpt>
      <trkpt lat="41.98796" lon="9.22037">
        <ele>1790.59</ele>
        <time>2015-09-13T09:53:46Z</time>
      </trkpt>
      <trkpt lat="41.98794" lon="9.22039">
        <ele>1791.07</ele>
        <time>2015-09-13T09:54:13Z</time>
      </trkpt>
      <trkpt lat="41.98794" lon="9.22042">
        <ele>1789.63</ele>
        <time>2015-09-13T09:54:31Z</time>
      </trkpt>
      <trkpt lat="41.98797" lon="9.22045">
        <ele>1788.19</ele>
        <time>2015-09-13T09:54:53Z</time>
      </trkpt>
      <trkpt lat="41.98799" lon="9.22047">
        <ele>1788.19</ele>
        <time>2015-09-13T09:55:09Z</time>
      </trkpt>
      <trkpt lat="41.98801" lon="9.22047">
        <ele>1788.19</ele>
        <time>2015-09-13T09:55:17Z</time>
      </trkpt>
      <trkpt lat="41.98802" lon="9.22046">
        <ele>1788.19</ele>
        <time>2015-09-13T09:55:19Z</time>
      </trkpt>
      <trkpt lat="41.98804" lon="9.22044">
        <ele>1789.63</ele>
        <time>2015-09-13T09:55:23Z</time>
      </trkpt>
      <trkpt lat="41.98806" lon="9.22039">
        <ele>1790.59</ele>
        <time>2015-09-13T09:55:40Z</time>
      </trkpt>
      <trkpt lat="41.98808" lon="9.22035">
        <ele>1792.03</ele>
        <time>2015-09-13T09:56:02Z</time>
      </trkpt>
      <trkpt lat="41.98805" lon="9.22034">
        <ele>1793</ele>
        <time>2015-09-13T09:56:20Z</time>
      </trkpt>
      <trkpt lat="41.98803" lon="9.22034">
        <ele>1793</ele>
        <time>2015-09-13T09:56:45Z</time>
      </trkpt>
      <trkpt lat="41.98802" lon="9.22031">
        <ele>1793.96</ele>
        <time>2015-09-13T09:57:07Z</time>
      </trkpt>
      <trkpt lat="41.98802" lon="9.2203">
        <ele>1794.92</ele>
        <time>2015-09-13T09:57:24Z</time>
      </trkpt>
      <trkpt lat="41.988" lon="9.22027">
        <ele>1795.4</ele>
        <time>2015-09-13T09:57:42Z</time>
      </trkpt>
      <trkpt lat="41.98798" lon="9.22026">
        <ele>1795.88</ele>
        <time>2015-09-13T09:58:08Z</time>
      </trkpt>
      <trkpt lat="41.988" lon="9.22028">
        <ele>1795.88</ele>
        <time>2015-09-13T09:58:36Z</time>
      </trkpt>
      <trkpt lat="41.98796" lon="9.22024">
        <ele>1797.8</ele>
        <time>2015-09-13T09:59:02Z</time>
      </trkpt>
      <trkpt lat="41.98796" lon="9.22027">
        <ele>1798.28</ele>
        <time>2015-09-13T09:59:30Z</time>
      </trkpt>
      <trkpt lat="41.98794" lon="9.22026">
        <ele>1800.69</ele>
        <time>2015-09-13T09:59:48Z</time>
      </trkpt>
      <trkpt lat="41.98795" lon="9.22024">
        <ele>1801.17</ele>
        <time>2015-09-13T10:00:08Z</time>
      </trkpt>
      <trkpt lat="41.98796" lon="9.22022">
        <ele>1802.61</ele>
        <time>2015-09-13T10:00:27Z</time>
      </trkpt>
      <trkpt lat="41.98792" lon="9.2202">
        <ele>1803.57</ele>
        <time>2015-09-13T10:00:55Z</time>
      </trkpt>
      <trkpt lat="41.98791" lon="9.22015">
        <ele>1805.49</ele>
        <time>2015-09-13T10:01:15Z</time>
      </trkpt>
      <trkpt lat="41.98792" lon="9.22013">
        <ele>1806.94</ele>
        <time>2015-09-13T10:01:28Z</time>
      </trkpt>
      <trkpt lat="41.98791" lon="9.22008">
        <ele>1808.38</ele>
        <time>2015-09-13T10:01:48Z</time>
      </trkpt>
      <trkpt lat="41.98795" lon="9.22007">
        <ele>1809.82</ele>
        <time>2015-09-13T10:02:05Z</time>
      </trkpt>
      <trkpt lat="41.98798" lon="9.22004">
        <ele>1812.22</ele>
        <time>2015-09-13T10:02:20Z</time>
      </trkpt>
      <trkpt lat="41.98796" lon="9.22001">
        <ele>1813.66</ele>
        <time>2015-09-13T10:02:37Z</time>
      </trkpt>
      <trkpt lat="41.98796" lon="9.21996">
        <ele>1815.11</ele>
        <time>2015-09-13T10:02:55Z</time>
      </trkpt>
      <trkpt lat="41.98792" lon="9.21993">
        <ele>1816.55</ele>
        <time>2015-09-13T10:03:11Z</time>
      </trkpt>
      <trkpt lat="41.98793" lon="9.21995">
        <ele>1817.03</ele>
        <time>2015-09-13T10:03:36Z</time>
      </trkpt>
      <trkpt lat="41.98793" lon="9.21994">
        <ele>1817.03</ele>
        <time>2015-09-13T10:03:58Z</time>
      </trkpt>
      <trkpt lat="41.98794" lon="9.21995">
        <ele>1817.03</ele>
        <time>2015-09-13T10:04:30Z</time>
      </trkpt>
      <trkpt lat="41.98794" lon="9.21995">
        <ele>1817.03</ele>
        <time>2015-09-13T10:05:01Z</time>
      </trkpt>
      <trkpt lat="41.98794" lon="9.21993">
        <ele>1817.03</ele>
        <time>2015-09-13T10:05:32Z</time>
      </trkpt>
      <trkpt lat="41.98794" lon="9.21994">
        <ele>1817.51</ele>
        <time>2015-09-13T10:06:01Z</time>
      </trkpt>
      <trkpt lat="41.98794" lon="9.21994">
        <ele>1817.51</ele>
        <time>2015-09-13T10:06:31Z</time>
      </trkpt>
      <trkpt lat="41.98795" lon="9.21994">
        <ele>1817.51</ele>
        <time>2015-09-13T10:07:02Z</time>
      </trkpt>
      <trkpt lat="41.98793" lon="9.21995">
        <ele>1817.51</ele>
        <time>2015-09-13T10:07:39Z</time>
      </trkpt>
      <trkpt lat="41.98794" lon="9.21991">
        <ele>1817.51</ele>
        <time>2015-09-13T10:08:19Z</time>
      </trkpt>
      <trkpt lat="41.98796" lon="9.21991">
        <ele>1817.51</ele>
        <time>2015-09-13T10:08:52Z</time>
      </trkpt>
      <trkpt lat="41.98795" lon="9.21996">
        <ele>1817.51</ele>
        <time>2015-09-13T10:09:32Z</time>
      </trkpt>
      <trkpt lat="41.98792" lon="9.21993">
        <ele>1816.07</ele>
        <time>2015-09-13T10:10:08Z</time>
      </trkpt>
      <trkpt lat="41.9879" lon="9.21993">
        <ele>1816.55</ele>
        <time>2015-09-13T10:10:34Z</time>
      </trkpt>
      <trkpt lat="41.98793" lon="9.21995">
        <ele>1816.55</ele>
        <time>2015-09-13T10:11:04Z</time>
      </trkpt>
      <trkpt lat="41.98795" lon="9.21995">
        <ele>1816.07</ele>
        <time>2015-09-13T10:11:52Z</time>
      </trkpt>
      <trkpt lat="41.98794" lon="9.21994">
        <ele>1816.07</ele>
        <time>2015-09-13T10:12:28Z</time>
      </trkpt>
      <trkpt lat="41.98795" lon="9.21995">
        <ele>1816.07</ele>
        <time>2015-09-13T10:13:04Z</time>
      </trkpt>
      <trkpt lat="41.98795" lon="9.21995">
        <ele>1817.51</ele>
        <time>2015-09-13T10:13:06Z</time>
      </trkpt>
      <trkpt lat="41.98793" lon="9.21995">
        <ele>1816.07</ele>
        <time>2015-09-13T10:13:46Z</time>
      </trkpt>
      <trkpt lat="41.98791" lon="9.21997">
        <ele>1817.03</ele>
        <time>2015-09-13T10:14:18Z</time>
      </trkpt>
      <trkpt lat="41.98793" lon="9.21994">
        <ele>1817.51</ele>
        <time>2015-09-13T10:14:53Z</time>
      </trkpt>
      <trkpt lat="41.98793" lon="9.21994">
        <ele>1816.07</ele>
        <time>2015-09-13T10:15:24Z</time>
      </trkpt>
      <trkpt lat="41.98793" lon="9.21997">
        <ele>1816.07</ele>
        <time>2015-09-13T10:16:04Z</time>
      </trkpt>
      <trkpt lat="41.98792" lon="9.21994">
        <ele>1817.51</ele>
        <time>2015-09-13T10:16:35Z</time>
      </trkpt>
      <trkpt lat="41.98793" lon="9.21995">
        <ele>1817.51</ele>
        <time>2015-09-13T10:17:12Z</time>
      </trkpt>
      <trkpt lat="41.98793" lon="9.21996">
        <ele>1817.51</ele>
        <time>2015-09-13T10:17:43Z</time>
      </trkpt>
      <trkpt lat="41.98794" lon="9.21994">
        <ele>1817.51</ele>
        <time>2015-09-13T10:18:09Z</time>
      </trkpt>
      <trkpt lat="41.98792" lon="9.21992">
        <ele>1817.51</ele>
        <time>2015-09-13T10:18:39Z</time>
      </trkpt>
      <trkpt lat="41.98794" lon="9.21993">
        <ele>1817.51</ele>
        <time>2015-09-13T10:19:26Z</time>
      </trkpt>
      <trkpt lat="41.98795" lon="9.21997">
        <ele>1816.55</ele>
        <time>2015-09-13T10:20:01Z</time>
      </trkpt>
      <trkpt lat="41.98793" lon="9.21995">
        <ele>1817.51</ele>
        <time>2015-09-13T10:20:43Z</time>
      </trkpt>
      <trkpt lat="41.98794" lon="9.21995">
        <ele>1816.07</ele>
        <time>2015-09-13T10:21:22Z</time>
      </trkpt>
      <trkpt lat="41.98794" lon="9.21994">
        <ele>1816.07</ele>
        <time>2015-09-13T10:22:04Z</time>
      </trkpt>
      <trkpt lat="41.98794" lon="9.21994">
        <ele>1816.07</ele>
        <time>2015-09-13T10:22:31Z</time>
      </trkpt>
      <trkpt lat="41.98794" lon="9.21995">
        <ele>1815.59</ele>
        <time>2015-09-13T10:22:55Z</time>
      </trkpt>
      <trkpt lat="41.98795" lon="9.21995">
        <ele>1815.59</ele>
        <time>2015-09-13T10:23:19Z</time>
      </trkpt>
      <trkpt lat="41.98794" lon="9.21996">
        <ele>1815.11</ele>
        <time>2015-09-13T10:23:51Z</time>
      </trkpt>
      <trkpt lat="41.98795" lon="9.21996">
        <ele>1815.11</ele>
        <time>2015-09-13T10:24:11Z</time>
      </trkpt>
      <trkpt lat="41.98794" lon="9.21994">
        <ele>1816.55</ele>
        <time>2015-09-13T10:24:25Z</time>
      </trkpt>
      <trkpt lat="41.98793" lon="9.21994">
        <ele>1816.55</ele>
        <time>2015-09-13T10:24:52Z</time>
      </trkpt>
      <trkpt lat="41.98794" lon="9.21994">
        <ele>1816.55</ele>
        <time>2015-09-13T10:25:20Z</time>
      </trkpt>
      <trkpt lat="41.98794" lon="9.21994">
        <ele>1816.55</ele>
        <time>2015-09-13T10:25:43Z</time>
      </trkpt>
      <trkpt lat="41.98793" lon="9.21994">
        <ele>1815.11</ele>
        <time>2015-09-13T10:26:05Z</time>
      </trkpt>
      <trkpt lat="41.98793" lon="9.21993">
        <ele>1815.11</ele>
        <time>2015-09-13T10:26:24Z</time>
      </trkpt>
      <trkpt lat="41.98791" lon="9.21993">
        <ele>1816.55</ele>
        <time>2015-09-13T10:26:41Z</time>
      </trkpt>
      <trkpt lat="41.98789" lon="9.21989">
        <ele>1817.03</ele>
        <time>2015-09-13T10:26:54Z</time>
      </trkpt>
      <trkpt lat="41.98787" lon="9.21984">
        <ele>1815.59</ele>
        <time>2015-09-13T10:27:01Z</time>
      </trkpt>
      <trkpt lat="41.98785" lon="9.21981">
        <ele>1815.11</ele>
        <time>2015-09-13T10:27:05Z</time>
      </trkpt>
      <trkpt lat="41.98773" lon="9.21969">
        <ele>1813.18</ele>
        <time>2015-09-13T10:27:22Z</time>
      </trkpt>
      <trkpt lat="41.9876" lon="9.21959">
        <ele>1811.74</ele>
        <time>2015-09-13T10:27:38Z</time>
      </trkpt>
      <trkpt lat="41.98749" lon="9.21951">
        <ele>1810.3</ele>
        <time>2015-09-13T10:27:54Z</time>
      </trkpt>
      <trkpt lat="41.98745" lon="9.21948">
        <ele>1809.34</ele>
        <time>2015-09-13T10:27:59Z</time>
      </trkpt>
      <trkpt lat="41.98744" lon="9.21947">
        <ele>1808.86</ele>
        <time>2015-09-13T10:28:01Z</time>
      </trkpt>
      <trkpt lat="41.98741" lon="9.21945">
        <ele>1810.3</ele>
        <time>2015-09-13T10:28:04Z</time>
      </trkpt>
      <trkpt lat="41.98738" lon="9.21942">
        <ele>1808.86</ele>
        <time>2015-09-13T10:28:08Z</time>
      </trkpt>
      <trkpt lat="41.98736" lon="9.21941">
        <ele>1810.78</ele>
        <time>2015-09-13T10:28:11Z</time>
      </trkpt>
      <trkpt lat="41.98734" lon="9.21939">
        <ele>1809.82</ele>
        <time>2015-09-13T10:28:18Z</time>
      </trkpt>
      <trkpt lat="41.98724" lon="9.21935">
        <ele>1808.86</ele>
        <time>2015-09-13T10:28:35Z</time>
      </trkpt>
      <trkpt lat="41.98722" lon="9.21934">
        <ele>1808.86</ele>
        <time>2015-09-13T10:28:37Z</time>
      </trkpt>
      <trkpt lat="41.98709" lon="9.21937">
        <ele>1808.38</ele>
        <time>2015-09-13T10:28:56Z</time>
      </trkpt>
      <trkpt lat="41.98703" lon="9.21937">
        <ele>1806.94</ele>
        <time>2015-09-13T10:29:07Z</time>
      </trkpt>
      <trkpt lat="41.98695" lon="9.21931">
        <ele>1804.05</ele>
        <time>2015-09-13T10:29:24Z</time>
      </trkpt>
      <trkpt lat="41.98687" lon="9.21928">
        <ele>1802.13</ele>
        <time>2015-09-13T10:29:37Z</time>
      </trkpt>
      <trkpt lat="41.9868" lon="9.21921">
        <ele>1799.24</ele>
        <time>2015-09-13T10:29:51Z</time>
      </trkpt>
      <trkpt lat="41.98672" lon="9.21915">
        <ele>1795.88</ele>
        <time>2015-09-13T10:30:06Z</time>
      </trkpt>
      <trkpt lat="41.98669" lon="9.2191">
        <ele>1794.44</ele>
        <time>2015-09-13T10:30:12Z</time>
      </trkpt>
      <trkpt lat="41.98664" lon="9.21909">
        <ele>1794.44</ele>
        <time>2015-09-13T10:30:19Z</time>
      </trkpt>
      <trkpt lat="41.98661" lon="9.21906">
        <ele>1792.52</ele>
        <time>2015-09-13T10:30:27Z</time>
      </trkpt>
      <trkpt lat="41.98659" lon="9.21901">
        <ele>1791.07</ele>
        <time>2015-09-13T10:30:44Z</time>
      </trkpt>
      <trkpt lat="41.98661" lon="9.21893">
        <ele>1788.19</ele>
        <time>2015-09-13T10:31:02Z</time>
      </trkpt>
      <trkpt lat="41.98659" lon="9.21892">
        <ele>1786.75</ele>
        <time>2015-09-13T10:31:06Z</time>
      </trkpt>
      <trkpt lat="41.98655" lon="9.21889">
        <ele>1786.75</ele>
        <time>2015-09-13T10:31:16Z</time>
      </trkpt>
      <trkpt lat="41.98653" lon="9.21889">
        <ele>1786.27</ele>
        <time>2015-09-13T10:31:29Z</time>
      </trkpt>
      <trkpt lat="41.98653" lon="9.21889">
        <ele>1785.31</ele>
        <time>2015-09-13T10:31:57Z</time>
      </trkpt>
      <trkpt lat="41.98648" lon="9.21889">
        <ele>1784.82</ele>
        <time>2015-09-13T10:32:13Z</time>
      </trkpt>
      <trkpt lat="41.98647" lon="9.21888">
        <ele>1783.38</ele>
        <time>2015-09-13T10:32:30Z</time>
      </trkpt>
      <trkpt lat="41.98646" lon="9.21888">
        <ele>1783.38</ele>
        <time>2015-09-13T10:33:03Z</time>
      </trkpt>
      <trkpt lat="41.98648" lon="9.21889">
        <ele>1783.38</ele>
        <time>2015-09-13T10:33:29Z</time>
      </trkpt>
      <trkpt lat="41.98647" lon="9.21886">
        <ele>1783.38</ele>
        <time>2015-09-13T10:33:52Z</time>
      </trkpt>
      <trkpt lat="41.98645" lon="9.21886">
        <ele>1783.38</ele>
        <time>2015-09-13T10:34:19Z</time>
      </trkpt>
      <trkpt lat="41.98642" lon="9.21886">
        <ele>1782.42</ele>
        <time>2015-09-13T10:34:35Z</time>
      </trkpt>
      <trkpt lat="41.9864" lon="9.21884">
        <ele>1780.98</ele>
        <time>2015-09-13T10:34:48Z</time>
      </trkpt>
      <trkpt lat="41.98636" lon="9.21883">
        <ele>1779.06</ele>
        <time>2015-09-13T10:35:02Z</time>
      </trkpt>
      <trkpt lat="41.98635" lon="9.21879">
        <ele>1776.17</ele>
        <time>2015-09-13T10:35:09Z</time>
      </trkpt>
      <trkpt lat="41.98631" lon="9.21887">
        <ele>1776.17</ele>
        <time>2015-09-13T10:35:21Z</time>
      </trkpt>
      <trkpt lat="41.98628" lon="9.21891">
        <ele>1774.25</ele>
        <time>2015-09-13T10:35:29Z</time>
      </trkpt>
      <trkpt lat="41.98621" lon="9.21895">
        <ele>1774.25</ele>
        <time>2015-09-13T10:35:42Z</time>
      </trkpt>
      <trkpt lat="41.9862" lon="9.21896">
        <ele>1770.89</ele>
        <time>2015-09-13T10:35:47Z</time>
      </trkpt>
      <trkpt lat="41.9862" lon="9.21895">
        <ele>1770.89</ele>
        <time>2015-09-13T10:35:48Z</time>
      </trkpt>
      <trkpt lat="41.9862" lon="9.21894">
        <ele>1773.29</ele>
        <time>2015-09-13T10:35:50Z</time>
      </trkpt>
      <trkpt lat="41.9862" lon="9.21894">
        <ele>1771.37</ele>
        <time>2015-09-13T10:35:52Z</time>
      </trkpt>
      <trkpt lat="41.98616" lon="9.21894">
        <ele>1769.44</ele>
        <time>2015-09-13T10:35:59Z</time>
      </trkpt>
      <trkpt lat="41.9861" lon="9.21893">
        <ele>1767.52</ele>
        <time>2015-09-13T10:36:08Z</time>
      </trkpt>
      <trkpt lat="41.98598" lon="9.21893">
        <ele>1765.6</ele>
        <time>2015-09-13T10:36:26Z</time>
      </trkpt>
      <trkpt lat="41.98592" lon="9.21888">
        <ele>1764.16</ele>
        <time>2015-09-13T10:36:42Z</time>
      </trkpt>
      <trkpt lat="41.98587" lon="9.21889">
        <ele>1763.68</ele>
        <time>2015-09-13T10:37:06Z</time>
      </trkpt>
      <trkpt lat="41.98583" lon="9.21891">
        <ele>1764.64</ele>
        <time>2015-09-13T10:37:13Z</time>
      </trkpt>
      <trkpt lat="41.98573" lon="9.21894">
        <ele>1766.56</ele>
        <time>2015-09-13T10:37:29Z</time>
      </trkpt>
      <trkpt lat="41.98572" lon="9.21901">
        <ele>1768.48</ele>
        <time>2015-09-13T10:37:46Z</time>
      </trkpt>
      <trkpt lat="41.9857" lon="9.21909">
        <ele>1769.44</ele>
        <time>2015-09-13T10:38:02Z</time>
      </trkpt>
      <trkpt lat="41.9857" lon="9.21909">
        <ele>1768.48</ele>
        <time>2015-09-13T10:38:05Z</time>
      </trkpt>
      <trkpt lat="41.98566" lon="9.21912">
        <ele>1766.56</ele>
        <time>2015-09-13T10:38:21Z</time>
      </trkpt>
      <trkpt lat="41.98565" lon="9.21914">
        <ele>1764.16</ele>
        <time>2015-09-13T10:38:37Z</time>
      </trkpt>
      <trkpt lat="41.98563" lon="9.21917">
        <ele>1762.71</ele>
        <time>2015-09-13T10:38:52Z</time>
      </trkpt>
      <trkpt lat="41.98562" lon="9.21919">
        <ele>1761.27</ele>
        <time>2015-09-13T10:39:03Z</time>
      </trkpt>
      <trkpt lat="41.98562" lon="9.21924">
        <ele>1760.79</ele>
        <time>2015-09-13T10:39:06Z</time>
      </trkpt>
      <trkpt lat="41.9856" lon="9.21929">
        <ele>1759.83</ele>
        <time>2015-09-13T10:39:12Z</time>
      </trkpt>
      <trkpt lat="41.98558" lon="9.21935">
        <ele>1758.39</ele>
        <time>2015-09-13T10:39:26Z</time>
      </trkpt>
      <trkpt lat="41.98556" lon="9.21947">
        <ele>1757.43</ele>
        <time>2015-09-13T10:39:42Z</time>
      </trkpt>
      <trkpt lat="41.98553" lon="9.21951">
        <ele>1755.5</ele>
        <time>2015-09-13T10:39:52Z</time>
      </trkpt>
      <trkpt lat="41.98546" lon="9.2195">
        <ele>1753.1</ele>
        <time>2015-09-13T10:40:07Z</time>
      </trkpt>
      <trkpt lat="41.98542" lon="9.21951">
        <ele>1751.66</ele>
        <time>2015-09-13T10:40:15Z</time>
      </trkpt>
      <trkpt lat="41.98536" lon="9.2195">
        <ele>1748.78</ele>
        <time>2015-09-13T10:40:26Z</time>
      </trkpt>
      <trkpt lat="41.98534" lon="9.21952">
        <ele>1751.18</ele>
        <time>2015-09-13T10:40:30Z</time>
      </trkpt>
      <trkpt lat="41.98534" lon="9.21953">
        <ele>1749.74</ele>
        <time>2015-09-13T10:40:32Z</time>
      </trkpt>
      <trkpt lat="41.9853" lon="9.21957">
        <ele>1746.37</ele>
        <time>2015-09-13T10:40:42Z</time>
      </trkpt>
      <trkpt lat="41.98529" lon="9.21957">
        <ele>1746.37</ele>
        <time>2015-09-13T10:40:43Z</time>
      </trkpt>
      <trkpt lat="41.98529" lon="9.21953">
        <ele>1745.41</ele>
        <time>2015-09-13T10:40:50Z</time>
      </trkpt>
      <trkpt lat="41.98526" lon="9.2195">
        <ele>1743.49</ele>
        <time>2015-09-13T10:40:59Z</time>
      </trkpt>
      <trkpt lat="41.98523" lon="9.21942">
        <ele>1741.57</ele>
        <time>2015-09-13T10:41:15Z</time>
      </trkpt>
      <trkpt lat="41.98521" lon="9.21936">
        <ele>1738.68</ele>
        <time>2015-09-13T10:41:27Z</time>
      </trkpt>
      <trkpt lat="41.98516" lon="9.21933">
        <ele>1736.28</ele>
        <time>2015-09-13T10:41:42Z</time>
      </trkpt>
      <trkpt lat="41.98516" lon="9.21932">
        <ele>1736.28</ele>
        <time>2015-09-13T10:41:43Z</time>
      </trkpt>
      <trkpt lat="41.98516" lon="9.2193">
        <ele>1738.2</ele>
        <time>2015-09-13T10:41:48Z</time>
      </trkpt>
      <trkpt lat="41.98517" lon="9.21929">
        <ele>1735.8</ele>
        <time>2015-09-13T10:41:51Z</time>
      </trkpt>
      <trkpt lat="41.98516" lon="9.21926">
        <ele>1736.28</ele>
        <time>2015-09-13T10:41:58Z</time>
      </trkpt>
      <trkpt lat="41.98517" lon="9.21925">
        <ele>1734.36</ele>
        <time>2015-09-13T10:42:00Z</time>
      </trkpt>
      <trkpt lat="41.98513" lon="9.21921">
        <ele>1731.47</ele>
        <time>2015-09-13T10:42:15Z</time>
      </trkpt>
      <trkpt lat="41.98514" lon="9.2192">
        <ele>1732.43</ele>
        <time>2015-09-13T10:42:23Z</time>
      </trkpt>
      <trkpt lat="41.98512" lon="9.21917">
        <ele>1728.59</ele>
        <time>2015-09-13T10:42:28Z</time>
      </trkpt>
      <trkpt lat="41.98512" lon="9.21916">
        <ele>1729.07</ele>
        <time>2015-09-13T10:42:29Z</time>
      </trkpt>
      <trkpt lat="41.9851" lon="9.21914">
        <ele>1729.55</ele>
        <time>2015-09-13T10:42:36Z</time>
      </trkpt>
      <trkpt lat="41.9851" lon="9.21913">
        <ele>1726.18</ele>
        <time>2015-09-13T10:42:41Z</time>
      </trkpt>
      <trkpt lat="41.98507" lon="9.21912">
        <ele>1725.22</ele>
        <time>2015-09-13T10:42:50Z</time>
      </trkpt>
      <trkpt lat="41.98504" lon="9.21912">
        <ele>1724.26</ele>
        <time>2015-09-13T10:43:07Z</time>
      </trkpt>
      <trkpt lat="41.98502" lon="9.2191">
        <ele>1723.3</ele>
        <time>2015-09-13T10:43:20Z</time>
      </trkpt>
      <trkpt lat="41.98504" lon="9.219">
        <ele>1719.94</ele>
        <time>2015-09-13T10:43:35Z</time>
      </trkpt>
      <trkpt lat="41.98504" lon="9.21897">
        <ele>1718.01</ele>
        <time>2015-09-13T10:43:50Z</time>
      </trkpt>
      <trkpt lat="41.985" lon="9.219">
        <ele>1716.57</ele>
        <time>2015-09-13T10:44:06Z</time>
      </trkpt>
      <trkpt lat="41.98493" lon="9.21904">
        <ele>1714.17</ele>
        <time>2015-09-13T10:44:25Z</time>
      </trkpt>
      <trkpt lat="41.98488" lon="9.21902">
        <ele>1711.28</ele>
        <time>2015-09-13T10:44:43Z</time>
      </trkpt>
      <trkpt lat="41.98484" lon="9.2191">
        <ele>1709.84</ele>
        <time>2015-09-13T10:44:59Z</time>
      </trkpt>
      <trkpt lat="41.98479" lon="9.2191">
        <ele>1708.88</ele>
        <time>2015-09-13T10:45:14Z</time>
      </trkpt>
      <trkpt lat="41.98475" lon="9.21913">
        <ele>1708.4</ele>
        <time>2015-09-13T10:45:30Z</time>
      </trkpt>
      <trkpt lat="41.98471" lon="9.21914">
        <ele>1707.92</ele>
        <time>2015-09-13T10:45:45Z</time>
      </trkpt>
      <trkpt lat="41.98467" lon="9.21915">
        <ele>1709.36</ele>
        <time>2015-09-13T10:45:58Z</time>
      </trkpt>
      <trkpt lat="41.98464" lon="9.21913">
        <ele>1709.36</ele>
        <time>2015-09-13T10:46:16Z</time>
      </trkpt>
      <trkpt lat="41.98463" lon="9.21911">
        <ele>1707.92</ele>
        <time>2015-09-13T10:46:20Z</time>
      </trkpt>
      <trkpt lat="41.9846" lon="9.21912">
        <ele>1708.4</ele>
        <time>2015-09-13T10:46:36Z</time>
      </trkpt>
      <trkpt lat="41.98453" lon="9.21912">
        <ele>1707.44</ele>
        <time>2015-09-13T10:46:52Z</time>
      </trkpt>
      <trkpt lat="41.9845" lon="9.21911">
        <ele>1709.36</ele>
        <time>2015-09-13T10:46:59Z</time>
      </trkpt>
      <trkpt lat="41.98448" lon="9.2191">
        <ele>1709.36</ele>
        <time>2015-09-13T10:47:06Z</time>
      </trkpt>
      <trkpt lat="41.98445" lon="9.21914">
        <ele>1709.36</ele>
        <time>2015-09-13T10:47:17Z</time>
      </trkpt>
      <trkpt lat="41.98443" lon="9.21915">
        <ele>1707.92</ele>
        <time>2015-09-13T10:47:21Z</time>
      </trkpt>
      <trkpt lat="41.98434" lon="9.21913">
        <ele>1705.52</ele>
        <time>2015-09-13T10:47:37Z</time>
      </trkpt>
      <trkpt lat="41.98425" lon="9.21918">
        <ele>1705.52</ele>
        <time>2015-09-13T10:47:53Z</time>
      </trkpt>
      <trkpt lat="41.9842" lon="9.2192">
        <ele>1705.04</ele>
        <time>2015-09-13T10:48:09Z</time>
      </trkpt>
      <trkpt lat="41.98417" lon="9.21919">
        <ele>1706.48</ele>
        <time>2015-09-13T10:48:15Z</time>
      </trkpt>
      <trkpt lat="41.98407" lon="9.21914">
        <ele>1707.92</ele>
        <time>2015-09-13T10:48:34Z</time>
      </trkpt>
      <trkpt lat="41.98404" lon="9.21916">
        <ele>1709.36</ele>
        <time>2015-09-13T10:48:53Z</time>
      </trkpt>
      <trkpt lat="41.98403" lon="9.21918">
        <ele>1711.28</ele>
        <time>2015-09-13T10:49:11Z</time>
      </trkpt>
      <trkpt lat="41.98396" lon="9.21918">
        <ele>1712.73</ele>
        <time>2015-09-13T10:49:26Z</time>
      </trkpt>
      <trkpt lat="41.98389" lon="9.21919">
        <ele>1714.17</ele>
        <time>2015-09-13T10:49:39Z</time>
      </trkpt>
      <trkpt lat="41.98384" lon="9.21918">
        <ele>1713.21</ele>
        <time>2015-09-13T10:49:52Z</time>
      </trkpt>
      <trkpt lat="41.98382" lon="9.21918">
        <ele>1711.76</ele>
        <time>2015-09-13T10:49:58Z</time>
      </trkpt>
      <trkpt lat="41.98376" lon="9.21921">
        <ele>1711.28</ele>
        <time>2015-09-13T10:50:11Z</time>
      </trkpt>
      <trkpt lat="41.98371" lon="9.21933">
        <ele>1710.8</ele>
        <time>2015-09-13T10:50:27Z</time>
      </trkpt>
      <trkpt lat="41.98371" lon="9.2194">
        <ele>1709.36</ele>
        <time>2015-09-13T10:50:46Z</time>
      </trkpt>
      <trkpt lat="41.98364" lon="9.21945">
        <ele>1707.92</ele>
        <time>2015-09-13T10:51:05Z</time>
      </trkpt>
      <trkpt lat="41.98358" lon="9.21947">
        <ele>1704.55</ele>
        <time>2015-09-13T10:51:22Z</time>
      </trkpt>
      <trkpt lat="41.98353" lon="9.21953">
        <ele>1703.11</ele>
        <time>2015-09-13T10:51:37Z</time>
      </trkpt>
      <trkpt lat="41.98348" lon="9.21957">
        <ele>1700.71</ele>
        <time>2015-09-13T10:51:49Z</time>
      </trkpt>
      <trkpt lat="41.98344" lon="9.21958">
        <ele>1700.71</ele>
        <time>2015-09-13T10:51:53Z</time>
      </trkpt>
      <trkpt lat="41.98342" lon="9.21957">
        <ele>1700.71</ele>
        <time>2015-09-13T10:51:55Z</time>
      </trkpt>
      <trkpt lat="41.98327" lon="9.21955">
        <ele>1699.75</ele>
        <time>2015-09-13T10:52:14Z</time>
      </trkpt>
      <trkpt lat="41.98324" lon="9.21955">
        <ele>1701.19</ele>
        <time>2015-09-13T10:52:18Z</time>
      </trkpt>
      <trkpt lat="41.98323" lon="9.21953">
        <ele>1702.63</ele>
        <time>2015-09-13T10:52:22Z</time>
      </trkpt>
      <trkpt lat="41.98316" lon="9.21955">
        <ele>1703.11</ele>
        <time>2015-09-13T10:52:37Z</time>
      </trkpt>
      <trkpt lat="41.98312" lon="9.21959">
        <ele>1705.52</ele>
        <time>2015-09-13T10:52:53Z</time>
      </trkpt>
      <trkpt lat="41.98308" lon="9.21957">
        <ele>1706.48</ele>
        <time>2015-09-13T10:53:08Z</time>
      </trkpt>
      <trkpt lat="41.983" lon="9.21953">
        <ele>1708.4</ele>
        <time>2015-09-13T10:53:27Z</time>
      </trkpt>
      <trkpt lat="41.98296" lon="9.21949">
        <ele>1709.36</ele>
        <time>2015-09-13T10:53:40Z</time>
      </trkpt>
      <trkpt lat="41.98293" lon="9.21947">
        <ele>1709.84</ele>
        <time>2015-09-13T10:53:50Z</time>
      </trkpt>
      <trkpt lat="41.98287" lon="9.21942">
        <ele>1710.8</ele>
        <time>2015-09-13T10:54:08Z</time>
      </trkpt>
      <trkpt lat="41.98281" lon="9.21939">
        <ele>1712.73</ele>
        <time>2015-09-13T10:54:22Z</time>
      </trkpt>
      <trkpt lat="41.98274" lon="9.21937">
        <ele>1715.13</ele>
        <time>2015-09-13T10:54:41Z</time>
      </trkpt>
      <trkpt lat="41.98269" lon="9.21936">
        <ele>1717.53</ele>
        <time>2015-09-13T10:55:01Z</time>
      </trkpt>
      <trkpt lat="41.98268" lon="9.21938">
        <ele>1716.57</ele>
        <time>2015-09-13T10:55:16Z</time>
      </trkpt>
      <trkpt lat="41.98264" lon="9.2194">
        <ele>1714.65</ele>
        <time>2015-09-13T10:55:34Z</time>
      </trkpt>
      <trkpt lat="41.98263" lon="9.21943">
        <ele>1713.69</ele>
        <time>2015-09-13T10:55:41Z</time>
      </trkpt>
      <trkpt lat="41.98263" lon="9.21943">
        <ele>1713.69</ele>
        <time>2015-09-13T10:55:49Z</time>
      </trkpt>
      <trkpt lat="41.98261" lon="9.21942">
        <ele>1712.25</ele>
        <time>2015-09-13T10:55:54Z</time>
      </trkpt>
      <trkpt lat="41.98259" lon="9.21942">
        <ele>1710.32</ele>
        <time>2015-09-13T10:56:02Z</time>
      </trkpt>
      <trkpt lat="41.98255" lon="9.21942">
        <ele>1710.32</ele>
        <time>2015-09-13T10:56:16Z</time>
      </trkpt>
      <trkpt lat="41.98255" lon="9.21942">
        <ele>1708.88</ele>
        <time>2015-09-13T10:56:18Z</time>
      </trkpt>
      <trkpt lat="41.98257" lon="9.21943">
        <ele>1709.36</ele>
        <time>2015-09-13T10:56:32Z</time>
      </trkpt>
      <trkpt lat="41.98258" lon="9.21944">
        <ele>1707.92</ele>
        <time>2015-09-13T10:56:34Z</time>
      </trkpt>
      <trkpt lat="41.98257" lon="9.21941">
        <ele>1709.36</ele>
        <time>2015-09-13T10:56:46Z</time>
      </trkpt>
      <trkpt lat="41.98255" lon="9.21938">
        <ele>1706.96</ele>
        <time>2015-09-13T10:56:50Z</time>
      </trkpt>
      <trkpt lat="41.98253" lon="9.21942">
        <ele>1702.63</ele>
        <time>2015-09-13T10:57:04Z</time>
      </trkpt>
      <trkpt lat="41.98253" lon="9.21942">
        <ele>1702.63</ele>
        <time>2015-09-13T10:57:05Z</time>
      </trkpt>
      <trkpt lat="41.98252" lon="9.21943">
        <ele>1709.36</ele>
        <time>2015-09-13T10:57:06Z</time>
      </trkpt>
      <trkpt lat="41.98252" lon="9.21943">
        <ele>1705.52</ele>
        <time>2015-09-13T10:57:07Z</time>
      </trkpt>
      <trkpt lat="41.98249" lon="9.21947">
        <ele>1704.07</ele>
        <time>2015-09-13T10:57:22Z</time>
      </trkpt>
      <trkpt lat="41.98246" lon="9.21948">
        <ele>1702.63</ele>
        <time>2015-09-13T10:57:26Z</time>
      </trkpt>
      <trkpt lat="41.98243" lon="9.21956">
        <ele>1700.23</ele>
        <time>2015-09-13T10:57:41Z</time>
      </trkpt>
      <trkpt lat="41.98239" lon="9.21964">
        <ele>1700.71</ele>
        <time>2015-09-13T10:57:55Z</time>
      </trkpt>
      <trkpt lat="41.9824" lon="9.2197">
        <ele>1700.23</ele>
        <time>2015-09-13T10:58:10Z</time>
      </trkpt>
      <trkpt lat="41.9824" lon="9.2197">
        <ele>1700.23</ele>
        <time>2015-09-13T10:58:11Z</time>
      </trkpt>
      <trkpt lat="41.98235" lon="9.21974">
        <ele>1698.31</ele>
        <time>2015-09-13T10:58:21Z</time>
      </trkpt>
      <trkpt lat="41.98235" lon="9.21984">
        <ele>1701.19</ele>
        <time>2015-09-13T10:58:34Z</time>
      </trkpt>
      <trkpt lat="41.98233" lon="9.21987">
        <ele>1699.27</ele>
        <time>2015-09-13T10:58:39Z</time>
      </trkpt>
      <trkpt lat="41.98227" lon="9.21995">
        <ele>1701.19</ele>
        <time>2015-09-13T10:58:54Z</time>
      </trkpt>
      <trkpt lat="41.98222" lon="9.21999">
        <ele>1702.15</ele>
        <time>2015-09-13T10:59:09Z</time>
      </trkpt>
      <trkpt lat="41.98218" lon="9.22006">
        <ele>1703.59</ele>
        <time>2015-09-13T10:59:24Z</time>
      </trkpt>
      <trkpt lat="41.98211" lon="9.22008">
        <ele>1705.52</ele>
        <time>2015-09-13T10:59:38Z</time>
      </trkpt>
      <trkpt lat="41.98209" lon="9.22015">
        <ele>1706.96</ele>
        <time>2015-09-13T10:59:54Z</time>
      </trkpt>
      <trkpt lat="41.98208" lon="9.22019">
        <ele>1707.92</ele>
        <time>2015-09-13T11:00:07Z</time>
      </trkpt>
      <trkpt lat="41.98209" lon="9.22025">
        <ele>1709.36</ele>
        <time>2015-09-13T11:00:26Z</time>
      </trkpt>
      <trkpt lat="41.98204" lon="9.22029">
        <ele>1711.28</ele>
        <time>2015-09-13T11:00:43Z</time>
      </trkpt>
      <trkpt lat="41.98197" lon="9.22035">
        <ele>1712.25</ele>
        <time>2015-09-13T11:00:59Z</time>
      </trkpt>
      <trkpt lat="41.9819" lon="9.2204">
        <ele>1713.69</ele>
        <time>2015-09-13T11:01:14Z</time>
      </trkpt>
      <trkpt lat="41.98188" lon="9.22042">
        <ele>1712.25</ele>
        <time>2015-09-13T11:01:20Z</time>
      </trkpt>
      <trkpt lat="41.9818" lon="9.22041">
        <ele>1710.32</ele>
        <time>2015-09-13T11:01:36Z</time>
      </trkpt>
      <trkpt lat="41.98173" lon="9.22046">
        <ele>1707.44</ele>
        <time>2015-09-13T11:01:52Z</time>
      </trkpt>
      <trkpt lat="41.98166" lon="9.22044">
        <ele>1706</ele>
        <time>2015-09-13T11:02:07Z</time>
      </trkpt>
      <trkpt lat="41.9816" lon="9.22045">
        <ele>1704.55</ele>
        <time>2015-09-13T11:02:21Z</time>
      </trkpt>
      <trkpt lat="41.98157" lon="9.22051">
        <ele>1702.63</ele>
        <time>2015-09-13T11:02:36Z</time>
      </trkpt>
      <trkpt lat="41.98154" lon="9.22054">
        <ele>1701.19</ele>
        <time>2015-09-13T11:02:50Z</time>
      </trkpt>
      <trkpt lat="41.98152" lon="9.2206">
        <ele>1699.27</ele>
        <time>2015-09-13T11:03:06Z</time>
      </trkpt>
      <trkpt lat="41.98147" lon="9.22067">
        <ele>1698.79</ele>
        <time>2015-09-13T11:03:22Z</time>
      </trkpt>
      <trkpt lat="41.98145" lon="9.22073">
        <ele>1696.38</ele>
        <time>2015-09-13T11:03:37Z</time>
      </trkpt>
      <trkpt lat="41.98143" lon="9.22074">
        <ele>1694.94</ele>
        <time>2015-09-13T11:03:42Z</time>
      </trkpt>
      <trkpt lat="41.98138" lon="9.2208">
        <ele>1693.02</ele>
        <time>2015-09-13T11:03:55Z</time>
      </trkpt>
      <trkpt lat="41.98133" lon="9.22089">
        <ele>1692.06</ele>
        <time>2015-09-13T11:04:11Z</time>
      </trkpt>
      <trkpt lat="41.98128" lon="9.22094">
        <ele>1689.65</ele>
        <time>2015-09-13T11:04:22Z</time>
      </trkpt>
      <trkpt lat="41.98123" lon="9.22101">
        <ele>1688.69</ele>
        <time>2015-09-13T11:04:31Z</time>
      </trkpt>
      <trkpt lat="41.98119" lon="9.22108">
        <ele>1686.29</ele>
        <time>2015-09-13T11:04:49Z</time>
      </trkpt>
      <trkpt lat="41.98116" lon="9.2211">
        <ele>1684.85</ele>
        <time>2015-09-13T11:04:57Z</time>
      </trkpt>
      <trkpt lat="41.98112" lon="9.22118">
        <ele>1682.44</ele>
        <time>2015-09-13T11:05:13Z</time>
      </trkpt>
      <trkpt lat="41.9811" lon="9.22121">
        <ele>1682.44</ele>
        <time>2015-09-13T11:05:19Z</time>
      </trkpt>
      <trkpt lat="41.98106" lon="9.22124">
        <ele>1680.04</ele>
        <time>2015-09-13T11:05:31Z</time>
      </trkpt>
      <trkpt lat="41.98103" lon="9.22123">
        <ele>1677.16</ele>
        <time>2015-09-13T11:05:42Z</time>
      </trkpt>
      <trkpt lat="41.98102" lon="9.22122">
        <ele>1678.6</ele>
        <time>2015-09-13T11:05:49Z</time>
      </trkpt>
      <trkpt lat="41.98101" lon="9.22121">
        <ele>1675.72</ele>
        <time>2015-09-13T11:05:51Z</time>
      </trkpt>
      <trkpt lat="41.98101" lon="9.22122">
        <ele>1679.56</ele>
        <time>2015-09-13T11:05:52Z</time>
      </trkpt>
      <trkpt lat="41.98101" lon="9.22122">
        <ele>1677.64</ele>
        <time>2015-09-13T11:05:53Z</time>
      </trkpt>
      <trkpt lat="41.98097" lon="9.22123">
        <ele>1674.75</ele>
        <time>2015-09-13T11:06:10Z</time>
      </trkpt>
      <trkpt lat="41.98095" lon="9.22123">
        <ele>1671.87</ele>
        <time>2015-09-13T11:06:19Z</time>
      </trkpt>
      <trkpt lat="41.98094" lon="9.22122">
        <ele>1675.23</ele>
        <time>2015-09-13T11:06:21Z</time>
      </trkpt>
      <trkpt lat="41.98094" lon="9.22121">
        <ele>1670.43</ele>
        <time>2015-09-13T11:06:23Z</time>
      </trkpt>
      <trkpt lat="41.98094" lon="9.22121">
        <ele>1670.43</ele>
        <time>2015-09-13T11:06:24Z</time>
      </trkpt>
      <trkpt lat="41.98094" lon="9.22118">
        <ele>1672.83</ele>
        <time>2015-09-13T11:06:28Z</time>
      </trkpt>
      <trkpt lat="41.98091" lon="9.22113">
        <ele>1669.47</ele>
        <time>2015-09-13T11:06:40Z</time>
      </trkpt>
      <trkpt lat="41.98091" lon="9.22113">
        <ele>1669.47</ele>
        <time>2015-09-13T11:06:41Z</time>
      </trkpt>
      <trkpt lat="41.98089" lon="9.22114">
        <ele>1670.43</ele>
        <time>2015-09-13T11:06:46Z</time>
      </trkpt>
      <trkpt lat="41.98089" lon="9.22114">
        <ele>1668.99</ele>
        <time>2015-09-13T11:06:48Z</time>
      </trkpt>
      <trkpt lat="41.98087" lon="9.22113">
        <ele>1667.06</ele>
        <time>2015-09-13T11:06:52Z</time>
      </trkpt>
      <trkpt lat="41.98087" lon="9.22115">
        <ele>1668.02</ele>
        <time>2015-09-13T11:06:56Z</time>
      </trkpt>
      <trkpt lat="41.98085" lon="9.22115">
        <ele>1665.62</ele>
        <time>2015-09-13T11:07:00Z</time>
      </trkpt>
      <trkpt lat="41.98083" lon="9.22115">
        <ele>1666.1</ele>
        <time>2015-09-13T11:07:06Z</time>
      </trkpt>
      <trkpt lat="41.98082" lon="9.22116">
        <ele>1665.14</ele>
        <time>2015-09-13T11:07:12Z</time>
      </trkpt>
      <trkpt lat="41.98077" lon="9.22122">
        <ele>1663.22</ele>
        <time>2015-09-13T11:07:29Z</time>
      </trkpt>
      <trkpt lat="41.98072" lon="9.22124">
        <ele>1660.81</ele>
        <time>2015-09-13T11:07:37Z</time>
      </trkpt>
      <trkpt lat="41.98064" lon="9.2213">
        <ele>1659.85</ele>
        <time>2015-09-13T11:07:53Z</time>
      </trkpt>
      <trkpt lat="41.98063" lon="9.2213">
        <ele>1658.41</ele>
        <time>2015-09-13T11:07:55Z</time>
      </trkpt>
      <trkpt lat="41.98062" lon="9.22131">
        <ele>1660.33</ele>
        <time>2015-09-13T11:07:57Z</time>
      </trkpt>
      <trkpt lat="41.98057" lon="9.22135">
        <ele>1660.33</ele>
        <time>2015-09-13T11:08:05Z</time>
      </trkpt>
      <trkpt lat="41.9805" lon="9.22141">
        <ele>1660.81</ele>
        <time>2015-09-13T11:08:16Z</time>
      </trkpt>
      <trkpt lat="41.98042" lon="9.22149">
        <ele>1660.33</ele>
        <time>2015-09-13T11:08:31Z</time>
      </trkpt>
      <trkpt lat="41.9804" lon="9.22148">
        <ele>1658.41</ele>
        <time>2015-09-13T11:08:34Z</time>
      </trkpt>
      <trkpt lat="41.98038" lon="9.22148">
        <ele>1660.33</ele>
        <time>2015-09-13T11:08:36Z</time>
      </trkpt>
      <trkpt lat="41.98036" lon="9.22147">
        <ele>1657.45</ele>
        <time>2015-09-13T11:08:39Z</time>
      </trkpt>
      <trkpt lat="41.98031" lon="9.22147">
        <ele>1658.41</ele>
        <time>2015-09-13T11:08:48Z</time>
      </trkpt>
      <trkpt lat="41.9803" lon="9.22146">
        <ele>1656.01</ele>
        <time>2015-09-13T11:08:51Z</time>
      </trkpt>
      <trkpt lat="41.98029" lon="9.22145">
        <ele>1657.45</ele>
        <time>2015-09-13T11:08:53Z</time>
      </trkpt>
      <trkpt lat="41.98025" lon="9.22145">
        <ele>1654.09</ele>
        <time>2015-09-13T11:08:58Z</time>
      </trkpt>
      <trkpt lat="41.98025" lon="9.22144">
        <ele>1654.09</ele>
        <time>2015-09-13T11:08:59Z</time>
      </trkpt>
      <trkpt lat="41.98023" lon="9.22142">
        <ele>1653.12</ele>
        <time>2015-09-13T11:09:01Z</time>
      </trkpt>
      <trkpt lat="41.98022" lon="9.22142">
        <ele>1652.64</ele>
        <time>2015-09-13T11:09:03Z</time>
      </trkpt>
      <trkpt lat="41.98012" lon="9.22134">
        <ele>1651.2</ele>
        <time>2015-09-13T11:09:20Z</time>
      </trkpt>
      <trkpt lat="41.98004" lon="9.22131">
        <ele>1650.24</ele>
        <time>2015-09-13T11:09:34Z</time>
      </trkpt>
      <trkpt lat="41.97997" lon="9.22128">
        <ele>1647.84</ele>
        <time>2015-09-13T11:09:47Z</time>
      </trkpt>
      <trkpt lat="41.97988" lon="9.22131">
        <ele>1645.91</ele>
        <time>2015-09-13T11:10:03Z</time>
      </trkpt>
      <trkpt lat="41.97979" lon="9.22127">
        <ele>1643.51</ele>
        <time>2015-09-13T11:10:20Z</time>
      </trkpt>
      <trkpt lat="41.97976" lon="9.22125">
        <ele>1643.03</ele>
        <time>2015-09-13T11:10:24Z</time>
      </trkpt>
      <trkpt lat="41.97962" lon="9.22119">
        <ele>1641.59</ele>
        <time>2015-09-13T11:10:42Z</time>
      </trkpt>
      <trkpt lat="41.97953" lon="9.2212">
        <ele>1640.15</ele>
        <time>2015-09-13T11:10:53Z</time>
      </trkpt>
      <trkpt lat="41.97939" lon="9.22118">
        <ele>1639.67</ele>
        <time>2015-09-13T11:11:11Z</time>
      </trkpt>
      <trkpt lat="41.97928" lon="9.22115">
        <ele>1638.7</ele>
        <time>2015-09-13T11:11:29Z</time>
      </trkpt>
      <trkpt lat="41.97918" lon="9.22116">
        <ele>1637.74</ele>
        <time>2015-09-13T11:11:45Z</time>
      </trkpt>
      <trkpt lat="41.97912" lon="9.22121">
        <ele>1637.74</ele>
        <time>2015-09-13T11:11:52Z</time>
      </trkpt>
      <trkpt lat="41.97899" lon="9.22128">
        <ele>1636.3</ele>
        <time>2015-09-13T11:12:10Z</time>
      </trkpt>
      <trkpt lat="41.97898" lon="9.22126">
        <ele>1636.3</ele>
        <time>2015-09-13T11:12:12Z</time>
      </trkpt>
      <trkpt lat="41.97883" lon="9.22129">
        <ele>1635.82</ele>
        <time>2015-09-13T11:12:30Z</time>
      </trkpt>
      <trkpt lat="41.97876" lon="9.22135">
        <ele>1635.82</ele>
        <time>2015-09-13T11:12:44Z</time>
      </trkpt>
      <trkpt lat="41.97876" lon="9.22135">
        <ele>1635.82</ele>
        <time>2015-09-13T11:12:45Z</time>
      </trkpt>
      <trkpt lat="41.9787" lon="9.22138">
        <ele>1637.26</ele>
        <time>2015-09-13T11:12:53Z</time>
      </trkpt>
      <trkpt lat="41.97868" lon="9.22139">
        <ele>1637.26</ele>
        <time>2015-09-13T11:12:56Z</time>
      </trkpt>
      <trkpt lat="41.97862" lon="9.22143">
        <ele>1637.26</ele>
        <time>2015-09-13T11:13:04Z</time>
      </trkpt>
      <trkpt lat="41.9786" lon="9.22143">
        <ele>1637.26</ele>
        <time>2015-09-13T11:13:06Z</time>
      </trkpt>
      <trkpt lat="41.97849" lon="9.22148">
        <ele>1637.74</ele>
        <time>2015-09-13T11:13:19Z</time>
      </trkpt>
      <trkpt lat="41.97838" lon="9.22153">
        <ele>1638.22</ele>
        <time>2015-09-13T11:13:34Z</time>
      </trkpt>
      <trkpt lat="41.97828" lon="9.22158">
        <ele>1638.22</ele>
        <time>2015-09-13T11:13:46Z</time>
      </trkpt>
      <trkpt lat="41.97826" lon="9.22159">
        <ele>1638.22</ele>
        <time>2015-09-13T11:13:49Z</time>
      </trkpt>
      <trkpt lat="41.97824" lon="9.22159">
        <ele>1638.22</ele>
        <time>2015-09-13T11:13:51Z</time>
      </trkpt>
      <trkpt lat="41.9781" lon="9.22165">
        <ele>1638.22</ele>
        <time>2015-09-13T11:14:08Z</time>
      </trkpt>
      <trkpt lat="41.97802" lon="9.22164">
        <ele>1634.86</ele>
        <time>2015-09-13T11:14:21Z</time>
      </trkpt>
      <trkpt lat="41.97791" lon="9.22159">
        <ele>1632.46</ele>
        <time>2015-09-13T11:14:37Z</time>
      </trkpt>
      <trkpt lat="41.97784" lon="9.22153">
        <ele>1629.57</ele>
        <time>2015-09-13T11:14:49Z</time>
      </trkpt>
      <trkpt lat="41.97777" lon="9.2214">
        <ele>1627.65</ele>
        <time>2015-09-13T11:15:05Z</time>
      </trkpt>
      <trkpt lat="41.97766" lon="9.2213">
        <ele>1626.21</ele>
        <time>2015-09-13T11:15:21Z</time>
      </trkpt>
      <trkpt lat="41.97755" lon="9.22122">
        <ele>1624.77</ele>
        <time>2015-09-13T11:15:37Z</time>
      </trkpt>
      <trkpt lat="41.97742" lon="9.22117">
        <ele>1621.4</ele>
        <time>2015-09-13T11:15:54Z</time>
      </trkpt>
      <trkpt lat="41.97737" lon="9.22115">
        <ele>1620.44</ele>
        <time>2015-09-13T11:16:00Z</time>
      </trkpt>
      <trkpt lat="41.97728" lon="9.22117">
        <ele>1619.48</ele>
        <time>2015-09-13T11:16:12Z</time>
      </trkpt>
      <trkpt lat="41.97715" lon="9.22118">
        <ele>1618.04</ele>
        <time>2015-09-13T11:16:27Z</time>
      </trkpt>
      <trkpt lat="41.97702" lon="9.22124">
        <ele>1619</ele>
        <time>2015-09-13T11:16:42Z</time>
      </trkpt>
      <trkpt lat="41.97692" lon="9.22133">
        <ele>1617.07</ele>
        <time>2015-09-13T11:16:58Z</time>
      </trkpt>
      <trkpt lat="41.97686" lon="9.22134">
        <ele>1618.52</ele>
        <time>2015-09-13T11:17:04Z</time>
      </trkpt>
      <trkpt lat="41.97681" lon="9.22137">
        <ele>1619</ele>
        <time>2015-09-13T11:17:11Z</time>
      </trkpt>
      <trkpt lat="41.97668" lon="9.2215">
        <ele>1618.52</ele>
        <time>2015-09-13T11:17:29Z</time>
      </trkpt>
      <trkpt lat="41.97663" lon="9.22154">
        <ele>1619.48</ele>
        <time>2015-09-13T11:17:35Z</time>
      </trkpt>
      <trkpt lat="41.97653" lon="9.22158">
        <ele>1619.48</ele>
        <time>2015-09-13T11:17:46Z</time>
      </trkpt>
      <trkpt lat="41.97642" lon="9.22167">
        <ele>1619.48</ele>
        <time>2015-09-13T11:17:59Z</time>
      </trkpt>
      <trkpt lat="41.97641" lon="9.22169">
        <ele>1618.52</ele>
        <time>2015-09-13T11:18:01Z</time>
      </trkpt>
      <trkpt lat="41.97639" lon="9.22169">
        <ele>1618.52</ele>
        <time>2015-09-13T11:18:03Z</time>
      </trkpt>
      <trkpt lat="41.97633" lon="9.22168">
        <ele>1618.52</ele>
        <time>2015-09-13T11:18:10Z</time>
      </trkpt>
      <trkpt lat="41.97616" lon="9.22176">
        <ele>1618.04</ele>
        <time>2015-09-13T11:18:29Z</time>
      </trkpt>
      <trkpt lat="41.97611" lon="9.22176">
        <ele>1618.04</ele>
        <time>2015-09-13T11:18:34Z</time>
      </trkpt>
      <trkpt lat="41.97605" lon="9.22179">
        <ele>1618.04</ele>
        <time>2015-09-13T11:18:42Z</time>
      </trkpt>
      <trkpt lat="41.97596" lon="9.22184">
        <ele>1619.48</ele>
        <time>2015-09-13T11:18:56Z</time>
      </trkpt>
      <trkpt lat="41.97586" lon="9.22186">
        <ele>1619.96</ele>
        <time>2015-09-13T11:19:09Z</time>
      </trkpt>
      <trkpt lat="41.97585" lon="9.22186">
        <ele>1620.44</ele>
        <time>2015-09-13T11:19:10Z</time>
      </trkpt>
      <trkpt lat="41.97573" lon="9.22189">
        <ele>1620.44</ele>
        <time>2015-09-13T11:19:27Z</time>
      </trkpt>
      <trkpt lat="41.97563" lon="9.22196">
        <ele>1620.44</ele>
        <time>2015-09-13T11:19:42Z</time>
      </trkpt>
      <trkpt lat="41.97555" lon="9.222">
        <ele>1620.44</ele>
        <time>2015-09-13T11:19:55Z</time>
      </trkpt>
      <trkpt lat="41.97547" lon="9.22205">
        <ele>1620.44</ele>
        <time>2015-09-13T11:20:10Z</time>
      </trkpt>
      <trkpt lat="41.97539" lon="9.22207">
        <ele>1619</ele>
        <time>2015-09-13T11:20:21Z</time>
      </trkpt>
      <trkpt lat="41.97537" lon="9.22207">
        <ele>1619</ele>
        <time>2015-09-13T11:20:23Z</time>
      </trkpt>
      <trkpt lat="41.97529" lon="9.2221">
        <ele>1619</ele>
        <time>2015-09-13T11:20:35Z</time>
      </trkpt>
      <trkpt lat="41.97526" lon="9.22211">
        <ele>1620.44</ele>
        <time>2015-09-13T11:20:41Z</time>
      </trkpt>
      <trkpt lat="41.97515" lon="9.22214">
        <ele>1620.92</ele>
        <time>2015-09-13T11:20:56Z</time>
      </trkpt>
      <trkpt lat="41.97502" lon="9.22216">
        <ele>1621.88</ele>
        <time>2015-09-13T11:21:13Z</time>
      </trkpt>
      <trkpt lat="41.97497" lon="9.22218">
        <ele>1621.88</ele>
        <time>2015-09-13T11:21:20Z</time>
      </trkpt>
      <trkpt lat="41.97492" lon="9.2222">
        <ele>1620.44</ele>
        <time>2015-09-13T11:21:27Z</time>
      </trkpt>
      <trkpt lat="41.9748" lon="9.22224">
        <ele>1619.96</ele>
        <time>2015-09-13T11:21:44Z</time>
      </trkpt>
      <trkpt lat="41.97473" lon="9.22226">
        <ele>1621.4</ele>
        <time>2015-09-13T11:21:56Z</time>
      </trkpt>
      <trkpt lat="41.97463" lon="9.22228">
        <ele>1621.88</ele>
        <time>2015-09-13T11:22:11Z</time>
      </trkpt>
      <trkpt lat="41.97455" lon="9.22234">
        <ele>1622.36</ele>
        <time>2015-09-13T11:22:25Z</time>
      </trkpt>
      <trkpt lat="41.97448" lon="9.22234">
        <ele>1624.77</ele>
        <time>2015-09-13T11:22:40Z</time>
      </trkpt>
      <trkpt lat="41.97443" lon="9.22234">
        <ele>1626.21</ele>
        <time>2015-09-13T11:22:55Z</time>
      </trkpt>
      <trkpt lat="41.97433" lon="9.2224">
        <ele>1627.65</ele>
        <time>2015-09-13T11:23:13Z</time>
      </trkpt>
      <trkpt lat="41.97425" lon="9.22248">
        <ele>1628.13</ele>
        <time>2015-09-13T11:23:31Z</time>
      </trkpt>
      <trkpt lat="41.97415" lon="9.22257">
        <ele>1629.57</ele>
        <time>2015-09-13T11:23:52Z</time>
      </trkpt>
      <trkpt lat="41.97407" lon="9.22264">
        <ele>1631.98</ele>
        <time>2015-09-13T11:24:09Z</time>
      </trkpt>
      <trkpt lat="41.97399" lon="9.22269">
        <ele>1632.94</ele>
        <time>2015-09-13T11:24:28Z</time>
      </trkpt>
      <trkpt lat="41.97385" lon="9.22285">
        <ele>1632.94</ele>
        <time>2015-09-13T11:24:48Z</time>
      </trkpt>
      <trkpt lat="41.97377" lon="9.22295">
        <ele>1633.42</ele>
        <time>2015-09-13T11:25:07Z</time>
      </trkpt>
      <trkpt lat="41.97373" lon="9.22304">
        <ele>1633.9</ele>
        <time>2015-09-13T11:25:31Z</time>
      </trkpt>
      <trkpt lat="41.97374" lon="9.22303">
        <ele>1633.9</ele>
        <time>2015-09-13T11:26:03Z</time>
      </trkpt>
      <trkpt lat="41.97373" lon="9.22306">
        <ele>1633.9</ele>
        <time>2015-09-13T11:26:41Z</time>
      </trkpt>
      <trkpt lat="41.97371" lon="9.22308">
        <ele>1633.42</ele>
        <time>2015-09-13T11:27:08Z</time>
      </trkpt>
      <trkpt lat="41.97372" lon="9.22301">
        <ele>1633.9</ele>
        <time>2015-09-13T11:27:43Z</time>
      </trkpt>
      <trkpt lat="41.97371" lon="9.22302">
        <ele>1633.9</ele>
        <time>2015-09-13T11:28:16Z</time>
      </trkpt>
      <trkpt lat="41.9737" lon="9.22302">
        <ele>1634.38</ele>
        <time>2015-09-13T11:28:44Z</time>
      </trkpt>
      <trkpt lat="41.97364" lon="9.22307">
        <ele>1636.78</ele>
        <time>2015-09-13T11:29:03Z</time>
      </trkpt>
      <trkpt lat="41.97357" lon="9.22313">
        <ele>1638.7</ele>
        <time>2015-09-13T11:29:19Z</time>
      </trkpt>
      <trkpt lat="41.97348" lon="9.2232">
        <ele>1640.63</ele>
        <time>2015-09-13T11:29:35Z</time>
      </trkpt>
      <trkpt lat="41.97341" lon="9.22328">
        <ele>1642.07</ele>
        <time>2015-09-13T11:29:50Z</time>
      </trkpt>
      <trkpt lat="41.97333" lon="9.22329">
        <ele>1644.47</ele>
        <time>2015-09-13T11:30:07Z</time>
      </trkpt>
      <trkpt lat="41.97325" lon="9.22324">
        <ele>1646.88</ele>
        <time>2015-09-13T11:30:27Z</time>
      </trkpt>
      <trkpt lat="41.97317" lon="9.22326">
        <ele>1646.88</ele>
        <time>2015-09-13T11:30:41Z</time>
      </trkpt>
      <trkpt lat="41.97312" lon="9.22329">
        <ele>1648.8</ele>
        <time>2015-09-13T11:30:47Z</time>
      </trkpt>
      <trkpt lat="41.97305" lon="9.22336">
        <ele>1649.76</ele>
        <time>2015-09-13T11:31:00Z</time>
      </trkpt>
      <trkpt lat="41.97302" lon="9.22341">
        <ele>1652.64</ele>
        <time>2015-09-13T11:31:05Z</time>
      </trkpt>
      <trkpt lat="41.97298" lon="9.22349">
        <ele>1648.8</ele>
        <time>2015-09-13T11:31:13Z</time>
      </trkpt>
      <trkpt lat="41.97298" lon="9.22349">
        <ele>1648.32</ele>
        <time>2015-09-13T11:31:14Z</time>
      </trkpt>
      <trkpt lat="41.9729" lon="9.22353">
        <ele>1644.95</ele>
        <time>2015-09-13T11:31:24Z</time>
      </trkpt>
      <trkpt lat="41.97281" lon="9.22359">
        <ele>1642.55</ele>
        <time>2015-09-13T11:31:34Z</time>
      </trkpt>
      <trkpt lat="41.97273" lon="9.22364">
        <ele>1643.03</ele>
        <time>2015-09-13T11:31:44Z</time>
      </trkpt>
      <trkpt lat="41.97271" lon="9.22367">
        <ele>1640.63</ele>
        <time>2015-09-13T11:31:48Z</time>
      </trkpt>
      <trkpt lat="41.97268" lon="9.22368">
        <ele>1639.67</ele>
        <time>2015-09-13T11:31:52Z</time>
      </trkpt>
      <trkpt lat="41.97266" lon="9.2237">
        <ele>1642.55</ele>
        <time>2015-09-13T11:31:54Z</time>
      </trkpt>
      <trkpt lat="41.97265" lon="9.22372">
        <ele>1640.63</ele>
        <time>2015-09-13T11:31:56Z</time>
      </trkpt>
      <trkpt lat="41.97262" lon="9.22374">
        <ele>1641.59</ele>
        <time>2015-09-13T11:32:00Z</time>
      </trkpt>
      <trkpt lat="41.97261" lon="9.22375">
        <ele>1640.15</ele>
        <time>2015-09-13T11:32:02Z</time>
      </trkpt>
      <trkpt lat="41.97254" lon="9.2238">
        <ele>1637.26</ele>
        <time>2015-09-13T11:32:10Z</time>
      </trkpt>
      <trkpt lat="41.97254" lon="9.22381">
        <ele>1639.19</ele>
        <time>2015-09-13T11:32:12Z</time>
      </trkpt>
      <trkpt lat="41.97252" lon="9.22382">
        <ele>1636.78</ele>
        <time>2015-09-13T11:32:14Z</time>
      </trkpt>
      <trkpt lat="41.97248" lon="9.22384">
        <ele>1635.82</ele>
        <time>2015-09-13T11:32:19Z</time>
      </trkpt>
      <trkpt lat="41.97242" lon="9.22391">
        <ele>1634.86</ele>
        <time>2015-09-13T11:32:28Z</time>
      </trkpt>
      <trkpt lat="41.97234" lon="9.22397">
        <ele>1631.98</ele>
        <time>2015-09-13T11:32:38Z</time>
      </trkpt>
      <trkpt lat="41.97228" lon="9.224">
        <ele>1633.9</ele>
        <time>2015-09-13T11:32:47Z</time>
      </trkpt>
      <trkpt lat="41.97227" lon="9.22401">
        <ele>1631.98</ele>
        <time>2015-09-13T11:32:49Z</time>
      </trkpt>
      <trkpt lat="41.97223" lon="9.22403">
        <ele>1631.98</ele>
        <time>2015-09-13T11:32:54Z</time>
      </trkpt>
      <trkpt lat="41.9722" lon="9.22403">
        <ele>1631.49</ele>
        <time>2015-09-13T11:32:58Z</time>
      </trkpt>
      <trkpt lat="41.97213" lon="9.22409">
        <ele>1629.57</ele>
        <time>2015-09-13T11:33:06Z</time>
      </trkpt>
      <trkpt lat="41.97212" lon="9.22409">
        <ele>1629.57</ele>
        <time>2015-09-13T11:33:07Z</time>
      </trkpt>
      <trkpt lat="41.9721" lon="9.2241">
        <ele>1629.09</ele>
        <time>2015-09-13T11:33:09Z</time>
      </trkpt>
      <trkpt lat="41.97204" lon="9.22416">
        <ele>1629.57</ele>
        <time>2015-09-13T11:33:19Z</time>
      </trkpt>
      <trkpt lat="41.97203" lon="9.22417">
        <ele>1628.13</ele>
        <time>2015-09-13T11:33:21Z</time>
      </trkpt>
      <trkpt lat="41.97201" lon="9.22417">
        <ele>1627.65</ele>
        <time>2015-09-13T11:33:23Z</time>
      </trkpt>
      <trkpt lat="41.97196" lon="9.2242">
        <ele>1626.21</ele>
        <time>2015-09-13T11:33:29Z</time>
      </trkpt>
      <trkpt lat="41.97193" lon="9.22423">
        <ele>1626.21</ele>
        <time>2015-09-13T11:33:33Z</time>
      </trkpt>
      <trkpt lat="41.97183" lon="9.22433">
        <ele>1624.77</ele>
        <time>2015-09-13T11:33:48Z</time>
      </trkpt>
      <trkpt lat="41.97181" lon="9.22434">
        <ele>1623.8</ele>
        <time>2015-09-13T11:33:50Z</time>
      </trkpt>
      <trkpt lat="41.9717" lon="9.22439">
        <ele>1621.88</ele>
        <time>2015-09-13T11:34:05Z</time>
      </trkpt>
      <trkpt lat="41.97167" lon="9.22441">
        <ele>1620.44</ele>
        <time>2015-09-13T11:34:09Z</time>
      </trkpt>
      <trkpt lat="41.97161" lon="9.22445">
        <ele>1620.44</ele>
        <time>2015-09-13T11:34:17Z</time>
      </trkpt>
      <trkpt lat="41.97157" lon="9.22449">
        <ele>1621.4</ele>
        <time>2015-09-13T11:34:23Z</time>
      </trkpt>
      <trkpt lat="41.97155" lon="9.22451">
        <ele>1619.96</ele>
        <time>2015-09-13T11:34:25Z</time>
      </trkpt>
      <trkpt lat="41.97153" lon="9.22452">
        <ele>1619.48</ele>
        <time>2015-09-13T11:34:28Z</time>
      </trkpt>
      <trkpt lat="41.97142" lon="9.22454">
        <ele>1617.56</ele>
        <time>2015-09-13T11:34:43Z</time>
      </trkpt>
      <trkpt lat="41.9714" lon="9.22454">
        <ele>1617.56</ele>
        <time>2015-09-13T11:34:45Z</time>
      </trkpt>
      <trkpt lat="41.97136" lon="9.22454">
        <ele>1616.59</ele>
        <time>2015-09-13T11:34:50Z</time>
      </trkpt>
      <trkpt lat="41.97123" lon="9.22458">
        <ele>1616.11</ele>
        <time>2015-09-13T11:35:05Z</time>
      </trkpt>
      <trkpt lat="41.97118" lon="9.22462">
        <ele>1615.63</ele>
        <time>2015-09-13T11:35:15Z</time>
      </trkpt>
      <trkpt lat="41.97112" lon="9.22463">
        <ele>1613.71</ele>
        <time>2015-09-13T11:35:22Z</time>
      </trkpt>
      <trkpt lat="41.97109" lon="9.22463">
        <ele>1613.71</ele>
        <time>2015-09-13T11:35:25Z</time>
      </trkpt>
      <trkpt lat="41.97094" lon="9.22466">
        <ele>1611.79</ele>
        <time>2015-09-13T11:35:43Z</time>
      </trkpt>
      <trkpt lat="41.97093" lon="9.22467">
        <ele>1611.31</ele>
        <time>2015-09-13T11:35:45Z</time>
      </trkpt>
      <trkpt lat="41.97081" lon="9.2247">
        <ele>1608.42</ele>
        <time>2015-09-13T11:36:03Z</time>
      </trkpt>
      <trkpt lat="41.97077" lon="9.2247">
        <ele>1606.98</ele>
        <time>2015-09-13T11:36:10Z</time>
      </trkpt>
      <trkpt lat="41.97069" lon="9.22472">
        <ele>1606.5</ele>
        <time>2015-09-13T11:36:23Z</time>
      </trkpt>
      <trkpt lat="41.97067" lon="9.22472">
        <ele>1605.06</ele>
        <time>2015-09-13T11:36:27Z</time>
      </trkpt>
      <trkpt lat="41.97056" lon="9.22472">
        <ele>1602.66</ele>
        <time>2015-09-13T11:36:44Z</time>
      </trkpt>
      <trkpt lat="41.97046" lon="9.22472">
        <ele>1600.73</ele>
        <time>2015-09-13T11:37:00Z</time>
      </trkpt>
      <trkpt lat="41.97034" lon="9.22471">
        <ele>1598.81</ele>
        <time>2015-09-13T11:37:16Z</time>
      </trkpt>
      <trkpt lat="41.97023" lon="9.22469">
        <ele>1595.93</ele>
        <time>2015-09-13T11:37:32Z</time>
      </trkpt>
      <trkpt lat="41.97014" lon="9.2247">
        <ele>1595.45</ele>
        <time>2015-09-13T11:37:44Z</time>
      </trkpt>
      <trkpt lat="41.97001" lon="9.22464">
        <ele>1594.48</ele>
        <time>2015-09-13T11:38:01Z</time>
      </trkpt>
      <trkpt lat="41.96994" lon="9.2246">
        <ele>1592.56</ele>
        <time>2015-09-13T11:38:14Z</time>
      </trkpt>
      <trkpt lat="41.96984" lon="9.22455">
        <ele>1590.64</ele>
        <time>2015-09-13T11:38:30Z</time>
      </trkpt>
      <trkpt lat="41.96977" lon="9.2245">
        <ele>1587.75</ele>
        <time>2015-09-13T11:38:46Z</time>
      </trkpt>
      <trkpt lat="41.96973" lon="9.2245">
        <ele>1585.83</ele>
        <time>2015-09-13T11:39:00Z</time>
      </trkpt>
      <trkpt lat="41.96967" lon="9.22446">
        <ele>1583.91</ele>
        <time>2015-09-13T11:39:16Z</time>
      </trkpt>
      <trkpt lat="41.9696" lon="9.22449">
        <ele>1581.03</ele>
        <time>2015-09-13T11:39:34Z</time>
      </trkpt>
      <trkpt lat="41.96954" lon="9.22448">
        <ele>1580.06</ele>
        <time>2015-09-13T11:39:47Z</time>
      </trkpt>
      <trkpt lat="41.96946" lon="9.22451">
        <ele>1577.66</ele>
        <time>2015-09-13T11:40:04Z</time>
      </trkpt>
      <trkpt lat="41.96936" lon="9.22456">
        <ele>1575.26</ele>
        <time>2015-09-13T11:40:22Z</time>
      </trkpt>
      <trkpt lat="41.96926" lon="9.2246">
        <ele>1573.82</ele>
        <time>2015-09-13T11:40:37Z</time>
      </trkpt>
      <trkpt lat="41.96915" lon="9.22459">
        <ele>1571.89</ele>
        <time>2015-09-13T11:40:53Z</time>
      </trkpt>
      <trkpt lat="41.96905" lon="9.22462">
        <ele>1571.89</ele>
        <time>2015-09-13T11:41:09Z</time>
      </trkpt>
      <trkpt lat="41.96897" lon="9.22463">
        <ele>1569.97</ele>
        <time>2015-09-13T11:41:29Z</time>
      </trkpt>
      <trkpt lat="41.96884" lon="9.22459">
        <ele>1569.01</ele>
        <time>2015-09-13T11:41:44Z</time>
      </trkpt>
      <trkpt lat="41.9688" lon="9.22457">
        <ele>1568.53</ele>
        <time>2015-09-13T11:41:48Z</time>
      </trkpt>
      <trkpt lat="41.96871" lon="9.22454">
        <ele>1569.49</ele>
        <time>2015-09-13T11:42:02Z</time>
      </trkpt>
      <trkpt lat="41.96868" lon="9.2246">
        <ele>1568.53</ele>
        <time>2015-09-13T11:42:26Z</time>
      </trkpt>
      <trkpt lat="41.96869" lon="9.22462">
        <ele>1567.57</ele>
        <time>2015-09-13T11:42:57Z</time>
      </trkpt>
      <trkpt lat="41.96868" lon="9.22461">
        <ele>1569.49</ele>
        <time>2015-09-13T11:42:59Z</time>
      </trkpt>
      <trkpt lat="41.96868" lon="9.22459">
        <ele>1567.57</ele>
        <time>2015-09-13T11:43:31Z</time>
      </trkpt>
      <trkpt lat="41.96869" lon="9.22459">
        <ele>1568.53</ele>
        <time>2015-09-13T11:44:01Z</time>
      </trkpt>
      <trkpt lat="41.96869" lon="9.22457">
        <ele>1568.53</ele>
        <time>2015-09-13T11:44:26Z</time>
      </trkpt>
      <trkpt lat="41.96866" lon="9.22462">
        <ele>1569.49</ele>
        <time>2015-09-13T11:44:56Z</time>
      </trkpt>
      <trkpt lat="41.96863" lon="9.22459">
        <ele>1569.97</ele>
        <time>2015-09-13T11:45:29Z</time>
      </trkpt>
      <trkpt lat="41.96866" lon="9.2246">
        <ele>1569.49</ele>
        <time>2015-09-13T11:46:02Z</time>
      </trkpt>
      <trkpt lat="41.96865" lon="9.22457">
        <ele>1569.01</ele>
        <time>2015-09-13T11:46:18Z</time>
      </trkpt>
      <trkpt lat="41.96859" lon="9.22455">
        <ele>1568.53</ele>
        <time>2015-09-13T11:46:52Z</time>
      </trkpt>
      <trkpt lat="41.96836" lon="9.22457">
        <ele>1566.61</ele>
        <time>2015-09-13T11:47:19Z</time>
      </trkpt>
      <trkpt lat="41.96825" lon="9.2245">
        <ele>1565.16</ele>
        <time>2015-09-13T11:47:34Z</time>
      </trkpt>
      <trkpt lat="41.96824" lon="9.2245">
        <ele>1563.72</ele>
        <time>2015-09-13T11:47:36Z</time>
      </trkpt>
      <trkpt lat="41.96799" lon="9.22439">
        <ele>1563.24</ele>
        <time>2015-09-13T11:48:00Z</time>
      </trkpt>
      <trkpt lat="41.96783" lon="9.22439">
        <ele>1563.72</ele>
        <time>2015-09-13T11:48:22Z</time>
      </trkpt>
      <trkpt lat="41.96769" lon="9.22436">
        <ele>1562.76</ele>
        <time>2015-09-13T11:48:38Z</time>
      </trkpt>
      <trkpt lat="41.96764" lon="9.22433">
        <ele>1563.24</ele>
        <time>2015-09-13T11:48:43Z</time>
      </trkpt>
      <trkpt lat="41.96745" lon="9.22421">
        <ele>1560.36</ele>
        <time>2015-09-13T11:49:08Z</time>
      </trkpt>
      <trkpt lat="41.96727" lon="9.22412">
        <ele>1560.84</ele>
        <time>2015-09-13T11:49:33Z</time>
      </trkpt>
      <trkpt lat="41.96725" lon="9.22411">
        <ele>1559.4</ele>
        <time>2015-09-13T11:49:37Z</time>
      </trkpt>
      <trkpt lat="41.96712" lon="9.22405">
        <ele>1557.47</ele>
        <time>2015-09-13T11:49:48Z</time>
      </trkpt>
      <trkpt lat="41.96693" lon="9.22387">
        <ele>1556.03</ele>
        <time>2015-09-13T11:50:14Z</time>
      </trkpt>
      <trkpt lat="41.96678" lon="9.22382">
        <ele>1553.15</ele>
        <time>2015-09-13T11:50:35Z</time>
      </trkpt>
      <trkpt lat="41.96661" lon="9.22382">
        <ele>1551.22</ele>
        <time>2015-09-13T11:50:54Z</time>
      </trkpt>
      <trkpt lat="41.96643" lon="9.22384">
        <ele>1548.34</ele>
        <time>2015-09-13T11:51:13Z</time>
      </trkpt>
      <trkpt lat="41.96636" lon="9.22387">
        <ele>1544.98</ele>
        <time>2015-09-13T11:51:30Z</time>
      </trkpt>
      <trkpt lat="41.96631" lon="9.22385">
        <ele>1544.98</ele>
        <time>2015-09-13T11:51:35Z</time>
      </trkpt>
      <trkpt lat="41.96622" lon="9.22386">
        <ele>1541.13</ele>
        <time>2015-09-13T11:51:50Z</time>
      </trkpt>
      <trkpt lat="41.96621" lon="9.22386">
        <ele>1541.13</ele>
        <time>2015-09-13T11:51:51Z</time>
      </trkpt>
      <trkpt lat="41.96608" lon="9.22387">
        <ele>1537.29</ele>
        <time>2015-09-13T11:52:12Z</time>
      </trkpt>
      <trkpt lat="41.96601" lon="9.22389">
        <ele>1535.84</ele>
        <time>2015-09-13T11:52:27Z</time>
      </trkpt>
      <trkpt lat="41.96597" lon="9.2239">
        <ele>1534.4</ele>
        <time>2015-09-13T11:52:35Z</time>
      </trkpt>
      <trkpt lat="41.9658" lon="9.22387">
        <ele>1532</ele>
        <time>2015-09-13T11:52:56Z</time>
      </trkpt>
      <trkpt lat="41.96577" lon="9.22377">
        <ele>1528.63</ele>
        <time>2015-09-13T11:53:12Z</time>
      </trkpt>
      <trkpt lat="41.9657" lon="9.22371">
        <ele>1525.75</ele>
        <time>2015-09-13T11:53:29Z</time>
      </trkpt>
      <trkpt lat="41.96555" lon="9.22373">
        <ele>1523.83</ele>
        <time>2015-09-13T11:53:50Z</time>
      </trkpt>
      <trkpt lat="41.96544" lon="9.22381">
        <ele>1523.83</ele>
        <time>2015-09-13T11:54:08Z</time>
      </trkpt>
      <trkpt lat="41.9653" lon="9.22387">
        <ele>1521.9</ele>
        <time>2015-09-13T11:54:29Z</time>
      </trkpt>
      <trkpt lat="41.96521" lon="9.22405">
        <ele>1520.46</ele>
        <time>2015-09-13T11:54:50Z</time>
      </trkpt>
      <trkpt lat="41.96513" lon="9.22416">
        <ele>1517.1</ele>
        <time>2015-09-13T11:55:10Z</time>
      </trkpt>
      <trkpt lat="41.96513" lon="9.22417">
        <ele>1517.1</ele>
        <time>2015-09-13T11:55:11Z</time>
      </trkpt>
      <trkpt lat="41.96503" lon="9.22419">
        <ele>1514.21</ele>
        <time>2015-09-13T11:55:36Z</time>
      </trkpt>
      <trkpt lat="41.96497" lon="9.22418">
        <ele>1512.77</ele>
        <time>2015-09-13T11:55:52Z</time>
      </trkpt>
      <trkpt lat="41.96492" lon="9.22416">
        <ele>1512.29</ele>
        <time>2015-09-13T11:56:08Z</time>
      </trkpt>
      <trkpt lat="41.96487" lon="9.22415">
        <ele>1512.77</ele>
        <time>2015-09-13T11:56:15Z</time>
      </trkpt>
      <trkpt lat="41.96465" lon="9.22409">
        <ele>1512.29</ele>
        <time>2015-09-13T11:56:41Z</time>
      </trkpt>
      <trkpt lat="41.9645" lon="9.22411">
        <ele>1513.73</ele>
        <time>2015-09-13T11:56:57Z</time>
      </trkpt>
      <trkpt lat="41.96439" lon="9.22407">
        <ele>1516.14</ele>
        <time>2015-09-13T11:57:18Z</time>
      </trkpt>
      <trkpt lat="41.96434" lon="9.22402">
        <ele>1517.58</ele>
        <time>2015-09-13T11:57:35Z</time>
      </trkpt>
      <trkpt lat="41.96429" lon="9.22402">
        <ele>1519.02</ele>
        <time>2015-09-13T11:57:47Z</time>
      </trkpt>
      <trkpt lat="41.96419" lon="9.22404">
        <ele>1520.94</ele>
        <time>2015-09-13T11:58:07Z</time>
      </trkpt>
      <trkpt lat="41.96409" lon="9.22406">
        <ele>1522.39</ele>
        <time>2015-09-13T11:58:25Z</time>
      </trkpt>
      <trkpt lat="41.96404" lon="9.22409">
        <ele>1522.39</ele>
        <time>2015-09-13T11:58:45Z</time>
      </trkpt>
      <trkpt lat="41.96404" lon="9.2241">
        <ele>1524.31</ele>
        <time>2015-09-13T11:58:48Z</time>
      </trkpt>
      <trkpt lat="41.964" lon="9.22414">
        <ele>1521.9</ele>
        <time>2015-09-13T11:59:03Z</time>
      </trkpt>
      <trkpt lat="41.96389" lon="9.22407">
        <ele>1518.54</ele>
        <time>2015-09-13T11:59:26Z</time>
      </trkpt>
      <trkpt lat="41.96388" lon="9.22406">
        <ele>1518.54</ele>
        <time>2015-09-13T11:59:27Z</time>
      </trkpt>
      <trkpt lat="41.96388" lon="9.22407">
        <ele>1517.58</ele>
        <time>2015-09-13T11:59:34Z</time>
      </trkpt>
      <trkpt lat="41.9639" lon="9.22415">
        <ele>1516.14</ele>
        <time>2015-09-13T11:59:58Z</time>
      </trkpt>
      <trkpt lat="41.96381" lon="9.22416">
        <ele>1512.77</ele>
        <time>2015-09-13T12:00:12Z</time>
      </trkpt>
      <trkpt lat="41.96372" lon="9.22413">
        <ele>1509.41</ele>
        <time>2015-09-13T12:00:27Z</time>
      </trkpt>
      <trkpt lat="41.96358" lon="9.22408">
        <ele>1508.93</ele>
        <time>2015-09-13T12:00:47Z</time>
      </trkpt>
      <trkpt lat="41.96338" lon="9.22404">
        <ele>1511.81</ele>
        <time>2015-09-13T12:01:11Z</time>
      </trkpt>
      <trkpt lat="41.96327" lon="9.22415">
        <ele>1508.93</ele>
        <time>2015-09-13T12:01:31Z</time>
      </trkpt>
      <trkpt lat="41.96315" lon="9.2242">
        <ele>1507.97</ele>
        <time>2015-09-13T12:01:50Z</time>
      </trkpt>
      <trkpt lat="41.96296" lon="9.22414">
        <ele>1510.85</ele>
        <time>2015-09-13T12:02:18Z</time>
      </trkpt>
      <trkpt lat="41.96278" lon="9.2241">
        <ele>1512.77</ele>
        <time>2015-09-13T12:02:48Z</time>
      </trkpt>
      <trkpt lat="41.96252" lon="9.22419">
        <ele>1513.25</ele>
        <time>2015-09-13T12:03:16Z</time>
      </trkpt>
      <trkpt lat="41.96236" lon="9.22423">
        <ele>1515.18</ele>
        <time>2015-09-13T12:03:42Z</time>
      </trkpt>
      <trkpt lat="41.96232" lon="9.22428">
        <ele>1513.73</ele>
        <time>2015-09-13T12:03:50Z</time>
      </trkpt>
      <trkpt lat="41.96219" lon="9.22452">
        <ele>1515.66</ele>
        <time>2015-09-13T12:04:18Z</time>
      </trkpt>
      <trkpt lat="41.96211" lon="9.22473">
        <ele>1514.21</ele>
        <time>2015-09-13T12:04:40Z</time>
      </trkpt>
      <trkpt lat="41.96216" lon="9.22495">
        <ele>1514.21</ele>
        <time>2015-09-13T12:05:04Z</time>
      </trkpt>
      <trkpt lat="41.96216" lon="9.22496">
        <ele>1512.77</ele>
        <time>2015-09-13T12:05:06Z</time>
      </trkpt>
      <trkpt lat="41.96216" lon="9.22513">
        <ele>1511.81</ele>
        <time>2015-09-13T12:05:25Z</time>
      </trkpt>
      <trkpt lat="41.96215" lon="9.22538">
        <ele>1510.37</ele>
        <time>2015-09-13T12:05:49Z</time>
      </trkpt>
      <trkpt lat="41.96207" lon="9.22548">
        <ele>1508.45</ele>
        <time>2015-09-13T12:06:18Z</time>
      </trkpt>
      <trkpt lat="41.962" lon="9.22554">
        <ele>1506.04</ele>
        <time>2015-09-13T12:06:42Z</time>
      </trkpt>
      <trkpt lat="41.96198" lon="9.22552">
        <ele>1507.48</ele>
        <time>2015-09-13T12:06:48Z</time>
      </trkpt>
      <trkpt lat="41.96202" lon="9.22554">
        <ele>1506.04</ele>
        <time>2015-09-13T12:07:07Z</time>
      </trkpt>
      <trkpt lat="41.96214" lon="9.22556">
        <ele>1504.6</ele>
        <time>2015-09-13T12:07:30Z</time>
      </trkpt>
      <trkpt lat="41.96221" lon="9.22547">
        <ele>1505.56</ele>
        <time>2015-09-13T12:07:49Z</time>
      </trkpt>
      <trkpt lat="41.96213" lon="9.22541">
        <ele>1508.45</ele>
        <time>2015-09-13T12:08:11Z</time>
      </trkpt>
      <trkpt lat="41.96212" lon="9.22529">
        <ele>1510.85</ele>
        <time>2015-09-13T12:08:35Z</time>
      </trkpt>
      <trkpt lat="41.9621" lon="9.22518">
        <ele>1511.33</ele>
        <time>2015-09-13T12:09:03Z</time>
      </trkpt>
      <trkpt lat="41.96209" lon="9.22516">
        <ele>1510.85</ele>
        <time>2015-09-13T12:09:34Z</time>
      </trkpt>
      <trkpt lat="41.96212" lon="9.22519">
        <ele>1510.85</ele>
        <time>2015-09-13T12:09:54Z</time>
      </trkpt>
      <trkpt lat="41.96212" lon="9.22522">
        <ele>1511.81</ele>
        <time>2015-09-13T12:10:20Z</time>
      </trkpt>
      <trkpt lat="41.96207" lon="9.22511">
        <ele>1514.69</ele>
        <time>2015-09-13T12:10:39Z</time>
      </trkpt>
      <trkpt lat="41.96208" lon="9.22499">
        <ele>1516.14</ele>
        <time>2015-09-13T12:10:56Z</time>
      </trkpt>
      <trkpt lat="41.96203" lon="9.22499">
        <ele>1518.06</ele>
        <time>2015-09-13T12:11:15Z</time>
      </trkpt>
      <trkpt lat="41.96199" lon="9.22504">
        <ele>1519.98</ele>
        <time>2015-09-13T12:11:32Z</time>
      </trkpt>
      <trkpt lat="41.96191" lon="9.22513">
        <ele>1522.39</ele>
        <time>2015-09-13T12:11:52Z</time>
      </trkpt>
      <trkpt lat="41.96184" lon="9.22516">
        <ele>1524.79</ele>
        <time>2015-09-13T12:12:13Z</time>
      </trkpt>
      <trkpt lat="41.96179" lon="9.22518">
        <ele>1526.23</ele>
        <time>2015-09-13T12:12:31Z</time>
      </trkpt>
      <trkpt lat="41.96173" lon="9.22519">
        <ele>1528.15</ele>
        <time>2015-09-13T12:12:49Z</time>
      </trkpt>
      <trkpt lat="41.96166" lon="9.22521">
        <ele>1529.11</ele>
        <time>2015-09-13T12:13:05Z</time>
      </trkpt>
      <trkpt lat="41.96156" lon="9.22519">
        <ele>1531.52</ele>
        <time>2015-09-13T12:13:27Z</time>
      </trkpt>
      <trkpt lat="41.96146" lon="9.22521">
        <ele>1532.48</ele>
        <time>2015-09-13T12:13:44Z</time>
      </trkpt>
      <trkpt lat="41.96136" lon="9.22524">
        <ele>1534.4</ele>
        <time>2015-09-13T12:14:05Z</time>
      </trkpt>
      <trkpt lat="41.96126" lon="9.22528">
        <ele>1536.8</ele>
        <time>2015-09-13T12:14:22Z</time>
      </trkpt>
      <trkpt lat="41.9612" lon="9.22526">
        <ele>1538.73</ele>
        <time>2015-09-13T12:14:41Z</time>
      </trkpt>
      <trkpt lat="41.96113" lon="9.22527">
        <ele>1541.13</ele>
        <time>2015-09-13T12:15:03Z</time>
      </trkpt>
      <trkpt lat="41.96112" lon="9.22522">
        <ele>1543.53</ele>
        <time>2015-09-13T12:15:25Z</time>
      </trkpt>
      <trkpt lat="41.96109" lon="9.22519">
        <ele>1545.94</ele>
        <time>2015-09-13T12:15:46Z</time>
      </trkpt>
      <trkpt lat="41.96101" lon="9.22522">
        <ele>1547.86</ele>
        <time>2015-09-13T12:16:07Z</time>
      </trkpt>
      <trkpt lat="41.96094" lon="9.22532">
        <ele>1548.34</ele>
        <time>2015-09-13T12:16:23Z</time>
      </trkpt>
      <trkpt lat="41.96089" lon="9.22547">
        <ele>1548.82</ele>
        <time>2015-09-13T12:16:42Z</time>
      </trkpt>
      <trkpt lat="41.96087" lon="9.22553">
        <ele>1547.38</ele>
        <time>2015-09-13T12:16:47Z</time>
      </trkpt>
      <trkpt lat="41.96079" lon="9.22568">
        <ele>1548.34</ele>
        <time>2015-09-13T12:17:04Z</time>
      </trkpt>
      <trkpt lat="41.96073" lon="9.22575">
        <ele>1550.74</ele>
        <time>2015-09-13T12:17:20Z</time>
      </trkpt>
      <trkpt lat="41.96066" lon="9.22585">
        <ele>1553.15</ele>
        <time>2015-09-13T12:17:38Z</time>
      </trkpt>
      <trkpt lat="41.96057" lon="9.22594">
        <ele>1554.59</ele>
        <time>2015-09-13T12:17:57Z</time>
      </trkpt>
      <trkpt lat="41.96052" lon="9.22605">
        <ele>1555.55</ele>
        <time>2015-09-13T12:18:14Z</time>
      </trkpt>
      <trkpt lat="41.96044" lon="9.22616">
        <ele>1557.47</ele>
        <time>2015-09-13T12:18:36Z</time>
      </trkpt>
      <trkpt lat="41.96039" lon="9.22625">
        <ele>1560.36</ele>
        <time>2015-09-13T12:18:58Z</time>
      </trkpt>
      <trkpt lat="41.96037" lon="9.22635">
        <ele>1562.28</ele>
        <time>2015-09-13T12:19:17Z</time>
      </trkpt>
      <trkpt lat="41.96032" lon="9.22644">
        <ele>1563.72</ele>
        <time>2015-09-13T12:19:36Z</time>
      </trkpt>
      <trkpt lat="41.96024" lon="9.2265">
        <ele>1566.12</ele>
        <time>2015-09-13T12:19:55Z</time>
      </trkpt>
      <trkpt lat="41.96015" lon="9.22658">
        <ele>1567.09</ele>
        <time>2015-09-13T12:20:11Z</time>
      </trkpt>
      <trkpt lat="41.96007" lon="9.22662">
        <ele>1569.49</ele>
        <time>2015-09-13T12:20:28Z</time>
      </trkpt>
      <trkpt lat="41.96002" lon="9.22669">
        <ele>1571.41</ele>
        <time>2015-09-13T12:20:48Z</time>
      </trkpt>
      <trkpt lat="41.95997" lon="9.22669">
        <ele>1573.82</ele>
        <time>2015-09-13T12:21:06Z</time>
      </trkpt>
      <trkpt lat="41.95998" lon="9.2266">
        <ele>1575.74</ele>
        <time>2015-09-13T12:21:24Z</time>
      </trkpt>
      <trkpt lat="41.95992" lon="9.22658">
        <ele>1579.1</ele>
        <time>2015-09-13T12:21:43Z</time>
      </trkpt>
      <trkpt lat="41.95986" lon="9.2266">
        <ele>1580.06</ele>
        <time>2015-09-13T12:21:58Z</time>
      </trkpt>
      <trkpt lat="41.95976" lon="9.22669">
        <ele>1581.99</ele>
        <time>2015-09-13T12:22:15Z</time>
      </trkpt>
      <trkpt lat="41.95977" lon="9.22658">
        <ele>1584.87</ele>
        <time>2015-09-13T12:22:35Z</time>
      </trkpt>
      <trkpt lat="41.95982" lon="9.22648">
        <ele>1587.75</ele>
        <time>2015-09-13T12:22:56Z</time>
      </trkpt>
      <trkpt lat="41.95987" lon="9.2264">
        <ele>1589.2</ele>
        <time>2015-09-13T12:23:12Z</time>
      </trkpt>
      <trkpt lat="41.95989" lon="9.22632">
        <ele>1591.12</ele>
        <time>2015-09-13T12:23:29Z</time>
      </trkpt>
      <trkpt lat="41.95993" lon="9.22621">
        <ele>1593.04</ele>
        <time>2015-09-13T12:23:49Z</time>
      </trkpt>
      <trkpt lat="41.95998" lon="9.22611">
        <ele>1594.48</ele>
        <time>2015-09-13T12:24:03Z</time>
      </trkpt>
      <trkpt lat="41.95991" lon="9.22613">
        <ele>1597.37</ele>
        <time>2015-09-13T12:24:23Z</time>
      </trkpt>
      <trkpt lat="41.95983" lon="9.22623">
        <ele>1598.81</ele>
        <time>2015-09-13T12:24:39Z</time>
      </trkpt>
      <trkpt lat="41.95969" lon="9.2263">
        <ele>1599.77</ele>
        <time>2015-09-13T12:24:56Z</time>
      </trkpt>
      <trkpt lat="41.95959" lon="9.22633">
        <ele>1601.21</ele>
        <time>2015-09-13T12:25:14Z</time>
      </trkpt>
      <trkpt lat="41.95948" lon="9.2263">
        <ele>1603.14</ele>
        <time>2015-09-13T12:25:31Z</time>
      </trkpt>
      <trkpt lat="41.95936" lon="9.22626">
        <ele>1602.66</ele>
        <time>2015-09-13T12:25:50Z</time>
      </trkpt>
      <trkpt lat="41.95935" lon="9.22626">
        <ele>1602.66</ele>
        <time>2015-09-13T12:25:51Z</time>
      </trkpt>
      <trkpt lat="41.95925" lon="9.22625">
        <ele>1600.25</ele>
        <time>2015-09-13T12:26:06Z</time>
      </trkpt>
      <trkpt lat="41.95912" lon="9.22622">
        <ele>1599.29</ele>
        <time>2015-09-13T12:26:21Z</time>
      </trkpt>
      <trkpt lat="41.95905" lon="9.22616">
        <ele>1598.33</ele>
        <time>2015-09-13T12:26:28Z</time>
      </trkpt>
      <trkpt lat="41.95889" lon="9.22608">
        <ele>1595.93</ele>
        <time>2015-09-13T12:26:43Z</time>
      </trkpt>
      <trkpt lat="41.95874" lon="9.2261">
        <ele>1595.45</ele>
        <time>2015-09-13T12:27:01Z</time>
      </trkpt>
      <trkpt lat="41.95869" lon="9.22604">
        <ele>1596.41</ele>
        <time>2015-09-13T12:27:13Z</time>
      </trkpt>
      <trkpt lat="41.95856" lon="9.226">
        <ele>1597.37</ele>
        <time>2015-09-13T12:27:31Z</time>
      </trkpt>
      <trkpt lat="41.95841" lon="9.226">
        <ele>1597.85</ele>
        <time>2015-09-13T12:27:50Z</time>
      </trkpt>
      <trkpt lat="41.95826" lon="9.22598">
        <ele>1597.85</ele>
        <time>2015-09-13T12:28:08Z</time>
      </trkpt>
      <trkpt lat="41.95823" lon="9.22597">
        <ele>1596.41</ele>
        <time>2015-09-13T12:28:15Z</time>
      </trkpt>
      <trkpt lat="41.95812" lon="9.22594">
        <ele>1594.96</ele>
        <time>2015-09-13T12:28:38Z</time>
      </trkpt>
      <trkpt lat="41.95804" lon="9.22594">
        <ele>1594.96</ele>
        <time>2015-09-13T12:28:51Z</time>
      </trkpt>
      <trkpt lat="41.95787" lon="9.22593">
        <ele>1593.52</ele>
        <time>2015-09-13T12:29:07Z</time>
      </trkpt>
      <trkpt lat="41.95774" lon="9.22597">
        <ele>1593.04</ele>
        <time>2015-09-13T12:29:23Z</time>
      </trkpt>
      <trkpt lat="41.95771" lon="9.22597">
        <ele>1594</ele>
        <time>2015-09-13T12:29:27Z</time>
      </trkpt>
      <trkpt lat="41.95766" lon="9.22595">
        <ele>1595.93</ele>
        <time>2015-09-13T12:29:45Z</time>
      </trkpt>
      <trkpt lat="41.9576" lon="9.2259">
        <ele>1598.33</ele>
        <time>2015-09-13T12:30:04Z</time>
      </trkpt>
      <trkpt lat="41.95755" lon="9.22592">
        <ele>1600.25</ele>
        <time>2015-09-13T12:30:20Z</time>
      </trkpt>
      <trkpt lat="41.95752" lon="9.22599">
        <ele>1601.69</ele>
        <time>2015-09-13T12:30:39Z</time>
      </trkpt>
      <trkpt lat="41.95748" lon="9.22608">
        <ele>1601.69</ele>
        <time>2015-09-13T12:31:09Z</time>
      </trkpt>
      <trkpt lat="41.95749" lon="9.22603">
        <ele>1601.69</ele>
        <time>2015-09-13T12:31:26Z</time>
      </trkpt>
      <trkpt lat="41.95747" lon="9.22598">
        <ele>1602.66</ele>
        <time>2015-09-13T12:31:42Z</time>
      </trkpt>
      <trkpt lat="41.95753" lon="9.2259">
        <ele>1604.58</ele>
        <time>2015-09-13T12:32:00Z</time>
      </trkpt>
      <trkpt lat="41.95747" lon="9.22588">
        <ele>1606.98</ele>
        <time>2015-09-13T12:32:18Z</time>
      </trkpt>
      <trkpt lat="41.95742" lon="9.22586">
        <ele>1609.38</ele>
        <time>2015-09-13T12:32:37Z</time>
      </trkpt>
      <trkpt lat="41.9573" lon="9.22587">
        <ele>1610.35</ele>
        <time>2015-09-13T12:33:00Z</time>
      </trkpt>
      <trkpt lat="41.95715" lon="9.22582">
        <ele>1612.75</ele>
        <time>2015-09-13T12:33:24Z</time>
      </trkpt>
      <trkpt lat="41.95698" lon="9.22591">
        <ele>1614.67</ele>
        <time>2015-09-13T12:33:45Z</time>
      </trkpt>
      <trkpt lat="41.95688" lon="9.22596">
        <ele>1616.11</ele>
        <time>2015-09-13T12:34:03Z</time>
      </trkpt>
      <trkpt lat="41.95679" lon="9.22605">
        <ele>1616.59</ele>
        <time>2015-09-13T12:34:22Z</time>
      </trkpt>
      <trkpt lat="41.95674" lon="9.22615">
        <ele>1613.23</ele>
        <time>2015-09-13T12:34:45Z</time>
      </trkpt>
      <trkpt lat="41.95668" lon="9.22626">
        <ele>1614.67</ele>
        <time>2015-09-13T12:34:58Z</time>
      </trkpt>
      <trkpt lat="41.9566" lon="9.22639">
        <ele>1617.56</ele>
        <time>2015-09-13T12:35:20Z</time>
      </trkpt>
      <trkpt lat="41.95655" lon="9.22653">
        <ele>1619.48</ele>
        <time>2015-09-13T12:35:40Z</time>
      </trkpt>
      <trkpt lat="41.95653" lon="9.22671">
        <ele>1620.44</ele>
        <time>2015-09-13T12:35:59Z</time>
      </trkpt>
      <trkpt lat="41.95651" lon="9.22679">
        <ele>1622.36</ele>
        <time>2015-09-13T12:36:15Z</time>
      </trkpt>
      <trkpt lat="41.95647" lon="9.22683">
        <ele>1624.28</ele>
        <time>2015-09-13T12:36:30Z</time>
      </trkpt>
      <trkpt lat="41.95643" lon="9.22677">
        <ele>1625.25</ele>
        <time>2015-09-13T12:36:45Z</time>
      </trkpt>
      <trkpt lat="41.95641" lon="9.22672">
        <ele>1626.69</ele>
        <time>2015-09-13T12:37:01Z</time>
      </trkpt>
      <trkpt lat="41.95639" lon="9.22669">
        <ele>1629.57</ele>
        <time>2015-09-13T12:37:21Z</time>
      </trkpt>
      <trkpt lat="41.9564" lon="9.2266">
        <ele>1631.49</ele>
        <time>2015-09-13T12:37:38Z</time>
      </trkpt>
      <trkpt lat="41.9564" lon="9.22651">
        <ele>1633.42</ele>
        <time>2015-09-13T12:37:55Z</time>
      </trkpt>
      <trkpt lat="41.95641" lon="9.2264">
        <ele>1634.86</ele>
        <time>2015-09-13T12:38:12Z</time>
      </trkpt>
      <trkpt lat="41.95641" lon="9.2263">
        <ele>1637.26</ele>
        <time>2015-09-13T12:38:34Z</time>
      </trkpt>
      <trkpt lat="41.95638" lon="9.22629">
        <ele>1640.15</ele>
        <time>2015-09-13T12:38:57Z</time>
      </trkpt>
      <trkpt lat="41.95633" lon="9.22632">
        <ele>1641.59</ele>
        <time>2015-09-13T12:39:10Z</time>
      </trkpt>
      <trkpt lat="41.95636" lon="9.22627">
        <ele>1643.99</ele>
        <time>2015-09-13T12:39:29Z</time>
      </trkpt>
      <trkpt lat="41.95632" lon="9.22626">
        <ele>1646.4</ele>
        <time>2015-09-13T12:39:48Z</time>
      </trkpt>
      <trkpt lat="41.95627" lon="9.22629">
        <ele>1649.28</ele>
        <time>2015-09-13T12:40:07Z</time>
      </trkpt>
      <trkpt lat="41.95622" lon="9.22634">
        <ele>1650.72</ele>
        <time>2015-09-13T12:40:23Z</time>
      </trkpt>
      <trkpt lat="41.95618" lon="9.22632">
        <ele>1653.12</ele>
        <time>2015-09-13T12:40:42Z</time>
      </trkpt>
      <trkpt lat="41.95615" lon="9.22629">
        <ele>1655.53</ele>
        <time>2015-09-13T12:41:00Z</time>
      </trkpt>
      <trkpt lat="41.95614" lon="9.22626">
        <ele>1657.45</ele>
        <time>2015-09-13T12:41:18Z</time>
      </trkpt>
      <trkpt lat="41.95611" lon="9.22623">
        <ele>1658.89</ele>
        <time>2015-09-13T12:41:35Z</time>
      </trkpt>
      <trkpt lat="41.95604" lon="9.22624">
        <ele>1661.3</ele>
        <time>2015-09-13T12:41:53Z</time>
      </trkpt>
      <trkpt lat="41.95606" lon="9.22622">
        <ele>1662.74</ele>
        <time>2015-09-13T12:42:12Z</time>
      </trkpt>
      <trkpt lat="41.95602" lon="9.22617">
        <ele>1663.7</ele>
        <time>2015-09-13T12:42:29Z</time>
      </trkpt>
      <trkpt lat="41.95598" lon="9.22615">
        <ele>1664.66</ele>
        <time>2015-09-13T12:42:49Z</time>
      </trkpt>
      <trkpt lat="41.95599" lon="9.22617">
        <ele>1664.66</ele>
        <time>2015-09-13T12:43:12Z</time>
      </trkpt>
      <trkpt lat="41.95596" lon="9.22613">
        <ele>1665.14</ele>
        <time>2015-09-13T12:43:35Z</time>
      </trkpt>
      <trkpt lat="41.95596" lon="9.22615">
        <ele>1665.62</ele>
        <time>2015-09-13T12:43:59Z</time>
      </trkpt>
      <trkpt lat="41.95596" lon="9.2262">
        <ele>1665.62</ele>
        <time>2015-09-13T12:44:18Z</time>
      </trkpt>
      <trkpt lat="41.95598" lon="9.22618">
        <ele>1665.62</ele>
        <time>2015-09-13T12:44:38Z</time>
      </trkpt>
      <trkpt lat="41.95597" lon="9.22617">
        <ele>1665.14</ele>
        <time>2015-09-13T12:45:01Z</time>
      </trkpt>
      <trkpt lat="41.956" lon="9.2261">
        <ele>1665.14</ele>
        <time>2015-09-13T12:45:34Z</time>
      </trkpt>
      <trkpt lat="41.95599" lon="9.22611">
        <ele>1665.14</ele>
        <time>2015-09-13T12:46:02Z</time>
      </trkpt>
      <trkpt lat="41.95597" lon="9.22615">
        <ele>1665.14</ele>
        <time>2015-09-13T12:46:26Z</time>
      </trkpt>
      <trkpt lat="41.95598" lon="9.22615">
        <ele>1665.62</ele>
        <time>2015-09-13T12:46:51Z</time>
      </trkpt>
      <trkpt lat="41.95598" lon="9.22613">
        <ele>1666.58</ele>
        <time>2015-09-13T12:47:22Z</time>
      </trkpt>
      <trkpt lat="41.95598" lon="9.22617">
        <ele>1667.06</ele>
        <time>2015-09-13T12:47:46Z</time>
      </trkpt>
      <trkpt lat="41.95597" lon="9.22618">
        <ele>1667.06</ele>
        <time>2015-09-13T12:48:06Z</time>
      </trkpt>
      <trkpt lat="41.95597" lon="9.22615">
        <ele>1667.06</ele>
        <time>2015-09-13T12:48:27Z</time>
      </trkpt>
      <trkpt lat="41.95596" lon="9.22613">
        <ele>1667.06</ele>
        <time>2015-09-13T12:48:43Z</time>
      </trkpt>
      <trkpt lat="41.95597" lon="9.22614">
        <ele>1667.06</ele>
        <time>2015-09-13T12:49:07Z</time>
      </trkpt>
      <trkpt lat="41.9559" lon="9.22608">
        <ele>1667.06</ele>
        <time>2015-09-13T12:49:20Z</time>
      </trkpt>
      <trkpt lat="41.95582" lon="9.22606">
        <ele>1664.66</ele>
        <time>2015-09-13T12:49:35Z</time>
      </trkpt>
      <trkpt lat="41.95573" lon="9.22598">
        <ele>1663.7</ele>
        <time>2015-09-13T12:49:50Z</time>
      </trkpt>
      <trkpt lat="41.9557" lon="9.22596">
        <ele>1663.7</ele>
        <time>2015-09-13T12:49:54Z</time>
      </trkpt>
      <trkpt lat="41.95569" lon="9.22592">
        <ele>1663.22</ele>
        <time>2015-09-13T12:50:01Z</time>
      </trkpt>
      <trkpt lat="41.95567" lon="9.22585">
        <ele>1660.81</ele>
        <time>2015-09-13T12:50:16Z</time>
      </trkpt>
      <trkpt lat="41.95555" lon="9.22592">
        <ele>1657.45</ele>
        <time>2015-09-13T12:50:34Z</time>
      </trkpt>
      <trkpt lat="41.95543" lon="9.22585">
        <ele>1656.49</ele>
        <time>2015-09-13T12:50:51Z</time>
      </trkpt>
      <trkpt lat="41.95527" lon="9.22581">
        <ele>1656.01</ele>
        <time>2015-09-13T12:51:08Z</time>
      </trkpt>
      <trkpt lat="41.9552" lon="9.22589">
        <ele>1656.49</ele>
        <time>2015-09-13T12:51:24Z</time>
      </trkpt>
      <trkpt lat="41.95516" lon="9.22603">
        <ele>1658.41</ele>
        <time>2015-09-13T12:51:40Z</time>
      </trkpt>
      <trkpt lat="41.95507" lon="9.22604">
        <ele>1659.37</ele>
        <time>2015-09-13T12:51:54Z</time>
      </trkpt>
      <trkpt lat="41.95493" lon="9.22608">
        <ele>1658.41</ele>
        <time>2015-09-13T12:52:13Z</time>
      </trkpt>
      <trkpt lat="41.9549" lon="9.22608">
        <ele>1658.41</ele>
        <time>2015-09-13T12:52:16Z</time>
      </trkpt>
      <trkpt lat="41.95478" lon="9.22601">
        <ele>1658.41</ele>
        <time>2015-09-13T12:52:32Z</time>
      </trkpt>
      <trkpt lat="41.95469" lon="9.22589">
        <ele>1659.85</ele>
        <time>2015-09-13T12:52:50Z</time>
      </trkpt>
      <trkpt lat="41.95461" lon="9.22578">
        <ele>1662.26</ele>
        <time>2015-09-13T12:53:07Z</time>
      </trkpt>
      <trkpt lat="41.95456" lon="9.22578">
        <ele>1664.66</ele>
        <time>2015-09-13T12:53:23Z</time>
      </trkpt>
      <trkpt lat="41.9545" lon="9.22582">
        <ele>1666.58</ele>
        <time>2015-09-13T12:53:40Z</time>
      </trkpt>
      <trkpt lat="41.95442" lon="9.22576">
        <ele>1668.99</ele>
        <time>2015-09-13T12:53:59Z</time>
      </trkpt>
      <trkpt lat="41.95431" lon="9.22568">
        <ele>1669.47</ele>
        <time>2015-09-13T12:54:14Z</time>
      </trkpt>
      <trkpt lat="41.95423" lon="9.22568">
        <ele>1670.91</ele>
        <time>2015-09-13T12:54:30Z</time>
      </trkpt>
      <trkpt lat="41.9542" lon="9.22568">
        <ele>1672.35</ele>
        <time>2015-09-13T12:54:51Z</time>
      </trkpt>
      <trkpt lat="41.95429" lon="9.22562">
        <ele>1674.27</ele>
        <time>2015-09-13T12:55:10Z</time>
      </trkpt>
      <trkpt lat="41.95436" lon="9.22555">
        <ele>1676.68</ele>
        <time>2015-09-13T12:55:31Z</time>
      </trkpt>
      <trkpt lat="41.95434" lon="9.22552">
        <ele>1678.6</ele>
        <time>2015-09-13T12:55:49Z</time>
      </trkpt>
      <trkpt lat="41.95426" lon="9.22547">
        <ele>1681.48</ele>
        <time>2015-09-13T12:56:10Z</time>
      </trkpt>
      <trkpt lat="41.95416" lon="9.22542">
        <ele>1682.44</ele>
        <time>2015-09-13T12:56:31Z</time>
      </trkpt>
      <trkpt lat="41.9541" lon="9.22538">
        <ele>1684.37</ele>
        <time>2015-09-13T12:56:48Z</time>
      </trkpt>
      <trkpt lat="41.95405" lon="9.22536">
        <ele>1686.29</ele>
        <time>2015-09-13T12:57:04Z</time>
      </trkpt>
      <trkpt lat="41.95402" lon="9.22533">
        <ele>1688.21</ele>
        <time>2015-09-13T12:57:21Z</time>
      </trkpt>
      <trkpt lat="41.95396" lon="9.22529">
        <ele>1689.65</ele>
        <time>2015-09-13T12:57:38Z</time>
      </trkpt>
      <trkpt lat="41.9539" lon="9.22529">
        <ele>1691.58</ele>
        <time>2015-09-13T12:57:54Z</time>
      </trkpt>
      <trkpt lat="41.95386" lon="9.2253">
        <ele>1693.98</ele>
        <time>2015-09-13T12:58:11Z</time>
      </trkpt>
      <trkpt lat="41.95379" lon="9.2253">
        <ele>1696.38</ele>
        <time>2015-09-13T12:58:30Z</time>
      </trkpt>
      <trkpt lat="41.95373" lon="9.22527">
        <ele>1698.79</ele>
        <time>2015-09-13T12:58:49Z</time>
      </trkpt>
      <trkpt lat="41.95372" lon="9.22521">
        <ele>1700.23</ele>
        <time>2015-09-13T12:59:06Z</time>
      </trkpt>
      <trkpt lat="41.95378" lon="9.2252">
        <ele>1702.15</ele>
        <time>2015-09-13T12:59:22Z</time>
      </trkpt>
      <trkpt lat="41.9538" lon="9.22515">
        <ele>1703.11</ele>
        <time>2015-09-13T12:59:38Z</time>
      </trkpt>
      <trkpt lat="41.95376" lon="9.2251">
        <ele>1705.52</ele>
        <time>2015-09-13T12:59:57Z</time>
      </trkpt>
      <trkpt lat="41.95372" lon="9.22505">
        <ele>1708.4</ele>
        <time>2015-09-13T13:00:11Z</time>
      </trkpt>
      <trkpt lat="41.95364" lon="9.22502">
        <ele>1709.84</ele>
        <time>2015-09-13T13:00:30Z</time>
      </trkpt>
      <trkpt lat="41.95362" lon="9.22498">
        <ele>1712.25</ele>
        <time>2015-09-13T13:00:49Z</time>
      </trkpt>
      <trkpt lat="41.95359" lon="9.22493">
        <ele>1714.17</ele>
        <time>2015-09-13T13:01:07Z</time>
      </trkpt>
      <trkpt lat="41.95353" lon="9.22485">
        <ele>1716.57</ele>
        <time>2015-09-13T13:01:30Z</time>
      </trkpt>
      <trkpt lat="41.9535" lon="9.22476">
        <ele>1718.97</ele>
        <time>2015-09-13T13:01:52Z</time>
      </trkpt>
      <trkpt lat="41.95343" lon="9.22468">
        <ele>1721.86</ele>
        <time>2015-09-13T13:02:15Z</time>
      </trkpt>
      <trkpt lat="41.95345" lon="9.22464">
        <ele>1724.74</ele>
        <time>2015-09-13T13:02:36Z</time>
      </trkpt>
      <trkpt lat="41.95349" lon="9.22457">
        <ele>1726.67</ele>
        <time>2015-09-13T13:02:57Z</time>
      </trkpt>
      <trkpt lat="41.95355" lon="9.22455">
        <ele>1728.11</ele>
        <time>2015-09-13T13:03:17Z</time>
      </trkpt>
      <trkpt lat="41.9535" lon="9.22449">
        <ele>1730.51</ele>
        <time>2015-09-13T13:03:37Z</time>
      </trkpt>
      <trkpt lat="41.95345" lon="9.22444">
        <ele>1732.43</ele>
        <time>2015-09-13T13:03:55Z</time>
      </trkpt>
      <trkpt lat="41.95352" lon="9.22444">
        <ele>1733.88</ele>
        <time>2015-09-13T13:04:13Z</time>
      </trkpt>
      <trkpt lat="41.95358" lon="9.22442">
        <ele>1735.32</ele>
        <time>2015-09-13T13:04:28Z</time>
      </trkpt>
      <trkpt lat="41.95365" lon="9.22442">
        <ele>1736.76</ele>
        <time>2015-09-13T13:04:44Z</time>
      </trkpt>
      <trkpt lat="41.95371" lon="9.22443">
        <ele>1737.72</ele>
        <time>2015-09-13T13:05:01Z</time>
      </trkpt>
      <trkpt lat="41.9537" lon="9.22435">
        <ele>1740.6</ele>
        <time>2015-09-13T13:05:18Z</time>
      </trkpt>
      <trkpt lat="41.95372" lon="9.22435">
        <ele>1741.57</ele>
        <time>2015-09-13T13:05:23Z</time>
      </trkpt>
      <trkpt lat="41.95373" lon="9.22431">
        <ele>1743.49</ele>
        <time>2015-09-13T13:05:38Z</time>
      </trkpt>
      <trkpt lat="41.95375" lon="9.22428">
        <ele>1744.93</ele>
        <time>2015-09-13T13:05:56Z</time>
      </trkpt>
      <trkpt lat="41.95376" lon="9.22425">
        <ele>1745.89</ele>
        <time>2015-09-13T13:06:10Z</time>
      </trkpt>
      <trkpt lat="41.95376" lon="9.22421">
        <ele>1748.78</ele>
        <time>2015-09-13T13:06:26Z</time>
      </trkpt>
      <trkpt lat="41.95371" lon="9.22416">
        <ele>1749.74</ele>
        <time>2015-09-13T13:06:43Z</time>
      </trkpt>
      <trkpt lat="41.95366" lon="9.22411">
        <ele>1752.14</ele>
        <time>2015-09-13T13:07:02Z</time>
      </trkpt>
      <trkpt lat="41.95362" lon="9.22407">
        <ele>1753.58</ele>
        <time>2015-09-13T13:07:19Z</time>
      </trkpt>
      <trkpt lat="41.95356" lon="9.22403">
        <ele>1755.02</ele>
        <time>2015-09-13T13:07:35Z</time>
      </trkpt>
      <trkpt lat="41.9535" lon="9.22402">
        <ele>1756.95</ele>
        <time>2015-09-13T13:07:51Z</time>
      </trkpt>
      <trkpt lat="41.9534" lon="9.22402">
        <ele>1758.87</ele>
        <time>2015-09-13T13:08:12Z</time>
      </trkpt>
      <trkpt lat="41.9534" lon="9.22396">
        <ele>1761.27</ele>
        <time>2015-09-13T13:08:32Z</time>
      </trkpt>
      <trkpt lat="41.95344" lon="9.22392">
        <ele>1762.71</ele>
        <time>2015-09-13T13:08:47Z</time>
      </trkpt>
      <trkpt lat="41.95349" lon="9.22388">
        <ele>1765.12</ele>
        <time>2015-09-13T13:09:04Z</time>
      </trkpt>
      <trkpt lat="41.95356" lon="9.22387">
        <ele>1766.08</ele>
        <time>2015-09-13T13:09:18Z</time>
      </trkpt>
      <trkpt lat="41.95364" lon="9.22384">
        <ele>1767.52</ele>
        <time>2015-09-13T13:09:37Z</time>
      </trkpt>
      <trkpt lat="41.95371" lon="9.22383">
        <ele>1768.96</ele>
        <time>2015-09-13T13:09:52Z</time>
      </trkpt>
      <trkpt lat="41.95377" lon="9.22384">
        <ele>1770.41</ele>
        <time>2015-09-13T13:10:08Z</time>
      </trkpt>
      <trkpt lat="41.95384" lon="9.2238">
        <ele>1772.33</ele>
        <time>2015-09-13T13:10:26Z</time>
      </trkpt>
      <trkpt lat="41.95382" lon="9.22377">
        <ele>1774.25</ele>
        <time>2015-09-13T13:10:42Z</time>
      </trkpt>
      <trkpt lat="41.95378" lon="9.22371">
        <ele>1775.69</ele>
        <time>2015-09-13T13:11:02Z</time>
      </trkpt>
      <trkpt lat="41.95373" lon="9.22367">
        <ele>1778.1</ele>
        <time>2015-09-13T13:11:18Z</time>
      </trkpt>
      <trkpt lat="41.95366" lon="9.22361">
        <ele>1779.54</ele>
        <time>2015-09-13T13:11:35Z</time>
      </trkpt>
      <trkpt lat="41.95363" lon="9.22356">
        <ele>1780.5</ele>
        <time>2015-09-13T13:11:52Z</time>
      </trkpt>
      <trkpt lat="41.95356" lon="9.22352">
        <ele>1782.9</ele>
        <time>2015-09-13T13:12:13Z</time>
      </trkpt>
      <trkpt lat="41.95351" lon="9.22348">
        <ele>1785.31</ele>
        <time>2015-09-13T13:12:32Z</time>
      </trkpt>
      <trkpt lat="41.95346" lon="9.22343">
        <ele>1787.23</ele>
        <time>2015-09-13T13:12:53Z</time>
      </trkpt>
      <trkpt lat="41.95339" lon="9.22345">
        <ele>1788.67</ele>
        <time>2015-09-13T13:13:09Z</time>
      </trkpt>
      <trkpt lat="41.9533" lon="9.22344">
        <ele>1789.63</ele>
        <time>2015-09-13T13:13:25Z</time>
      </trkpt>
      <trkpt lat="41.95324" lon="9.22342">
        <ele>1791.07</ele>
        <time>2015-09-13T13:13:41Z</time>
      </trkpt>
      <trkpt lat="41.95317" lon="9.2234">
        <ele>1793</ele>
        <time>2015-09-13T13:13:59Z</time>
      </trkpt>
      <trkpt lat="41.95311" lon="9.22338">
        <ele>1794.44</ele>
        <time>2015-09-13T13:14:18Z</time>
      </trkpt>
      <trkpt lat="41.95303" lon="9.22337">
        <ele>1795.88</ele>
        <time>2015-09-13T13:14:34Z</time>
      </trkpt>
      <trkpt lat="41.95298" lon="9.22334">
        <ele>1798.76</ele>
        <time>2015-09-13T13:14:56Z</time>
      </trkpt>
      <trkpt lat="41.95292" lon="9.22332">
        <ele>1800.69</ele>
        <time>2015-09-13T13:15:14Z</time>
      </trkpt>
      <trkpt lat="41.95287" lon="9.22331">
        <ele>1803.09</ele>
        <time>2015-09-13T13:15:30Z</time>
      </trkpt>
      <trkpt lat="41.9528" lon="9.22331">
        <ele>1804.05</ele>
        <time>2015-09-13T13:15:51Z</time>
      </trkpt>
      <trkpt lat="41.95274" lon="9.22332">
        <ele>1806.45</ele>
        <time>2015-09-13T13:16:14Z</time>
      </trkpt>
      <trkpt lat="41.95267" lon="9.22335">
        <ele>1808.86</ele>
        <time>2015-09-13T13:16:32Z</time>
      </trkpt>
      <trkpt lat="41.95266" lon="9.2233">
        <ele>1811.26</ele>
        <time>2015-09-13T13:16:48Z</time>
      </trkpt>
      <trkpt lat="41.95267" lon="9.22326">
        <ele>1813.18</ele>
        <time>2015-09-13T13:17:06Z</time>
      </trkpt>
      <trkpt lat="41.95262" lon="9.22327">
        <ele>1814.63</ele>
        <time>2015-09-13T13:17:22Z</time>
      </trkpt>
      <trkpt lat="41.95256" lon="9.22328">
        <ele>1817.03</ele>
        <time>2015-09-13T13:17:41Z</time>
      </trkpt>
      <trkpt lat="41.95252" lon="9.22328">
        <ele>1818.95</ele>
        <time>2015-09-13T13:17:59Z</time>
      </trkpt>
      <trkpt lat="41.95255" lon="9.22321">
        <ele>1820.39</ele>
        <time>2015-09-13T13:18:15Z</time>
      </trkpt>
      <trkpt lat="41.95251" lon="9.22311">
        <ele>1822.32</ele>
        <time>2015-09-13T13:18:37Z</time>
      </trkpt>
      <trkpt lat="41.95246" lon="9.22308">
        <ele>1824.24</ele>
        <time>2015-09-13T13:19:01Z</time>
      </trkpt>
      <trkpt lat="41.95241" lon="9.22307">
        <ele>1827.12</ele>
        <time>2015-09-13T13:19:19Z</time>
      </trkpt>
      <trkpt lat="41.95235" lon="9.22308">
        <ele>1830.01</ele>
        <time>2015-09-13T13:19:38Z</time>
      </trkpt>
      <trkpt lat="41.95232" lon="9.22309">
        <ele>1831.45</ele>
        <time>2015-09-13T13:19:53Z</time>
      </trkpt>
      <trkpt lat="41.95226" lon="9.22302">
        <ele>1832.89</ele>
        <time>2015-09-13T13:20:11Z</time>
      </trkpt>
      <trkpt lat="41.95221" lon="9.22296">
        <ele>1835.29</ele>
        <time>2015-09-13T13:20:28Z</time>
      </trkpt>
      <trkpt lat="41.95215" lon="9.22293">
        <ele>1836.74</ele>
        <time>2015-09-13T13:20:47Z</time>
      </trkpt>
      <trkpt lat="41.9521" lon="9.22285">
        <ele>1838.18</ele>
        <time>2015-09-13T13:21:06Z</time>
      </trkpt>
      <trkpt lat="41.95204" lon="9.22279">
        <ele>1840.1</ele>
        <time>2015-09-13T13:21:22Z</time>
      </trkpt>
      <trkpt lat="41.95199" lon="9.22269">
        <ele>1840.58</ele>
        <time>2015-09-13T13:21:39Z</time>
      </trkpt>
      <trkpt lat="41.95194" lon="9.22264">
        <ele>1842.5</ele>
        <time>2015-09-13T13:21:53Z</time>
      </trkpt>
      <trkpt lat="41.95191" lon="9.22266">
        <ele>1844.91</ele>
        <time>2015-09-13T13:22:11Z</time>
      </trkpt>
      <trkpt lat="41.95191" lon="9.22273">
        <ele>1846.35</ele>
        <time>2015-09-13T13:22:27Z</time>
      </trkpt>
      <trkpt lat="41.9519" lon="9.2228">
        <ele>1848.75</ele>
        <time>2015-09-13T13:22:46Z</time>
      </trkpt>
      <trkpt lat="41.95191" lon="9.22288">
        <ele>1851.16</ele>
        <time>2015-09-13T13:23:04Z</time>
      </trkpt>
      <trkpt lat="41.95193" lon="9.22296">
        <ele>1852.6</ele>
        <time>2015-09-13T13:23:22Z</time>
      </trkpt>
      <trkpt lat="41.95192" lon="9.22305">
        <ele>1854.52</ele>
        <time>2015-09-13T13:23:40Z</time>
      </trkpt>
      <trkpt lat="41.95188" lon="9.22304">
        <ele>1856.44</ele>
        <time>2015-09-13T13:23:57Z</time>
      </trkpt>
      <trkpt lat="41.95183" lon="9.22306">
        <ele>1858.37</ele>
        <time>2015-09-13T13:24:17Z</time>
      </trkpt>
      <trkpt lat="41.95183" lon="9.22312">
        <ele>1859.81</ele>
        <time>2015-09-13T13:24:37Z</time>
      </trkpt>
      <trkpt lat="41.95177" lon="9.22307">
        <ele>1862.21</ele>
        <time>2015-09-13T13:24:54Z</time>
      </trkpt>
      <trkpt lat="41.95172" lon="9.22298">
        <ele>1864.13</ele>
        <time>2015-09-13T13:25:10Z</time>
      </trkpt>
      <trkpt lat="41.95167" lon="9.2229">
        <ele>1865.09</ele>
        <time>2015-09-13T13:25:24Z</time>
      </trkpt>
      <trkpt lat="41.95162" lon="9.22281">
        <ele>1867.5</ele>
        <time>2015-09-13T13:25:42Z</time>
      </trkpt>
      <trkpt lat="41.95159" lon="9.22287">
        <ele>1869.9</ele>
        <time>2015-09-13T13:26:00Z</time>
      </trkpt>
      <trkpt lat="41.95159" lon="9.22296">
        <ele>1871.82</ele>
        <time>2015-09-13T13:26:17Z</time>
      </trkpt>
      <trkpt lat="41.95159" lon="9.22305">
        <ele>1873.27</ele>
        <time>2015-09-13T13:26:35Z</time>
      </trkpt>
      <trkpt lat="41.95155" lon="9.22304">
        <ele>1874.71</ele>
        <time>2015-09-13T13:26:54Z</time>
      </trkpt>
      <trkpt lat="41.95148" lon="9.22301">
        <ele>1876.63</ele>
        <time>2015-09-13T13:27:13Z</time>
      </trkpt>
      <trkpt lat="41.95148" lon="9.22308">
        <ele>1878.55</ele>
        <time>2015-09-13T13:27:30Z</time>
      </trkpt>
      <trkpt lat="41.95146" lon="9.22316">
        <ele>1880.96</ele>
        <time>2015-09-13T13:27:48Z</time>
      </trkpt>
      <trkpt lat="41.95143" lon="9.22316">
        <ele>1882.88</ele>
        <time>2015-09-13T13:28:02Z</time>
      </trkpt>
      <trkpt lat="41.95139" lon="9.22316">
        <ele>1884.32</ele>
        <time>2015-09-13T13:28:20Z</time>
      </trkpt>
      <trkpt lat="41.95137" lon="9.22315">
        <ele>1884.8</ele>
        <time>2015-09-13T13:28:40Z</time>
      </trkpt>
      <trkpt lat="41.95133" lon="9.22314">
        <ele>1886.24</ele>
        <time>2015-09-13T13:28:58Z</time>
      </trkpt>
      <trkpt lat="41.95129" lon="9.22311">
        <ele>1888.65</ele>
        <time>2015-09-13T13:29:14Z</time>
      </trkpt>
      <trkpt lat="41.95125" lon="9.22306">
        <ele>1890.09</ele>
        <time>2015-09-13T13:29:30Z</time>
      </trkpt>
      <trkpt lat="41.95119" lon="9.22302">
        <ele>1892.01</ele>
        <time>2015-09-13T13:29:49Z</time>
      </trkpt>
      <trkpt lat="41.95113" lon="9.22291">
        <ele>1894.9</ele>
        <time>2015-09-13T13:30:08Z</time>
      </trkpt>
      <trkpt lat="41.95109" lon="9.22279">
        <ele>1897.3</ele>
        <time>2015-09-13T13:30:25Z</time>
      </trkpt>
      <trkpt lat="41.95107" lon="9.22271">
        <ele>1898.74</ele>
        <time>2015-09-13T13:30:40Z</time>
      </trkpt>
      <trkpt lat="41.95101" lon="9.22264">
        <ele>1900.66</ele>
        <time>2015-09-13T13:30:59Z</time>
      </trkpt>
      <trkpt lat="41.95091" lon="9.22269">
        <ele>1904.51</ele>
        <time>2015-09-13T13:31:15Z</time>
      </trkpt>
      <trkpt lat="41.95085" lon="9.22269">
        <ele>1903.07</ele>
        <time>2015-09-13T13:31:24Z</time>
      </trkpt>
      <trkpt lat="41.95074" lon="9.22265">
        <ele>1904.03</ele>
        <time>2015-09-13T13:31:39Z</time>
      </trkpt>
      <trkpt lat="41.95065" lon="9.22261">
        <ele>1905.95</ele>
        <time>2015-09-13T13:31:54Z</time>
      </trkpt>
      <trkpt lat="41.95054" lon="9.22251">
        <ele>1908.35</ele>
        <time>2015-09-13T13:32:14Z</time>
      </trkpt>
      <trkpt lat="41.95051" lon="9.22251">
        <ele>1909.8</ele>
        <time>2015-09-13T13:32:19Z</time>
      </trkpt>
      <trkpt lat="41.95043" lon="9.22251">
        <ele>1912.2</ele>
        <time>2015-09-13T13:32:35Z</time>
      </trkpt>
      <trkpt lat="41.95031" lon="9.2225">
        <ele>1913.16</ele>
        <time>2015-09-13T13:32:52Z</time>
      </trkpt>
      <trkpt lat="41.95023" lon="9.22244">
        <ele>1915.56</ele>
        <time>2015-09-13T13:33:07Z</time>
      </trkpt>
      <trkpt lat="41.95013" lon="9.22238">
        <ele>1915.56</ele>
        <time>2015-09-13T13:33:20Z</time>
      </trkpt>
      <trkpt lat="41.95012" lon="9.22237">
        <ele>1916.04</ele>
        <time>2015-09-13T13:33:22Z</time>
      </trkpt>
      <trkpt lat="41.94999" lon="9.22242">
        <ele>1916.53</ele>
        <time>2015-09-13T13:33:39Z</time>
      </trkpt>
      <trkpt lat="41.94989" lon="9.22246">
        <ele>1917.49</ele>
        <time>2015-09-13T13:33:56Z</time>
      </trkpt>
      <trkpt lat="41.94986" lon="9.22247">
        <ele>1918.45</ele>
        <time>2015-09-13T13:34:16Z</time>
      </trkpt>
      <trkpt lat="41.94986" lon="9.22244">
        <ele>1918.45</ele>
        <time>2015-09-13T13:34:45Z</time>
      </trkpt>
      <trkpt lat="41.94984" lon="9.22246">
        <ele>1918.93</ele>
        <time>2015-09-13T13:35:09Z</time>
      </trkpt>
      <trkpt lat="41.94978" lon="9.22246">
        <ele>1917.49</ele>
        <time>2015-09-13T13:35:18Z</time>
      </trkpt>
      <trkpt lat="41.94965" lon="9.22243">
        <ele>1917.01</ele>
        <time>2015-09-13T13:35:33Z</time>
      </trkpt>
      <trkpt lat="41.94961" lon="9.22241">
        <ele>1918.45</ele>
        <time>2015-09-13T13:35:37Z</time>
      </trkpt>
      <trkpt lat="41.9495" lon="9.2224">
        <ele>1917.49</ele>
        <time>2015-09-13T13:35:53Z</time>
      </trkpt>
      <trkpt lat="41.94942" lon="9.22238">
        <ele>1916.53</ele>
        <time>2015-09-13T13:36:06Z</time>
      </trkpt>
      <trkpt lat="41.94931" lon="9.22237">
        <ele>1915.56</ele>
        <time>2015-09-13T13:36:25Z</time>
      </trkpt>
      <trkpt lat="41.94921" lon="9.22236">
        <ele>1913.64</ele>
        <time>2015-09-13T13:36:42Z</time>
      </trkpt>
      <trkpt lat="41.9492" lon="9.22236">
        <ele>1915.08</ele>
        <time>2015-09-13T13:36:44Z</time>
      </trkpt>
      <trkpt lat="41.94912" lon="9.22237">
        <ele>1912.68</ele>
        <time>2015-09-13T13:37:00Z</time>
      </trkpt>
      <trkpt lat="41.94907" lon="9.22236">
        <ele>1913.16</ele>
        <time>2015-09-13T13:37:09Z</time>
      </trkpt>
      <trkpt lat="41.94893" lon="9.22238">
        <ele>1910.28</ele>
        <time>2015-09-13T13:37:25Z</time>
      </trkpt>
      <trkpt lat="41.94883" lon="9.2224">
        <ele>1909.8</ele>
        <time>2015-09-13T13:37:40Z</time>
      </trkpt>
      <trkpt lat="41.94876" lon="9.22239">
        <ele>1908.83</ele>
        <time>2015-09-13T13:37:54Z</time>
      </trkpt>
      <trkpt lat="41.94863" lon="9.2224">
        <ele>1907.87</ele>
        <time>2015-09-13T13:38:12Z</time>
      </trkpt>
      <trkpt lat="41.94851" lon="9.2224">
        <ele>1908.83</ele>
        <time>2015-09-13T13:38:30Z</time>
      </trkpt>
      <trkpt lat="41.94848" lon="9.22241">
        <ele>1906.91</ele>
        <time>2015-09-13T13:38:33Z</time>
      </trkpt>
      <trkpt lat="41.94843" lon="9.22239">
        <ele>1904.99</ele>
        <time>2015-09-13T13:38:39Z</time>
      </trkpt>
      <trkpt lat="41.94837" lon="9.22235">
        <ele>1904.03</ele>
        <time>2015-09-13T13:38:55Z</time>
      </trkpt>
      <trkpt lat="41.94822" lon="9.22219">
        <ele>1903.07</ele>
        <time>2015-09-13T13:39:13Z</time>
      </trkpt>
      <trkpt lat="41.94815" lon="9.2221">
        <ele>1903.55</ele>
        <time>2015-09-13T13:39:25Z</time>
      </trkpt>
      <trkpt lat="41.94806" lon="9.22198">
        <ele>1904.99</ele>
        <time>2015-09-13T13:39:42Z</time>
      </trkpt>
      <trkpt lat="41.94797" lon="9.22188">
        <ele>1905.95</ele>
        <time>2015-09-13T13:40:03Z</time>
      </trkpt>
      <trkpt lat="41.94791" lon="9.22177">
        <ele>1907.39</ele>
        <time>2015-09-13T13:40:19Z</time>
      </trkpt>
      <trkpt lat="41.94784" lon="9.22167">
        <ele>1909.32</ele>
        <time>2015-09-13T13:40:35Z</time>
      </trkpt>
      <trkpt lat="41.94779" lon="9.22171">
        <ele>1911.24</ele>
        <time>2015-09-13T13:40:52Z</time>
      </trkpt>
      <trkpt lat="41.94774" lon="9.22167">
        <ele>1912.68</ele>
        <time>2015-09-13T13:41:07Z</time>
      </trkpt>
      <trkpt lat="41.94765" lon="9.2216">
        <ele>1914.6</ele>
        <time>2015-09-13T13:41:25Z</time>
      </trkpt>
      <trkpt lat="41.9476" lon="9.22154">
        <ele>1915.56</ele>
        <time>2015-09-13T13:41:41Z</time>
      </trkpt>
      <trkpt lat="41.94753" lon="9.22149">
        <ele>1916.53</ele>
        <time>2015-09-13T13:41:57Z</time>
      </trkpt>
      <trkpt lat="41.94748" lon="9.22147">
        <ele>1917.97</ele>
        <time>2015-09-13T13:42:11Z</time>
      </trkpt>
      <trkpt lat="41.94742" lon="9.22143">
        <ele>1919.41</ele>
        <time>2015-09-13T13:42:27Z</time>
      </trkpt>
      <trkpt lat="41.94733" lon="9.22143">
        <ele>1919.89</ele>
        <time>2015-09-13T13:42:42Z</time>
      </trkpt>
      <trkpt lat="41.94722" lon="9.22142">
        <ele>1921.81</ele>
        <time>2015-09-13T13:43:00Z</time>
      </trkpt>
      <trkpt lat="41.94712" lon="9.22139">
        <ele>1921.81</ele>
        <time>2015-09-13T13:43:16Z</time>
      </trkpt>
      <trkpt lat="41.94699" lon="9.22127">
        <ele>1924.22</ele>
        <time>2015-09-13T13:43:35Z</time>
      </trkpt>
      <trkpt lat="41.94692" lon="9.22119">
        <ele>1922.77</ele>
        <time>2015-09-13T13:43:46Z</time>
      </trkpt>
      <trkpt lat="41.9469" lon="9.22117">
        <ele>1923.74</ele>
        <time>2015-09-13T13:43:50Z</time>
      </trkpt>
      <trkpt lat="41.94688" lon="9.22115">
        <ele>1922.77</ele>
        <time>2015-09-13T13:43:54Z</time>
      </trkpt>
      <trkpt lat="41.94679" lon="9.22102">
        <ele>1921.81</ele>
        <time>2015-09-13T13:44:08Z</time>
      </trkpt>
      <trkpt lat="41.94679" lon="9.22099">
        <ele>1921.33</ele>
        <time>2015-09-13T13:44:10Z</time>
      </trkpt>
      <trkpt lat="41.94668" lon="9.22081">
        <ele>1923.25</ele>
        <time>2015-09-13T13:44:29Z</time>
      </trkpt>
      <trkpt lat="41.94668" lon="9.22079">
        <ele>1922.29</ele>
        <time>2015-09-13T13:44:31Z</time>
      </trkpt>
      <trkpt lat="41.94657" lon="9.22065">
        <ele>1924.22</ele>
        <time>2015-09-13T13:44:48Z</time>
      </trkpt>
      <trkpt lat="41.9465" lon="9.22057">
        <ele>1925.66</ele>
        <time>2015-09-13T13:45:02Z</time>
      </trkpt>
      <trkpt lat="41.94643" lon="9.22046">
        <ele>1927.1</ele>
        <time>2015-09-13T13:45:20Z</time>
      </trkpt>
      <trkpt lat="41.94639" lon="9.22036">
        <ele>1928.54</ele>
        <time>2015-09-13T13:45:35Z</time>
      </trkpt>
      <trkpt lat="41.94632" lon="9.22029">
        <ele>1930.46</ele>
        <time>2015-09-13T13:45:50Z</time>
      </trkpt>
      <trkpt lat="41.94623" lon="9.22022">
        <ele>1930.95</ele>
        <time>2015-09-13T13:46:06Z</time>
      </trkpt>
      <trkpt lat="41.94614" lon="9.22016">
        <ele>1932.39</ele>
        <time>2015-09-13T13:46:22Z</time>
      </trkpt>
      <trkpt lat="41.94611" lon="9.22014">
        <ele>1933.35</ele>
        <time>2015-09-13T13:46:27Z</time>
      </trkpt>
      <trkpt lat="41.94603" lon="9.22008">
        <ele>1935.27</ele>
        <time>2015-09-13T13:46:44Z</time>
      </trkpt>
      <trkpt lat="41.94594" lon="9.22005">
        <ele>1937.19</ele>
        <time>2015-09-13T13:47:01Z</time>
      </trkpt>
      <trkpt lat="41.94583" lon="9.22004">
        <ele>1939.12</ele>
        <time>2015-09-13T13:47:18Z</time>
      </trkpt>
      <trkpt lat="41.94575" lon="9.22003">
        <ele>1940.56</ele>
        <time>2015-09-13T13:47:35Z</time>
      </trkpt>
      <trkpt lat="41.94569" lon="9.22008">
        <ele>1942.96</ele>
        <time>2015-09-13T13:47:51Z</time>
      </trkpt>
      <trkpt lat="41.94561" lon="9.22005">
        <ele>1943.92</ele>
        <time>2015-09-13T13:48:06Z</time>
      </trkpt>
      <trkpt lat="41.94554" lon="9.22005">
        <ele>1946.33</ele>
        <time>2015-09-13T13:48:23Z</time>
      </trkpt>
      <trkpt lat="41.94544" lon="9.22">
        <ele>1948.25</ele>
        <time>2015-09-13T13:48:42Z</time>
      </trkpt>
      <trkpt lat="41.94535" lon="9.21993">
        <ele>1949.21</ele>
        <time>2015-09-13T13:48:57Z</time>
      </trkpt>
      <trkpt lat="41.94528" lon="9.21983">
        <ele>1951.13</ele>
        <time>2015-09-13T13:49:14Z</time>
      </trkpt>
      <trkpt lat="41.94524" lon="9.21979">
        <ele>1953.06</ele>
        <time>2015-09-13T13:49:31Z</time>
      </trkpt>
      <trkpt lat="41.94518" lon="9.21976">
        <ele>1954.98</ele>
        <time>2015-09-13T13:49:45Z</time>
      </trkpt>
      <trkpt lat="41.94514" lon="9.21968">
        <ele>1957.38</ele>
        <time>2015-09-13T13:50:03Z</time>
      </trkpt>
      <trkpt lat="41.94509" lon="9.21962">
        <ele>1959.3</ele>
        <time>2015-09-13T13:50:21Z</time>
      </trkpt>
      <trkpt lat="41.94502" lon="9.21955">
        <ele>1960.75</ele>
        <time>2015-09-13T13:50:37Z</time>
      </trkpt>
      <trkpt lat="41.94494" lon="9.21947">
        <ele>1961.23</ele>
        <time>2015-09-13T13:50:54Z</time>
      </trkpt>
      <trkpt lat="41.9449" lon="9.21941">
        <ele>1958.82</ele>
        <time>2015-09-13T13:51:10Z</time>
      </trkpt>
      <trkpt lat="41.94488" lon="9.21936">
        <ele>1961.23</ele>
        <time>2015-09-13T13:51:23Z</time>
      </trkpt>
      <trkpt lat="41.94485" lon="9.21928">
        <ele>1963.15</ele>
        <time>2015-09-13T13:51:39Z</time>
      </trkpt>
      <trkpt lat="41.94484" lon="9.21922">
        <ele>1964.59</ele>
        <time>2015-09-13T13:51:54Z</time>
      </trkpt>
      <trkpt lat="41.94484" lon="9.21916">
        <ele>1965.07</ele>
        <time>2015-09-13T13:52:16Z</time>
      </trkpt>
      <trkpt lat="41.94481" lon="9.21913">
        <ele>1966.51</ele>
        <time>2015-09-13T13:52:31Z</time>
      </trkpt>
      <trkpt lat="41.9448" lon="9.21912">
        <ele>1966.99</ele>
        <time>2015-09-13T13:52:46Z</time>
      </trkpt>
      <trkpt lat="41.94479" lon="9.21911">
        <ele>1966.99</ele>
        <time>2015-09-13T13:53:12Z</time>
      </trkpt>
      <trkpt lat="41.94477" lon="9.21906">
        <ele>1969.4</ele>
        <time>2015-09-13T13:53:29Z</time>
      </trkpt>
      <trkpt lat="41.94474" lon="9.21903">
        <ele>1969.4</ele>
        <time>2015-09-13T13:53:41Z</time>
      </trkpt>
      <trkpt lat="41.94473" lon="9.21902">
        <ele>1970.84</ele>
        <time>2015-09-13T13:53:50Z</time>
      </trkpt>
      <trkpt lat="41.94471" lon="9.21899">
        <ele>1969.4</ele>
        <time>2015-09-13T13:54:04Z</time>
      </trkpt>
      <trkpt lat="41.94469" lon="9.21899">
        <ele>1967.96</ele>
        <time>2015-09-13T13:54:29Z</time>
      </trkpt>
      <trkpt lat="41.94467" lon="9.21895">
        <ele>1966.03</ele>
        <time>2015-09-13T13:54:46Z</time>
      </trkpt>
      <trkpt lat="41.94465" lon="9.21893">
        <ele>1965.07</ele>
        <time>2015-09-13T13:55:04Z</time>
      </trkpt>
      <trkpt lat="41.94464" lon="9.21888">
        <ele>1964.11</ele>
        <time>2015-09-13T13:55:18Z</time>
      </trkpt>
      <trkpt lat="41.94461" lon="9.21878">
        <ele>1961.71</ele>
        <time>2015-09-13T13:55:37Z</time>
      </trkpt>
      <trkpt lat="41.9446" lon="9.21862">
        <ele>1959.3</ele>
        <time>2015-09-13T13:55:55Z</time>
      </trkpt>
      <trkpt lat="41.94459" lon="9.21858">
        <ele>1958.82</ele>
        <time>2015-09-13T13:56:00Z</time>
      </trkpt>
      <trkpt lat="41.94459" lon="9.21849">
        <ele>1957.86</ele>
        <time>2015-09-13T13:56:15Z</time>
      </trkpt>
      <trkpt lat="41.94457" lon="9.21841">
        <ele>1957.38</ele>
        <time>2015-09-13T13:56:28Z</time>
      </trkpt>
      <trkpt lat="41.94453" lon="9.21837">
        <ele>1958.82</ele>
        <time>2015-09-13T13:56:37Z</time>
      </trkpt>
      <trkpt lat="41.94449" lon="9.21833">
        <ele>1958.82</ele>
        <time>2015-09-13T13:56:56Z</time>
      </trkpt>
      <trkpt lat="41.94449" lon="9.21827">
        <ele>1956.9</ele>
        <time>2015-09-13T13:57:12Z</time>
      </trkpt>
      <trkpt lat="41.94451" lon="9.21822">
        <ele>1954.98</ele>
        <time>2015-09-13T13:57:31Z</time>
      </trkpt>
      <trkpt lat="41.94452" lon="9.21816">
        <ele>1953.06</ele>
        <time>2015-09-13T13:57:45Z</time>
      </trkpt>
      <trkpt lat="41.9445" lon="9.21812">
        <ele>1951.61</ele>
        <time>2015-09-13T13:58:01Z</time>
      </trkpt>
      <trkpt lat="41.94444" lon="9.21809">
        <ele>1948.73</ele>
        <time>2015-09-13T13:58:15Z</time>
      </trkpt>
      <trkpt lat="41.9444" lon="9.21807">
        <ele>1945.36</ele>
        <time>2015-09-13T13:58:29Z</time>
      </trkpt>
      <trkpt lat="41.94433" lon="9.21805">
        <ele>1944.88</ele>
        <time>2015-09-13T13:58:43Z</time>
      </trkpt>
      <trkpt lat="41.94425" lon="9.21794">
        <ele>1944.88</ele>
        <time>2015-09-13T13:59:01Z</time>
      </trkpt>
      <trkpt lat="41.94422" lon="9.21789">
        <ele>1944.88</ele>
        <time>2015-09-13T13:59:16Z</time>
      </trkpt>
      <trkpt lat="41.94422" lon="9.21788">
        <ele>1946.33</ele>
        <time>2015-09-13T13:59:19Z</time>
      </trkpt>
      <trkpt lat="41.94419" lon="9.21787">
        <ele>1947.77</ele>
        <time>2015-09-13T13:59:32Z</time>
      </trkpt>
      <trkpt lat="41.94416" lon="9.21787">
        <ele>1945.36</ele>
        <time>2015-09-13T13:59:47Z</time>
      </trkpt>
      <trkpt lat="41.94413" lon="9.21782">
        <ele>1943.44</ele>
        <time>2015-09-13T14:00:05Z</time>
      </trkpt>
      <trkpt lat="41.94411" lon="9.21782">
        <ele>1944.4</ele>
        <time>2015-09-13T14:00:23Z</time>
      </trkpt>
      <trkpt lat="41.94409" lon="9.21781">
        <ele>1944.4</ele>
        <time>2015-09-13T14:00:48Z</time>
      </trkpt>
      <trkpt lat="41.9441" lon="9.21778">
        <ele>1943.92</ele>
        <time>2015-09-13T14:01:07Z</time>
      </trkpt>
      <trkpt lat="41.9441" lon="9.21777">
        <ele>1942.48</ele>
        <time>2015-09-13T14:01:16Z</time>
      </trkpt>
      <trkpt lat="41.94409" lon="9.21772">
        <ele>1940.08</ele>
        <time>2015-09-13T14:01:33Z</time>
      </trkpt>
      <trkpt lat="41.94403" lon="9.21767">
        <ele>1939.6</ele>
        <time>2015-09-13T14:01:51Z</time>
      </trkpt>
      <trkpt lat="41.94401" lon="9.21768">
        <ele>1939.6</ele>
        <time>2015-09-13T14:01:53Z</time>
      </trkpt>
      <trkpt lat="41.94385" lon="9.21768">
        <ele>1938.64</ele>
        <time>2015-09-13T14:02:12Z</time>
      </trkpt>
      <trkpt lat="41.94383" lon="9.21768">
        <ele>1938.16</ele>
        <time>2015-09-13T14:02:16Z</time>
      </trkpt>
      <trkpt lat="41.94373" lon="9.21763">
        <ele>1937.19</ele>
        <time>2015-09-13T14:02:35Z</time>
      </trkpt>
      <trkpt lat="41.94367" lon="9.21759">
        <ele>1936.23</ele>
        <time>2015-09-13T14:02:52Z</time>
      </trkpt>
      <trkpt lat="41.94365" lon="9.21752">
        <ele>1935.75</ele>
        <time>2015-09-13T14:03:11Z</time>
      </trkpt>
      <trkpt lat="41.9436" lon="9.21746">
        <ele>1937.19</ele>
        <time>2015-09-13T14:03:23Z</time>
      </trkpt>
      <trkpt lat="41.94361" lon="9.21741">
        <ele>1939.6</ele>
        <time>2015-09-13T14:03:39Z</time>
      </trkpt>
      <trkpt lat="41.94363" lon="9.21736">
        <ele>1941.52</ele>
        <time>2015-09-13T14:03:56Z</time>
      </trkpt>
      <trkpt lat="41.9436" lon="9.21735">
        <ele>1942.96</ele>
        <time>2015-09-13T14:04:08Z</time>
      </trkpt>
      <trkpt lat="41.94354" lon="9.21732">
        <ele>1944.4</ele>
        <time>2015-09-13T14:04:24Z</time>
      </trkpt>
      <trkpt lat="41.94345" lon="9.21722">
        <ele>1945.85</ele>
        <time>2015-09-13T14:04:42Z</time>
      </trkpt>
      <trkpt lat="41.9434" lon="9.21718">
        <ele>1944.88</ele>
        <time>2015-09-13T14:04:52Z</time>
      </trkpt>
      <trkpt lat="41.94334" lon="9.21713">
        <ele>1943.44</ele>
        <time>2015-09-13T14:05:08Z</time>
      </trkpt>
      <trkpt lat="41.94333" lon="9.21707">
        <ele>1943.44</ele>
        <time>2015-09-13T14:05:16Z</time>
      </trkpt>
      <trkpt lat="41.9433" lon="9.21698">
        <ele>1944.88</ele>
        <time>2015-09-13T14:05:30Z</time>
      </trkpt>
      <trkpt lat="41.94324" lon="9.21693">
        <ele>1943.44</ele>
        <time>2015-09-13T14:05:46Z</time>
      </trkpt>
      <trkpt lat="41.94323" lon="9.21693">
        <ele>1942.48</ele>
        <time>2015-09-13T14:05:48Z</time>
      </trkpt>
      <trkpt lat="41.94316" lon="9.21689">
        <ele>1940.56</ele>
        <time>2015-09-13T14:06:04Z</time>
      </trkpt>
      <trkpt lat="41.94314" lon="9.21686">
        <ele>1941.52</ele>
        <time>2015-09-13T14:06:13Z</time>
      </trkpt>
      <trkpt lat="41.94314" lon="9.21685">
        <ele>1943.44</ele>
        <time>2015-09-13T14:06:17Z</time>
      </trkpt>
      <trkpt lat="41.94313" lon="9.21679">
        <ele>1941.52</ele>
        <time>2015-09-13T14:06:35Z</time>
      </trkpt>
      <trkpt lat="41.94314" lon="9.21673">
        <ele>1940.08</ele>
        <time>2015-09-13T14:06:46Z</time>
      </trkpt>
      <trkpt lat="41.94304" lon="9.21667">
        <ele>1936.71</ele>
        <time>2015-09-13T14:07:02Z</time>
      </trkpt>
      <trkpt lat="41.94294" lon="9.21658">
        <ele>1934.31</ele>
        <time>2015-09-13T14:07:20Z</time>
      </trkpt>
      <trkpt lat="41.94294" lon="9.21657">
        <ele>1934.31</ele>
        <time>2015-09-13T14:07:21Z</time>
      </trkpt>
      <trkpt lat="41.94293" lon="9.2165">
        <ele>1932.87</ele>
        <time>2015-09-13T14:07:27Z</time>
      </trkpt>
      <trkpt lat="41.94289" lon="9.21644">
        <ele>1932.87</ele>
        <time>2015-09-13T14:07:35Z</time>
      </trkpt>
      <trkpt lat="41.94277" lon="9.21628">
        <ele>1935.27</ele>
        <time>2015-09-13T14:07:54Z</time>
      </trkpt>
      <trkpt lat="41.94272" lon="9.21622">
        <ele>1936.23</ele>
        <time>2015-09-13T14:08:10Z</time>
      </trkpt>
      <trkpt lat="41.94272" lon="9.21617">
        <ele>1937.67</ele>
        <time>2015-09-13T14:08:25Z</time>
      </trkpt>
      <trkpt lat="41.94272" lon="9.21612">
        <ele>1936.71</ele>
        <time>2015-09-13T14:08:41Z</time>
      </trkpt>
      <trkpt lat="41.94272" lon="9.2161">
        <ele>1935.75</ele>
        <time>2015-09-13T14:08:44Z</time>
      </trkpt>
      <trkpt lat="41.94272" lon="9.21609">
        <ele>1936.71</ele>
        <time>2015-09-13T14:08:46Z</time>
      </trkpt>
      <trkpt lat="41.9427" lon="9.21602">
        <ele>1935.75</ele>
        <time>2015-09-13T14:08:59Z</time>
      </trkpt>
      <trkpt lat="41.94266" lon="9.21588">
        <ele>1934.79</ele>
        <time>2015-09-13T14:09:15Z</time>
      </trkpt>
      <trkpt lat="41.94259" lon="9.21574">
        <ele>1934.31</ele>
        <time>2015-09-13T14:09:35Z</time>
      </trkpt>
      <trkpt lat="41.94257" lon="9.2157">
        <ele>1935.75</ele>
        <time>2015-09-13T14:09:41Z</time>
      </trkpt>
      <trkpt lat="41.94248" lon="9.21555">
        <ele>1936.23</ele>
        <time>2015-09-13T14:09:59Z</time>
      </trkpt>
      <trkpt lat="41.94239" lon="9.21542">
        <ele>1934.79</ele>
        <time>2015-09-13T14:10:16Z</time>
      </trkpt>
      <trkpt lat="41.94232" lon="9.21533">
        <ele>1936.23</ele>
        <time>2015-09-13T14:10:32Z</time>
      </trkpt>
      <trkpt lat="41.94228" lon="9.21525">
        <ele>1934.31</ele>
        <time>2015-09-13T14:10:41Z</time>
      </trkpt>
      <trkpt lat="41.94222" lon="9.21514">
        <ele>1933.83</ele>
        <time>2015-09-13T14:10:57Z</time>
      </trkpt>
      <trkpt lat="41.94221" lon="9.21513">
        <ele>1933.83</ele>
        <time>2015-09-13T14:10:58Z</time>
      </trkpt>
      <trkpt lat="41.94207" lon="9.2149">
        <ele>1932.87</ele>
        <time>2015-09-13T14:11:17Z</time>
      </trkpt>
      <trkpt lat="41.94194" lon="9.21477">
        <ele>1932.87</ele>
        <time>2015-09-13T14:11:34Z</time>
      </trkpt>
      <trkpt lat="41.94183" lon="9.21457">
        <ele>1932.39</ele>
        <time>2015-09-13T14:11:52Z</time>
      </trkpt>
      <trkpt lat="41.9418" lon="9.21451">
        <ele>1931.91</ele>
        <time>2015-09-13T14:11:58Z</time>
      </trkpt>
      <trkpt lat="41.94169" lon="9.21437">
        <ele>1930.46</ele>
        <time>2015-09-13T14:12:17Z</time>
      </trkpt>
      <trkpt lat="41.94161" lon="9.21424">
        <ele>1928.06</ele>
        <time>2015-09-13T14:12:34Z</time>
      </trkpt>
      <trkpt lat="41.94152" lon="9.21411">
        <ele>1926.14</ele>
        <time>2015-09-13T14:12:49Z</time>
      </trkpt>
      <trkpt lat="41.94147" lon="9.21407">
        <ele>1925.66</ele>
        <time>2015-09-13T14:12:55Z</time>
      </trkpt>
      <trkpt lat="41.94133" lon="9.21397">
        <ele>1925.18</ele>
        <time>2015-09-13T14:13:13Z</time>
      </trkpt>
      <trkpt lat="41.94123" lon="9.21391">
        <ele>1925.18</ele>
        <time>2015-09-13T14:13:25Z</time>
      </trkpt>
      <trkpt lat="41.9411" lon="9.21381">
        <ele>1925.18</ele>
        <time>2015-09-13T14:13:43Z</time>
      </trkpt>
      <trkpt lat="41.94098" lon="9.21377">
        <ele>1924.7</ele>
        <time>2015-09-13T14:13:59Z</time>
      </trkpt>
      <trkpt lat="41.94086" lon="9.21371">
        <ele>1922.29</ele>
        <time>2015-09-13T14:14:16Z</time>
      </trkpt>
      <trkpt lat="41.94085" lon="9.2137">
        <ele>1922.29</ele>
        <time>2015-09-13T14:14:18Z</time>
      </trkpt>
      <trkpt lat="41.94078" lon="9.21366">
        <ele>1921.81</ele>
        <time>2015-09-13T14:14:28Z</time>
      </trkpt>
      <trkpt lat="41.94074" lon="9.21364">
        <ele>1921.81</ele>
        <time>2015-09-13T14:14:32Z</time>
      </trkpt>
      <trkpt lat="41.9407" lon="9.21361">
        <ele>1921.33</ele>
        <time>2015-09-13T14:14:38Z</time>
      </trkpt>
      <trkpt lat="41.94062" lon="9.21357">
        <ele>1920.37</ele>
        <time>2015-09-13T14:14:47Z</time>
      </trkpt>
      <trkpt lat="41.94046" lon="9.21348">
        <ele>1920.37</ele>
        <time>2015-09-13T14:15:04Z</time>
      </trkpt>
      <trkpt lat="41.94028" lon="9.21341">
        <ele>1920.37</ele>
        <time>2015-09-13T14:15:23Z</time>
      </trkpt>
      <trkpt lat="41.94023" lon="9.21336">
        <ele>1921.81</ele>
        <time>2015-09-13T14:15:30Z</time>
      </trkpt>
      <trkpt lat="41.94013" lon="9.21332">
        <ele>1922.77</ele>
        <time>2015-09-13T14:15:45Z</time>
      </trkpt>
      <trkpt lat="41.94" lon="9.21329">
        <ele>1922.77</ele>
        <time>2015-09-13T14:16:02Z</time>
      </trkpt>
      <trkpt lat="41.93991" lon="9.21329">
        <ele>1924.22</ele>
        <time>2015-09-13T14:16:19Z</time>
      </trkpt>
      <trkpt lat="41.93983" lon="9.21334">
        <ele>1926.62</ele>
        <time>2015-09-13T14:16:36Z</time>
      </trkpt>
      <trkpt lat="41.93974" lon="9.21337">
        <ele>1928.54</ele>
        <time>2015-09-13T14:16:56Z</time>
      </trkpt>
      <trkpt lat="41.93966" lon="9.21338">
        <ele>1930.46</ele>
        <time>2015-09-13T14:17:11Z</time>
      </trkpt>
      <trkpt lat="41.93954" lon="9.21338">
        <ele>1931.91</ele>
        <time>2015-09-13T14:17:29Z</time>
      </trkpt>
      <trkpt lat="41.93946" lon="9.21333">
        <ele>1930.46</ele>
        <time>2015-09-13T14:17:44Z</time>
      </trkpt>
      <trkpt lat="41.93939" lon="9.21324">
        <ele>1929.98</ele>
        <time>2015-09-13T14:18:00Z</time>
      </trkpt>
      <trkpt lat="41.93933" lon="9.21318">
        <ele>1928.54</ele>
        <time>2015-09-13T14:18:15Z</time>
      </trkpt>
      <trkpt lat="41.93929" lon="9.21315">
        <ele>1929.02</ele>
        <time>2015-09-13T14:18:40Z</time>
      </trkpt>
      <trkpt lat="41.93919" lon="9.21301">
        <ele>1927.58</ele>
        <time>2015-09-13T14:18:56Z</time>
      </trkpt>
      <trkpt lat="41.9391" lon="9.21294">
        <ele>1927.58</ele>
        <time>2015-09-13T14:19:08Z</time>
      </trkpt>
      <trkpt lat="41.93901" lon="9.21288">
        <ele>1926.62</ele>
        <time>2015-09-13T14:19:21Z</time>
      </trkpt>
      <trkpt lat="41.93895" lon="9.21285">
        <ele>1926.14</ele>
        <time>2015-09-13T14:19:28Z</time>
      </trkpt>
      <trkpt lat="41.93891" lon="9.21278">
        <ele>1926.14</ele>
        <time>2015-09-13T14:19:34Z</time>
      </trkpt>
      <trkpt lat="41.93887" lon="9.21274">
        <ele>1926.14</ele>
        <time>2015-09-13T14:19:40Z</time>
      </trkpt>
      <trkpt lat="41.93885" lon="9.21274">
        <ele>1925.66</ele>
        <time>2015-09-13T14:19:42Z</time>
      </trkpt>
      <trkpt lat="41.93881" lon="9.21269">
        <ele>1924.22</ele>
        <time>2015-09-13T14:19:48Z</time>
      </trkpt>
      <trkpt lat="41.93871" lon="9.21255">
        <ele>1921.81</ele>
        <time>2015-09-13T14:20:03Z</time>
      </trkpt>
      <trkpt lat="41.93862" lon="9.21241">
        <ele>1918.93</ele>
        <time>2015-09-13T14:20:19Z</time>
      </trkpt>
      <trkpt lat="41.93852" lon="9.21229">
        <ele>1916.04</ele>
        <time>2015-09-13T14:20:37Z</time>
      </trkpt>
      <trkpt lat="41.93843" lon="9.21217">
        <ele>1913.64</ele>
        <time>2015-09-13T14:20:53Z</time>
      </trkpt>
      <trkpt lat="41.93843" lon="9.21217">
        <ele>1913.64</ele>
        <time>2015-09-13T14:20:54Z</time>
      </trkpt>
      <trkpt lat="41.93832" lon="9.21209">
        <ele>1910.28</ele>
        <time>2015-09-13T14:21:11Z</time>
      </trkpt>
      <trkpt lat="41.93821" lon="9.21204">
        <ele>1907.87</ele>
        <time>2015-09-13T14:21:30Z</time>
      </trkpt>
      <trkpt lat="41.93814" lon="9.21205">
        <ele>1904.99</ele>
        <time>2015-09-13T14:21:48Z</time>
      </trkpt>
      <trkpt lat="41.93807" lon="9.21205">
        <ele>1902.59</ele>
        <time>2015-09-13T14:22:06Z</time>
      </trkpt>
      <trkpt lat="41.938" lon="9.21209">
        <ele>1900.18</ele>
        <time>2015-09-13T14:22:21Z</time>
      </trkpt>
      <trkpt lat="41.9379" lon="9.21209">
        <ele>1897.78</ele>
        <time>2015-09-13T14:22:37Z</time>
      </trkpt>
      <trkpt lat="41.93782" lon="9.21211">
        <ele>1894.9</ele>
        <time>2015-09-13T14:22:55Z</time>
      </trkpt>
      <trkpt lat="41.93773" lon="9.21211">
        <ele>1892.49</ele>
        <time>2015-09-13T14:23:13Z</time>
      </trkpt>
      <trkpt lat="41.93765" lon="9.2121">
        <ele>1891.05</ele>
        <time>2015-09-13T14:23:30Z</time>
      </trkpt>
      <trkpt lat="41.9376" lon="9.21211">
        <ele>1890.09</ele>
        <time>2015-09-13T14:23:39Z</time>
      </trkpt>
      <trkpt lat="41.93749" lon="9.21206">
        <ele>1888.65</ele>
        <time>2015-09-13T14:23:56Z</time>
      </trkpt>
      <trkpt lat="41.93744" lon="9.21201">
        <ele>1886.72</ele>
        <time>2015-09-13T14:24:11Z</time>
      </trkpt>
      <trkpt lat="41.93738" lon="9.21198">
        <ele>1884.32</ele>
        <time>2015-09-13T14:24:28Z</time>
      </trkpt>
      <trkpt lat="41.9373" lon="9.21193">
        <ele>1883.36</ele>
        <time>2015-09-13T14:24:40Z</time>
      </trkpt>
      <trkpt lat="41.93723" lon="9.2118">
        <ele>1882.88</ele>
        <time>2015-09-13T14:24:57Z</time>
      </trkpt>
      <trkpt lat="41.93718" lon="9.21175">
        <ele>1882.88</ele>
        <time>2015-09-13T14:25:06Z</time>
      </trkpt>
      <trkpt lat="41.93712" lon="9.21164">
        <ele>1881.44</ele>
        <time>2015-09-13T14:25:23Z</time>
      </trkpt>
      <trkpt lat="41.93712" lon="9.21155">
        <ele>1879.51</ele>
        <time>2015-09-13T14:25:41Z</time>
      </trkpt>
      <trkpt lat="41.93716" lon="9.21146">
        <ele>1878.55</ele>
        <time>2015-09-13T14:25:55Z</time>
      </trkpt>
      <trkpt lat="41.9372" lon="9.21126">
        <ele>1876.15</ele>
        <time>2015-09-13T14:26:16Z</time>
      </trkpt>
      <trkpt lat="41.9372" lon="9.21113">
        <ele>1876.15</ele>
        <time>2015-09-13T14:26:35Z</time>
      </trkpt>
      <trkpt lat="41.93718" lon="9.211">
        <ele>1874.23</ele>
        <time>2015-09-13T14:26:50Z</time>
      </trkpt>
      <trkpt lat="41.93718" lon="9.21098">
        <ele>1873.27</ele>
        <time>2015-09-13T14:26:53Z</time>
      </trkpt>
      <trkpt lat="41.93715" lon="9.21091">
        <ele>1870.86</ele>
        <time>2015-09-13T14:27:10Z</time>
      </trkpt>
      <trkpt lat="41.93711" lon="9.21077">
        <ele>1869.42</ele>
        <time>2015-09-13T14:27:25Z</time>
      </trkpt>
      <trkpt lat="41.93712" lon="9.2106">
        <ele>1867.02</ele>
        <time>2015-09-13T14:27:44Z</time>
      </trkpt>
      <trkpt lat="41.93707" lon="9.21049">
        <ele>1865.09</ele>
        <time>2015-09-13T14:28:01Z</time>
      </trkpt>
      <trkpt lat="41.93701" lon="9.21043">
        <ele>1862.21</ele>
        <time>2015-09-13T14:28:16Z</time>
      </trkpt>
      <trkpt lat="41.93696" lon="9.21038">
        <ele>1859.33</ele>
        <time>2015-09-13T14:28:30Z</time>
      </trkpt>
      <trkpt lat="41.93692" lon="9.21033">
        <ele>1857.4</ele>
        <time>2015-09-13T14:28:45Z</time>
      </trkpt>
      <trkpt lat="41.93685" lon="9.21026">
        <ele>1854.52</ele>
        <time>2015-09-13T14:29:01Z</time>
      </trkpt>
      <trkpt lat="41.9368" lon="9.21014">
        <ele>1852.6</ele>
        <time>2015-09-13T14:29:20Z</time>
      </trkpt>
      <trkpt lat="41.93679" lon="9.21002">
        <ele>1850.19</ele>
        <time>2015-09-13T14:29:37Z</time>
      </trkpt>
      <trkpt lat="41.93681" lon="9.20991">
        <ele>1849.23</ele>
        <time>2015-09-13T14:29:51Z</time>
      </trkpt>
      <trkpt lat="41.93678" lon="9.2098">
        <ele>1846.83</ele>
        <time>2015-09-13T14:30:08Z</time>
      </trkpt>
      <trkpt lat="41.93675" lon="9.20973">
        <ele>1844.43</ele>
        <time>2015-09-13T14:30:25Z</time>
      </trkpt>
      <trkpt lat="41.93675" lon="9.20972">
        <ele>1844.43</ele>
        <time>2015-09-13T14:30:26Z</time>
      </trkpt>
      <trkpt lat="41.93671" lon="9.20962">
        <ele>1842.02</ele>
        <time>2015-09-13T14:30:41Z</time>
      </trkpt>
      <trkpt lat="41.93668" lon="9.2095">
        <ele>1840.1</ele>
        <time>2015-09-13T14:30:57Z</time>
      </trkpt>
      <trkpt lat="41.93666" lon="9.2094">
        <ele>1838.66</ele>
        <time>2015-09-13T14:31:12Z</time>
      </trkpt>
      <trkpt lat="41.93666" lon="9.20928">
        <ele>1836.74</ele>
        <time>2015-09-13T14:31:28Z</time>
      </trkpt>
      <trkpt lat="41.93664" lon="9.20918">
        <ele>1835.29</ele>
        <time>2015-09-13T14:31:42Z</time>
      </trkpt>
      <trkpt lat="41.93664" lon="9.20907">
        <ele>1833.37</ele>
        <time>2015-09-13T14:31:56Z</time>
      </trkpt>
      <trkpt lat="41.93664" lon="9.20902">
        <ele>1832.89</ele>
        <time>2015-09-13T14:32:01Z</time>
      </trkpt>
      <trkpt lat="41.93666" lon="9.20887">
        <ele>1832.41</ele>
        <time>2015-09-13T14:32:19Z</time>
      </trkpt>
      <trkpt lat="41.93661" lon="9.20872">
        <ele>1830.01</ele>
        <time>2015-09-13T14:32:38Z</time>
      </trkpt>
      <trkpt lat="41.9366" lon="9.20864">
        <ele>1828.56</ele>
        <time>2015-09-13T14:32:52Z</time>
      </trkpt>
      <trkpt lat="41.93659" lon="9.20852">
        <ele>1826.64</ele>
        <time>2015-09-13T14:33:08Z</time>
      </trkpt>
      <trkpt lat="41.93661" lon="9.20836">
        <ele>1825.2</ele>
        <time>2015-09-13T14:33:27Z</time>
      </trkpt>
      <trkpt lat="41.93658" lon="9.20824">
        <ele>1822.8</ele>
        <time>2015-09-13T14:33:44Z</time>
      </trkpt>
      <trkpt lat="41.93658" lon="9.20814">
        <ele>1820.87</ele>
        <time>2015-09-13T14:33:57Z</time>
      </trkpt>
      <trkpt lat="41.93656" lon="9.2081">
        <ele>1819.43</ele>
        <time>2015-09-13T14:34:12Z</time>
      </trkpt>
      <trkpt lat="41.93654" lon="9.20808">
        <ele>1818.95</ele>
        <time>2015-09-13T14:34:17Z</time>
      </trkpt>
      <trkpt lat="41.93649" lon="9.20801">
        <ele>1817.03</ele>
        <time>2015-09-13T14:34:31Z</time>
      </trkpt>
      <trkpt lat="41.93647" lon="9.20794">
        <ele>1815.59</ele>
        <time>2015-09-13T14:34:45Z</time>
      </trkpt>
      <trkpt lat="41.93643" lon="9.20788">
        <ele>1813.18</ele>
        <time>2015-09-13T14:35:00Z</time>
      </trkpt>
      <trkpt lat="41.93638" lon="9.20781">
        <ele>1811.26</ele>
        <time>2015-09-13T14:35:17Z</time>
      </trkpt>
      <trkpt lat="41.93632" lon="9.20776">
        <ele>1808.38</ele>
        <time>2015-09-13T14:35:33Z</time>
      </trkpt>
      <trkpt lat="41.93626" lon="9.20768">
        <ele>1805.97</ele>
        <time>2015-09-13T14:35:49Z</time>
      </trkpt>
      <trkpt lat="41.93622" lon="9.2076">
        <ele>1803.09</ele>
        <time>2015-09-13T14:36:05Z</time>
      </trkpt>
      <trkpt lat="41.93618" lon="9.20752">
        <ele>1800.69</ele>
        <time>2015-09-13T14:36:20Z</time>
      </trkpt>
      <trkpt lat="41.93611" lon="9.20751">
        <ele>1798.76</ele>
        <time>2015-09-13T14:36:34Z</time>
      </trkpt>
      <trkpt lat="41.93609" lon="9.20739">
        <ele>1796.36</ele>
        <time>2015-09-13T14:36:52Z</time>
      </trkpt>
      <trkpt lat="41.936" lon="9.20736">
        <ele>1793.48</ele>
        <time>2015-09-13T14:37:13Z</time>
      </trkpt>
      <trkpt lat="41.93596" lon="9.20737">
        <ele>1791.55</ele>
        <time>2015-09-13T14:37:27Z</time>
      </trkpt>
      <trkpt lat="41.93591" lon="9.20734">
        <ele>1789.63</ele>
        <time>2015-09-13T14:37:44Z</time>
      </trkpt>
      <trkpt lat="41.93588" lon="9.20733">
        <ele>1787.23</ele>
        <time>2015-09-13T14:38:03Z</time>
      </trkpt>
      <trkpt lat="41.93583" lon="9.20728">
        <ele>1784.82</ele>
        <time>2015-09-13T14:38:17Z</time>
      </trkpt>
      <trkpt lat="41.93579" lon="9.20725">
        <ele>1782.42</ele>
        <time>2015-09-13T14:38:32Z</time>
      </trkpt>
      <trkpt lat="41.93576" lon="9.2072">
        <ele>1780.5</ele>
        <time>2015-09-13T14:38:49Z</time>
      </trkpt>
      <trkpt lat="41.93576" lon="9.20715">
        <ele>1778.58</ele>
        <time>2015-09-13T14:39:05Z</time>
      </trkpt>
      <trkpt lat="41.93572" lon="9.20712">
        <ele>1776.17</ele>
        <time>2015-09-13T14:39:22Z</time>
      </trkpt>
      <trkpt lat="41.9357" lon="9.20704">
        <ele>1774.73</ele>
        <time>2015-09-13T14:39:37Z</time>
      </trkpt>
      <trkpt lat="41.93566" lon="9.20705">
        <ele>1772.81</ele>
        <time>2015-09-13T14:39:53Z</time>
      </trkpt>
      <trkpt lat="41.93564" lon="9.20698">
        <ele>1770.41</ele>
        <time>2015-09-13T14:40:10Z</time>
      </trkpt>
      <trkpt lat="41.93558" lon="9.207">
        <ele>1767.04</ele>
        <time>2015-09-13T14:40:26Z</time>
      </trkpt>
      <trkpt lat="41.93552" lon="9.207">
        <ele>1765.12</ele>
        <time>2015-09-13T14:40:46Z</time>
      </trkpt>
      <trkpt lat="41.93544" lon="9.20694">
        <ele>1761.75</ele>
        <time>2015-09-13T14:41:04Z</time>
      </trkpt>
      <trkpt lat="41.93542" lon="9.20687">
        <ele>1759.35</ele>
        <time>2015-09-13T14:41:20Z</time>
      </trkpt>
      <trkpt lat="41.9354" lon="9.20675">
        <ele>1756.47</ele>
        <time>2015-09-13T14:41:33Z</time>
      </trkpt>
      <trkpt lat="41.93537" lon="9.20667">
        <ele>1754.54</ele>
        <time>2015-09-13T14:41:47Z</time>
      </trkpt>
      <trkpt lat="41.93531" lon="9.20659">
        <ele>1751.18</ele>
        <time>2015-09-13T14:42:05Z</time>
      </trkpt>
      <trkpt lat="41.93531" lon="9.20648">
        <ele>1749.26</ele>
        <time>2015-09-13T14:42:24Z</time>
      </trkpt>
      <trkpt lat="41.93528" lon="9.2064">
        <ele>1747.81</ele>
        <time>2015-09-13T14:42:39Z</time>
      </trkpt>
      <trkpt lat="41.93523" lon="9.20633">
        <ele>1745.89</ele>
        <time>2015-09-13T14:42:56Z</time>
      </trkpt>
      <trkpt lat="41.93518" lon="9.20636">
        <ele>1744.93</ele>
        <time>2015-09-13T14:43:15Z</time>
      </trkpt>
      <trkpt lat="41.93519" lon="9.2064">
        <ele>1744.93</ele>
        <time>2015-09-13T14:43:40Z</time>
      </trkpt>
      <trkpt lat="41.93517" lon="9.20639">
        <ele>1744.45</ele>
        <time>2015-09-13T14:44:11Z</time>
      </trkpt>
      <trkpt lat="41.93515" lon="9.2064">
        <ele>1744.45</ele>
        <time>2015-09-13T14:44:38Z</time>
      </trkpt>
      <trkpt lat="41.93517" lon="9.2064">
        <ele>1744.45</ele>
        <time>2015-09-13T14:45:10Z</time>
      </trkpt>
      <trkpt lat="41.93515" lon="9.20639">
        <ele>1744.45</ele>
        <time>2015-09-13T14:45:36Z</time>
      </trkpt>
      <trkpt lat="41.93517" lon="9.20641">
        <ele>1743.97</ele>
        <time>2015-09-13T14:46:00Z</time>
      </trkpt>
      <trkpt lat="41.93515" lon="9.20638">
        <ele>1743.97</ele>
        <time>2015-09-13T14:46:28Z</time>
      </trkpt>
      <trkpt lat="41.93517" lon="9.20641">
        <ele>1743.97</ele>
        <time>2015-09-13T14:47:02Z</time>
      </trkpt>
      <trkpt lat="41.93517" lon="9.20644">
        <ele>1744.93</ele>
        <time>2015-09-13T14:47:36Z</time>
      </trkpt>
      <trkpt lat="41.93517" lon="9.20643">
        <ele>1744.93</ele>
        <time>2015-09-13T14:48:10Z</time>
      </trkpt>
      <trkpt lat="41.93519" lon="9.20644">
        <ele>1744.45</ele>
        <time>2015-09-13T14:48:41Z</time>
      </trkpt>
      <trkpt lat="41.93519" lon="9.20639">
        <ele>1744.45</ele>
        <time>2015-09-13T14:49:10Z</time>
      </trkpt>
      <trkpt lat="41.93517" lon="9.20639">
        <ele>1744.45</ele>
        <time>2015-09-13T14:49:41Z</time>
      </trkpt>
      <trkpt lat="41.93518" lon="9.20637">
        <ele>1743.01</ele>
        <time>2015-09-13T14:50:07Z</time>
      </trkpt>
      <trkpt lat="41.93517" lon="9.20635">
        <ele>1742.53</ele>
        <time>2015-09-13T14:50:25Z</time>
      </trkpt>
      <trkpt lat="41.93515" lon="9.20624">
        <ele>1741.57</ele>
        <time>2015-09-13T14:50:45Z</time>
      </trkpt>
      <trkpt lat="41.9351" lon="9.20617">
        <ele>1741.08</ele>
        <time>2015-09-13T14:50:59Z</time>
      </trkpt>
      <trkpt lat="41.93504" lon="9.20608">
        <ele>1740.6</ele>
        <time>2015-09-13T14:51:16Z</time>
      </trkpt>
      <trkpt lat="41.93504" lon="9.2061">
        <ele>1740.6</ele>
        <time>2015-09-13T14:51:34Z</time>
      </trkpt>
      <trkpt lat="41.93502" lon="9.20616">
        <ele>1740.12</ele>
        <time>2015-09-13T14:51:56Z</time>
      </trkpt>
      <trkpt lat="41.93504" lon="9.20613">
        <ele>1739.64</ele>
        <time>2015-09-13T14:52:17Z</time>
      </trkpt>
      <trkpt lat="41.93504" lon="9.20612">
        <ele>1739.64</ele>
        <time>2015-09-13T14:52:37Z</time>
      </trkpt>
      <trkpt lat="41.93505" lon="9.20613">
        <ele>1739.64</ele>
        <time>2015-09-13T14:52:56Z</time>
      </trkpt>
      <trkpt lat="41.93506" lon="9.20608">
        <ele>1739.64</ele>
        <time>2015-09-13T14:52:59Z</time>
      </trkpt>
      <trkpt lat="41.93502" lon="9.20593">
        <ele>1739.64</ele>
        <time>2015-09-13T14:53:16Z</time>
      </trkpt>
      <trkpt lat="41.93496" lon="9.20587">
        <ele>1738.68</ele>
        <time>2015-09-13T14:53:32Z</time>
      </trkpt>
      <trkpt lat="41.93495" lon="9.20577">
        <ele>1737.24</ele>
        <time>2015-09-13T14:53:50Z</time>
      </trkpt>
      <trkpt lat="41.9349" lon="9.20568">
        <ele>1735.32</ele>
        <time>2015-09-13T14:54:06Z</time>
      </trkpt>
      <trkpt lat="41.93488" lon="9.20562">
        <ele>1733.39</ele>
        <time>2015-09-13T14:54:22Z</time>
      </trkpt>
      <trkpt lat="41.93486" lon="9.20554">
        <ele>1731.95</ele>
        <time>2015-09-13T14:54:38Z</time>
      </trkpt>
      <trkpt lat="41.93485" lon="9.20543">
        <ele>1729.55</ele>
        <time>2015-09-13T14:54:59Z</time>
      </trkpt>
      <trkpt lat="41.93479" lon="9.20541">
        <ele>1727.63</ele>
        <time>2015-09-13T14:55:17Z</time>
      </trkpt>
      <trkpt lat="41.93473" lon="9.20534">
        <ele>1725.7</ele>
        <time>2015-09-13T14:55:34Z</time>
      </trkpt>
      <trkpt lat="41.93463" lon="9.20539">
        <ele>1725.7</ele>
        <time>2015-09-13T14:55:51Z</time>
      </trkpt>
      <trkpt lat="41.93455" lon="9.20535">
        <ele>1725.7</ele>
        <time>2015-09-13T14:56:05Z</time>
      </trkpt>
      <trkpt lat="41.93449" lon="9.20535">
        <ele>1724.26</ele>
        <time>2015-09-13T14:56:20Z</time>
      </trkpt>
      <trkpt lat="41.93445" lon="9.20527">
        <ele>1722.34</ele>
        <time>2015-09-13T14:56:37Z</time>
      </trkpt>
      <trkpt lat="41.9344" lon="9.20523">
        <ele>1720.9</ele>
        <time>2015-09-13T14:56:52Z</time>
      </trkpt>
      <trkpt lat="41.93438" lon="9.20516">
        <ele>1718.97</ele>
        <time>2015-09-13T14:57:11Z</time>
      </trkpt>
      <trkpt lat="41.93431" lon="9.20508">
        <ele>1716.57</ele>
        <time>2015-09-13T14:57:28Z</time>
      </trkpt>
      <trkpt lat="41.93428" lon="9.20512">
        <ele>1715.61</ele>
        <time>2015-09-13T14:57:46Z</time>
      </trkpt>
      <trkpt lat="41.93427" lon="9.20516">
        <ele>1715.13</ele>
        <time>2015-09-13T14:58:03Z</time>
      </trkpt>
      <trkpt lat="41.93426" lon="9.20516">
        <ele>1714.65</ele>
        <time>2015-09-13T14:58:27Z</time>
      </trkpt>
      <trkpt lat="41.93424" lon="9.20515">
        <ele>1714.65</ele>
        <time>2015-09-13T14:58:57Z</time>
      </trkpt>
      <trkpt lat="41.93426" lon="9.20515">
        <ele>1714.17</ele>
        <time>2015-09-13T14:59:21Z</time>
      </trkpt>
      <trkpt lat="41.93425" lon="9.20514">
        <ele>1714.17</ele>
        <time>2015-09-13T14:59:41Z</time>
      </trkpt>
      <trkpt lat="41.93426" lon="9.20511">
        <ele>1714.17</ele>
        <time>2015-09-13T15:00:05Z</time>
      </trkpt>
      <trkpt lat="41.93426" lon="9.20512">
        <ele>1714.17</ele>
        <time>2015-09-13T15:00:26Z</time>
      </trkpt>
      <trkpt lat="41.93426" lon="9.20515">
        <ele>1713.69</ele>
        <time>2015-09-13T15:00:44Z</time>
      </trkpt>
      <trkpt lat="41.93426" lon="9.20516">
        <ele>1715.13</ele>
        <time>2015-09-13T15:01:08Z</time>
      </trkpt>
      <trkpt lat="41.93427" lon="9.20515">
        <ele>1715.61</ele>
        <time>2015-09-13T15:01:31Z</time>
      </trkpt>
      <trkpt lat="41.93427" lon="9.20514">
        <ele>1715.61</ele>
        <time>2015-09-13T15:01:56Z</time>
      </trkpt>
      <trkpt lat="41.93427" lon="9.20516">
        <ele>1715.13</ele>
        <time>2015-09-13T15:02:22Z</time>
      </trkpt>
      <trkpt lat="41.93427" lon="9.20518">
        <ele>1715.13</ele>
        <time>2015-09-13T15:02:51Z</time>
      </trkpt>
      <trkpt lat="41.93428" lon="9.20515">
        <ele>1715.13</ele>
        <time>2015-09-13T15:03:13Z</time>
      </trkpt>
      <trkpt lat="41.93428" lon="9.20514">
        <ele>1715.13</ele>
        <time>2015-09-13T15:03:40Z</time>
      </trkpt>
      <trkpt lat="41.93427" lon="9.20516">
        <ele>1715.13</ele>
        <time>2015-09-13T15:04:13Z</time>
      </trkpt>
      <trkpt lat="41.93425" lon="9.20514">
        <ele>1715.13</ele>
        <time>2015-09-13T15:04:43Z</time>
      </trkpt>
      <trkpt lat="41.93426" lon="9.20514">
        <ele>1715.13</ele>
        <time>2015-09-13T15:05:06Z</time>
      </trkpt>
      <trkpt lat="41.93426" lon="9.20516">
        <ele>1715.13</ele>
        <time>2015-09-13T15:05:29Z</time>
      </trkpt>
      <trkpt lat="41.93426" lon="9.20517">
        <ele>1714.65</ele>
        <time>2015-09-13T15:05:53Z</time>
      </trkpt>
      <trkpt lat="41.93429" lon="9.20516">
        <ele>1714.65</ele>
        <time>2015-09-13T15:06:20Z</time>
      </trkpt>
      <trkpt lat="41.93428" lon="9.20519">
        <ele>1714.65</ele>
        <time>2015-09-13T15:06:55Z</time>
      </trkpt>
      <trkpt lat="41.93425" lon="9.20516">
        <ele>1714.65</ele>
        <time>2015-09-13T15:07:20Z</time>
      </trkpt>
      <trkpt lat="41.93428" lon="9.20515">
        <ele>1714.65</ele>
        <time>2015-09-13T15:07:43Z</time>
      </trkpt>
      <trkpt lat="41.93428" lon="9.20513">
        <ele>1714.65</ele>
        <time>2015-09-13T15:08:19Z</time>
      </trkpt>
      <trkpt lat="41.93426" lon="9.20512">
        <ele>1714.65</ele>
        <time>2015-09-13T15:08:48Z</time>
      </trkpt>
      <trkpt lat="41.93426" lon="9.20513">
        <ele>1714.65</ele>
        <time>2015-09-13T15:09:13Z</time>
      </trkpt>
      <trkpt lat="41.93426" lon="9.20515">
        <ele>1714.65</ele>
        <time>2015-09-13T15:09:40Z</time>
      </trkpt>
      <trkpt lat="41.93427" lon="9.20515">
        <ele>1714.65</ele>
        <time>2015-09-13T15:10:08Z</time>
      </trkpt>
      <trkpt lat="41.93425" lon="9.20519">
        <ele>1714.17</ele>
        <time>2015-09-13T15:10:31Z</time>
      </trkpt>
      <trkpt lat="41.93426" lon="9.20518">
        <ele>1714.17</ele>
        <time>2015-09-13T15:11:01Z</time>
      </trkpt>
      <trkpt lat="41.93426" lon="9.20516">
        <ele>1713.21</ele>
        <time>2015-09-13T15:11:26Z</time>
      </trkpt>
      <trkpt lat="41.93427" lon="9.20518">
        <ele>1713.21</ele>
        <time>2015-09-13T15:11:50Z</time>
      </trkpt>
      <trkpt lat="41.93428" lon="9.20517">
        <ele>1713.21</ele>
        <time>2015-09-13T15:12:20Z</time>
      </trkpt>
      <trkpt lat="41.93428" lon="9.20514">
        <ele>1712.73</ele>
        <time>2015-09-13T15:12:57Z</time>
      </trkpt>
      <trkpt lat="41.93427" lon="9.20514">
        <ele>1712.73</ele>
        <time>2015-09-13T15:13:28Z</time>
      </trkpt>
      <trkpt lat="41.93426" lon="9.20513">
        <ele>1712.73</ele>
        <time>2015-09-13T15:13:53Z</time>
      </trkpt>
      <trkpt lat="41.93426" lon="9.20513">
        <ele>1712.73</ele>
        <time>2015-09-13T15:14:17Z</time>
      </trkpt>
      <trkpt lat="41.93427" lon="9.20514">
        <ele>1712.73</ele>
        <time>2015-09-13T15:14:38Z</time>
      </trkpt>
      <trkpt lat="41.93427" lon="9.20514">
        <ele>1712.73</ele>
        <time>2015-09-13T15:15:02Z</time>
      </trkpt>
      <trkpt lat="41.93428" lon="9.20513">
        <ele>1712.73</ele>
        <time>2015-09-13T15:15:24Z</time>
      </trkpt>
      <trkpt lat="41.93427" lon="9.20513">
        <ele>1712.73</ele>
        <time>2015-09-13T15:15:45Z</time>
      </trkpt>
      <trkpt lat="41.93426" lon="9.20516">
        <ele>1712.73</ele>
        <time>2015-09-13T15:16:08Z</time>
      </trkpt>
      <trkpt lat="41.93426" lon="9.20515">
        <ele>1714.17</ele>
        <time>2015-09-13T15:16:34Z</time>
      </trkpt>
      <trkpt lat="41.93428" lon="9.20513">
        <ele>1714.17</ele>
        <time>2015-09-13T15:16:59Z</time>
      </trkpt>
      <trkpt lat="41.93428" lon="9.20512">
        <ele>1713.69</ele>
        <time>2015-09-13T15:17:36Z</time>
      </trkpt>
      <trkpt lat="41.93425" lon="9.20514">
        <ele>1713.69</ele>
        <time>2015-09-13T15:18:05Z</time>
      </trkpt>
      <trkpt lat="41.93426" lon="9.20516">
        <ele>1713.69</ele>
        <time>2015-09-13T15:18:33Z</time>
      </trkpt>
      <trkpt lat="41.93426" lon="9.20517">
        <ele>1713.69</ele>
        <time>2015-09-13T15:19:13Z</time>
      </trkpt>
      <trkpt lat="41.93426" lon="9.20516">
        <ele>1714.17</ele>
        <time>2015-09-13T15:19:43Z</time>
      </trkpt>
      <trkpt lat="41.93426" lon="9.20516">
        <ele>1714.17</ele>
        <time>2015-09-13T15:20:11Z</time>
      </trkpt>
      <trkpt lat="41.93426" lon="9.20515">
        <ele>1714.17</ele>
        <time>2015-09-13T15:20:42Z</time>
      </trkpt>
      <trkpt lat="41.93426" lon="9.20514">
        <ele>1713.69</ele>
        <time>2015-09-13T15:21:16Z</time>
      </trkpt>
      <trkpt lat="41.93426" lon="9.20515">
        <ele>1714.65</ele>
        <time>2015-09-13T15:21:38Z</time>
      </trkpt>
    </trkseg>
  </trk>
</gpx>